[[{"header":{"parameterUnit":"m.s-1","parameterCategory":1,"la1":30.6,"la2":29.2853,"lo1":-89.7004,"lo2":-87.6739,"dy":0.0162,"dx":0.0183,"nx":112,"ny":82,"refTime":"2024-07-14T00:00:00:Z","depth":0,"parameterNumber":2,"parameterNumberName":"U-component_of_WINDS"},"data":[0.0,0.0,0.0,0.0,0.0,0.0,0.0,0.0,0.0,0.0,0.0,0.0,0.0,0.0,0.0,0.0,0.0,0.0,0.0,0.0,0.0,0.0,0.0,0.0,0.0,0.0,0.0,0.0,0.0,0.0,0.0,0.0,0.0,0.0,0.0,0.0,0.0,0.0,0.0,0.0,0.0,0.0,0.0,0.0,0.0,0.0,0.0,0.0,0.0,0.0,0.0,0.0,0.0,0.0,0.0,0.0,0.0,0.0,0.0,0.0,0.0,0.0,0.0,0.0,0.0,0.0,0.0,0.0,0.0,0.0,0.0,0.0,0.0,0.0,0.0,0.0,0.0,0.0,0.0,0.0,0.0,0.0,0.0,0.0,0.0,0.0,0.0,0.0,0.0,0.0,-2.5342,-2.5388,-2.4739,-2.4541,-2.5119,-2.4279,-2.3843,-2.4208,0.0,0.0,0.0,0.0,0.0,0.0,0.0,0.0,0.0,0.0,0.0,0.0,0.0,0.0,0.0,0.0,0.0,0.0,0.0,0.0,0.0,0.0,0.0,0.0,0.0,0.0,0.0,0.0,0.0,0.0,0.0,0.0,0.0,0.0,0.0,0.0,0.0,0.0,0.0,0.0,0.0,0.0,0.0,0.0,0.0,0.0,0.0,0.0,0.0,0.0,0.0,0.0,0.0,0.0,0.0,0.0,0.0,0.0,0.0,0.0,0.0,0.0,0.0,0.0,0.0,0.0,0.0,0.0,0.0,0.0,0.0,0.0,0.0,0.0,0.0,0.0,0.0,0.0,0.0,0.0,0.0,0.0,0.0,0.0,0.0,0.0,0.0,0.0,0.0,0.0,0.0,0.0,0.0,0.0,0.0,0.0,0.0,0.0,0.0,0.0,0.0,0.0,0.0,0.0,-2.5388,-2.5401,-2.4739,-2.4248,-2.413,-2.4973,-2.479,-2.3073,0.0,0.0,0.0,0.0,0.0,0.0,0.0,0.0,0.0,0.0,0.0,0.0,0.0,0.0,0.0,0.0,0.0,0.0,0.0,0.0,0.0,0.0,0.0,0.0,0.0,0.0,0.0,0.0,0.0,0.0,0.0,0.0,0.0,0.0,0.0,0.0,0.0,0.0,0.0,0.0,0.0,0.0,0.0,0.0,0.0,0.0,0.0,0.0,0.0,0.0,0.0,0.0,0.0,0.0,0.0,0.0,0.0,0.0,0.0,0.0,0.0,0.0,0.0,0.0,0.0,0.0,0.0,0.0,0.0,0.0,0.0,0.0,0.0,0.0,0.0,0.0,0.0,0.0,0.0,0.0,0.0,0.0,0.0,0.0,0.0,0.0,0.0,0.0,0.0,0.0,0.0,0.0,0.0,0.0,0.0,0.0,0.0,0.0,0.0,0.0,0.0,0.0,0.0,-2.4558,-2.4914,-2.5358,-2.4512,-2.4026,-2.431,-2.4827,-2.4589,-2.3276,-2.1835,0.0,0.0,0.0,0.0,0.0,0.0,0.0,0.0,0.0,0.0,0.0,0.0,0.0,0.0,0.0,0.0,0.0,0.0,0.0,0.0,0.0,0.0,0.0,0.0,0.0,0.0,0.0,0.0,0.0,0.0,0.0,0.0,0.0,0.0,0.0,0.0,0.0,0.0,0.0,0.0,0.0,0.0,0.0,0.0,0.0,0.0,0.0,0.0,0.0,0.0,0.0,0.0,0.0,0.0,0.0,0.0,0.0,0.0,0.0,0.0,0.0,0.0,0.0,0.0,0.0,0.0,0.0,0.0,0.0,0.0,0.0,0.0,0.0,0.0,0.0,0.0,0.0,0.0,0.0,0.0,0.0,0.0,0.0,0.0,0.0,0.0,0.0,0.0,0.0,0.0,0.0,0.0,0.0,0.0,0.0,0.0,0.0,0.0,0.0,0.0,0.0,0.0,-2.5101,-2.4693,-2.5429,-2.45,-2.4114,-2.482,-2.4654,-2.4231,-2.3548,-2.1654,0.0,0.0,0.0,0.0,0.0,0.0,0.0,0.0,0.0,0.0,0.0,0.0,0.0,0.0,0.0,0.0,0.0,0.0,0.0,0.0,0.0,0.0,0.0,0.0,0.0,0.0,0.0,0.0,0.0,0.0,0.0,0.0,0.0,0.0,0.0,0.0,0.0,0.0,0.0,0.0,0.0,0.0,0.0,0.0,0.0,0.0,0.0,0.0,0.0,0.0,0.0,0.0,0.0,0.0,0.0,0.0,0.0,0.0,0.0,0.0,0.0,0.0,0.0,0.0,0.0,0.0,0.0,0.0,0.0,0.0,0.0,0.0,0.0,0.0,0.0,0.0,0.0,0.0,0.0,0.0,0.0,0.0,0.0,0.0,0.0,0.0,0.0,0.0,0.0,0.0,0.0,0.0,0.0,0.0,0.0,0.0,0.0,0.0,0.0,0.0,0.0,0.0,-2.4945,-2.5224,-2.5714,-2.5029,-2.4754,-2.531,-2.4892,-2.4196,-2.3285,-2.1124,0.0,0.0,0.0,0.0,0.0,0.0,0.0,0.0,0.0,0.0,0.0,0.0,0.0,0.0,0.0,0.0,0.0,0.0,0.0,0.0,0.0,0.0,0.0,0.0,0.0,0.0,0.0,0.0,0.0,0.0,0.0,0.0,0.0,0.0,0.0,0.0,0.0,0.0,0.0,0.0,0.0,0.0,0.0,0.0,0.0,0.0,0.0,0.0,0.0,0.0,0.0,0.0,0.0,0.0,0.0,0.0,0.0,0.0,0.0,0.0,0.0,0.0,0.0,0.0,0.0,0.0,0.0,0.0,0.0,0.0,0.0,0.0,0.0,0.0,0.0,0.0,0.0,0.0,0.0,0.0,0.0,0.0,0.0,0.0,0.0,0.0,0.0,0.0,0.0,0.0,0.0,0.0,0.0,0.0,0.0,0.0,0.0,0.0,0.0,0.0,0.0,0.0,-2.4471,-2.4634,-2.536,-2.4888,-2.4628,-2.4814,-2.4422,-2.3648,-2.2401,0.0,0.0,0.0,0.0,0.0,0.0,0.0,0.0,0.0,0.0,0.0,0.0,0.0,0.0,0.0,0.0,0.0,0.0,0.0,0.0,0.0,0.0,0.0,0.0,0.0,0.0,0.0,0.0,0.0,0.0,0.0,0.0,0.0,0.0,0.0,0.0,0.0,0.0,0.0,0.0,0.0,0.0,0.0,0.0,0.0,0.0,0.0,0.0,0.0,0.0,0.0,0.0,0.0,0.0,0.0,0.0,0.0,0.0,0.0,0.0,0.0,0.0,0.0,0.0,0.0,0.0,0.0,0.0,0.0,0.0,0.0,0.0,0.0,0.0,0.0,0.0,0.0,0.0,0.0,0.0,0.0,0.0,0.0,0.0,0.0,0.0,0.0,0.0,0.0,0.0,0.0,0.0,0.0,0.0,0.0,0.0,0.0,0.0,0.0,0.0,0.0,0.0,-2.4093,-2.4295,-2.4514,-2.5225,-2.4812,-2.4486,-2.4494,-2.3935,-2.2972,-2.1575,0.0,0.0,0.0,0.0,0.0,0.0,0.0,0.0,0.0,0.0,0.0,0.0,0.0,0.0,0.0,0.0,0.0,0.0,0.0,0.0,0.0,0.0,0.0,0.0,0.0,0.0,0.0,0.0,0.0,0.0,0.0,0.0,0.0,0.0,0.0,0.0,0.0,0.0,0.0,0.0,0.0,0.0,0.0,0.0,0.0,0.0,0.0,0.0,0.0,0.0,0.0,0.0,0.0,0.0,0.0,0.0,0.0,0.0,0.0,0.0,0.0,0.0,0.0,0.0,0.0,0.0,0.0,0.0,0.0,0.0,0.0,0.0,0.0,0.0,0.0,0.0,0.0,0.0,0.0,0.0,0.0,0.0,0.0,0.0,0.0,0.0,0.0,0.0,0.0,0.0,0.0,0.0,0.0,0.0,0.0,0.0,0.0,0.0,0.0,0.0,0.0,0.0,-2.3726,-2.4547,-2.5117,-2.5459,-2.4808,-2.4404,-2.4482,-2.3507,-2.2281,0.0,0.0,0.0,0.0,0.0,0.0,0.0,0.0,0.0,0.0,0.0,0.0,0.0,0.0,0.0,0.0,0.0,0.0,0.0,0.0,0.0,0.0,0.0,0.0,0.0,0.0,0.0,0.0,0.0,0.0,0.0,0.0,0.0,0.0,0.0,0.0,0.0,0.0,0.0,0.0,0.0,0.0,0.0,0.0,0.0,0.0,0.0,0.0,0.0,0.0,0.0,0.0,0.0,0.0,0.0,0.0,0.0,0.0,0.0,0.0,0.0,0.0,0.0,0.0,0.0,0.0,0.0,0.0,0.0,0.0,0.0,0.0,0.0,0.0,0.0,0.0,0.0,0.0,0.0,0.0,0.0,0.0,0.0,0.0,0.0,0.0,0.0,0.0,0.0,0.0,0.0,0.0,0.0,0.0,0.0,0.0,0.0,0.0,0.0,0.0,0.0,0.0,0.0,-2.2655,-2.4077,-2.483,-2.4422,-2.375,-2.3355,-2.3381,-2.2177,-2.1031,-2.0154,0.0,0.0,0.0,0.0,0.0,0.0,0.0,0.0,0.0,0.0,0.0,0.0,0.0,0.0,0.0,0.0,0.0,0.0,0.0,0.0,0.0,0.0,0.0,0.0,0.0,0.0,0.0,0.0,0.0,0.0,0.0,0.0,0.0,0.0,0.0,0.0,0.0,0.0,0.0,0.0,0.0,0.0,0.0,0.0,0.0,0.0,0.0,0.0,0.0,0.0,0.0,0.0,0.0,0.0,0.0,0.0,0.0,0.0,0.0,0.0,0.0,0.0,0.0,0.0,0.0,0.0,0.0,0.0,0.0,0.0,0.0,0.0,0.0,0.0,0.0,0.0,0.0,0.0,0.0,0.0,0.0,0.0,0.0,0.0,0.0,0.0,0.0,0.0,0.0,0.0,0.0,0.0,0.0,0.0,0.0,0.0,0.0,0.0,0.0,0.0,0.0,0.0,-2.2619,-2.3805,-2.4278,-2.3575,-2.2888,-2.2281,-2.1703,-2.1117,-2.0176,-1.8819,0.0,0.0,0.0,0.0,0.0,0.0,0.0,0.0,0.0,0.0,0.0,0.0,0.0,0.0,0.0,0.0,0.0,0.0,0.0,0.0,0.0,0.0,0.0,0.0,0.0,0.0,0.0,0.0,0.0,0.0,0.0,0.0,0.0,0.0,0.0,0.0,0.0,0.0,0.0,0.0,0.0,0.0,0.0,0.0,0.0,0.0,0.0,0.0,0.0,0.0,0.0,0.0,0.0,0.0,0.0,0.0,0.0,0.0,0.0,0.0,0.0,0.0,0.0,0.0,0.0,0.0,0.0,0.0,0.0,0.0,0.0,0.0,0.0,0.0,0.0,0.0,0.0,0.0,0.0,0.0,0.0,0.0,0.0,0.0,0.0,0.0,0.0,0.0,0.0,0.0,0.0,0.0,0.0,0.0,0.0,0.0,0.0,0.0,0.0,0.0,0.0,0.0,-2.2988,-2.3593,-2.3604,-2.2864,-2.2129,-2.1165,-1.9878,-2.0215,-1.9545,-1.731,0.0,0.0,0.0,0.0,0.0,0.0,0.0,0.0,0.0,0.0,0.0,0.0,0.0,0.0,0.0,0.0,0.0,0.0,0.0,0.0,0.0,0.0,0.0,0.0,0.0,0.0,0.0,0.0,0.0,0.0,0.0,0.0,0.0,0.0,0.0,0.0,0.0,0.0,0.0,0.0,0.0,0.0,0.0,0.0,0.0,0.0,0.0,0.0,0.0,0.0,0.0,0.0,0.0,0.0,0.0,0.0,0.0,0.0,0.0,0.0,-2.0785,-2.0125,0.0,0.0,0.0,0.0,0.0,0.0,0.0,0.0,0.0,0.0,0.0,0.0,0.0,0.0,0.0,0.0,0.0,0.0,0.0,0.0,0.0,0.0,0.0,0.0,0.0,0.0,0.0,0.0,0.0,0.0,0.0,0.0,0.0,0.0,0.0,0.0,0.0,0.0,0.0,0.0,-2.1314,-2.2837,-2.3404,-2.2102,-2.0885,-2.0019,-1.9609,-1.9202,-1.861,-1.7775,-1.7563,0.0,0.0,0.0,0.0,0.0,0.0,0.0,0.0,0.0,0.0,0.0,0.0,0.0,0.0,0.0,0.0,0.0,0.0,0.0,0.0,0.0,0.0,0.0,0.0,0.0,0.0,0.0,0.0,0.0,0.0,0.0,0.0,0.0,0.0,0.0,0.0,0.0,0.0,0.0,0.0,0.0,0.0,0.0,0.0,0.0,0.0,0.0,0.0,0.0,0.0,0.0,0.0,0.0,0.0,0.0,0.0,0.0,0.0,0.0,-2.2513,-2.203,0.0,0.0,0.0,0.0,0.0,0.0,0.0,0.0,0.0,0.0,0.0,0.0,0.0,0.0,0.0,0.0,0.0,0.0,0.0,0.0,0.0,0.0,0.0,0.0,0.0,0.0,0.0,0.0,0.0,0.0,0.0,0.0,0.0,0.0,0.0,0.0,0.0,0.0,0.0,0.0,-2.1176,-2.2433,-2.2598,-2.0829,-1.9727,-1.8811,-1.8078,-1.8282,-1.8076,-1.7196,-1.755,0.0,0.0,0.0,0.0,0.0,0.0,0.0,0.0,0.0,0.0,0.0,0.0,0.0,0.0,0.0,0.0,0.0,0.0,0.0,0.0,0.0,0.0,0.0,0.0,0.0,0.0,0.0,0.0,0.0,0.0,0.0,0.0,0.0,0.0,0.0,0.0,0.0,0.0,0.0,0.0,0.0,0.0,0.0,0.0,0.0,0.0,0.0,0.0,0.0,0.0,0.0,0.0,0.0,-2.4293,-2.4706,-2.5317,-2.4576,-2.4522,-2.5014,-2.4396,-2.4285,-2.4457,-2.3899,0.0,0.0,0.0,0.0,0.0,0.0,0.0,0.0,0.0,0.0,0.0,0.0,0.0,0.0,0.0,0.0,0.0,0.0,0.0,0.0,0.0,0.0,0.0,0.0,-2.3457,-2.2973,-2.1147,0.0,0.0,0.0,0.0,0.0,0.0,0.0,0.0,0.0,0.0,0.0,-2.1598,-2.2228,-2.1838,-1.9863,-1.8952,-1.8009,-1.6808,-1.7566,-1.7615,-1.6482,-1.7384,-1.7213,0.0,0.0,0.0,0.0,0.0,0.0,0.0,0.0,0.0,0.0,0.0,0.0,0.0,0.0,0.0,0.0,0.0,0.0,0.0,0.0,0.0,0.0,0.0,0.0,0.0,0.0,0.0,0.0,0.0,0.0,0.0,0.0,-1.8295,-1.9094,0.0,0.0,0.0,0.0,0.0,0.0,0.0,0.0,0.0,0.0,0.0,0.0,0.0,-2.4694,-2.5111,-2.5835,-2.6031,-2.5719,-2.6295,-2.663,-2.6733,-2.6434,-2.6352,-2.6428,-2.6335,0.0,-2.4482,-2.4404,0.0,0.0,0.0,0.0,0.0,0.0,0.0,0.0,0.0,0.0,0.0,0.0,0.0,0.0,0.0,0.0,0.0,0.0,0.0,0.0,0.0,0.0,-2.3438,-2.3012,-2.3122,-2.3265,0.0,-2.2592,-2.2114,-2.1709,-2.1044,0.0,0.0,0.0,0.0,0.0,0.0,0.0,-2.1596,-2.2199,-2.2007,-2.0455,-1.916,-1.8292,-1.7984,-1.7319,-1.6924,-1.6906,-1.691,-1.6858,-1.6761,-1.6267,0.0,0.0,0.0,0.0,0.0,0.0,0.0,0.0,0.0,0.0,0.0,0.0,0.0,0.0,0.0,0.0,0.0,0.0,0.0,0.0,0.0,0.0,0.0,0.0,0.0,0.0,0.0,0.0,0.0,-1.7833,-1.9448,-1.9594,-2.0774,-2.1498,0.0,0.0,0.0,0.0,0.0,0.0,0.0,0.0,0.0,-2.4456,-2.4784,-2.4944,-2.4869,-2.5619,-2.5766,-2.5326,-2.566,-2.5807,-2.576,-2.5584,-2.5528,-2.5528,-2.548,-2.51,-2.4525,-2.4956,-2.5118,-2.5052,0.0,0.0,0.0,0.0,-2.3355,-2.2865,-2.2945,-2.2732,-2.232,-2.1642,0.0,0.0,0.0,0.0,0.0,0.0,0.0,0.0,0.0,0.0,-2.3986,-2.4252,-2.4434,-2.4545,-2.4563,-2.4341,-2.3869,0.0,-2.2671,-2.21,-2.0631,0.0,0.0,0.0,0.0,-2.1871,-2.1522,-2.2037,-2.1752,-1.9977,-1.9266,-1.8492,-1.7448,-1.7638,-1.7512,-1.6812,-1.7365,-1.7497,-1.7019,-1.6749,-1.6322,0.0,0.0,0.0,0.0,0.0,0.0,0.0,0.0,0.0,0.0,0.0,0.0,0.0,0.0,0.0,0.0,0.0,0.0,0.0,0.0,0.0,0.0,0.0,0.0,0.0,0.0,0.0,0.0,-1.9129,-2.0501,-2.07,-2.202,-2.2798,0.0,0.0,0.0,0.0,0.0,0.0,-2.4565,-2.4582,-2.4563,-2.4484,-2.5074,-2.516,-2.4696,-2.5342,-2.5397,-2.4842,-2.4901,-2.4856,-2.4746,-2.463,-2.4574,-2.4567,-2.4521,-2.4499,-2.4541,-2.5084,-2.5321,-2.5279,-2.4915,-2.4549,-2.4215,-2.4556,-2.4111,-2.3423,-2.4078,-2.3979,-2.3471,-2.2971,-2.2694,-2.2363,-2.1373,0.0,0.0,0.0,0.0,-2.3068,-2.3799,-2.404,-2.4274,-2.5021,-2.5179,-2.5179,-2.5179,-2.5226,-2.497,0.0,-2.4002,-2.357,-2.182,0.0,0.0,-2.119,-2.1946,-2.2332,-2.1711,-2.2019,-2.1604,-1.9749,-1.9395,-1.8725,-1.7327,-1.7894,-1.7897,-1.6888,-1.7637,-1.7848,-1.725,-1.7224,-1.6946,-1.633,0.0,0.0,0.0,0.0,0.0,0.0,0.0,0.0,0.0,0.0,0.0,0.0,0.0,0.0,0.0,0.0,0.0,0.0,0.0,0.0,0.0,0.0,0.0,0.0,0.0,0.0,0.0,0.0,0.0,-2.3326,-2.4296,0.0,0.0,0.0,0.0,-2.5182,-2.583,-2.6213,-2.6184,-2.6175,-2.6152,-2.6086,-2.6122,-2.6009,-2.5732,-2.5825,-2.5587,-2.5,-2.4991,-2.4855,-2.4613,-2.4545,-2.4515,-2.4506,-2.4499,-2.4499,-2.4499,-2.4541,-2.4558,-2.4618,-2.5287,-2.5304,-2.4983,-2.5324,-2.5165,-2.4756,-2.4408,-2.4287,-2.4228,-2.4217,-2.3771,-2.324,-2.3171,-2.3171,0.0,0.0,-2.371,-2.4217,-2.4269,-2.4269,-2.4305,-2.4356,-2.4364,-2.4364,-2.4364,-2.4462,-2.4602,0.0,-2.4333,-2.3768,-2.3254,0.0,-2.2459,-2.3055,-2.3202,-2.3002,-2.2343,-2.2289,-2.1773,-2.0404,-1.968,-1.9108,-1.8646,-1.7785,-1.7335,-1.7452,-1.7222,-1.7317,-1.7834,-1.7855,-1.7576,-1.6966,-1.6351,0.0,0.0,0.0,0.0,0.0,0.0,0.0,0.0,0.0,0.0,0.0,0.0,0.0,0.0,0.0,0.0,0.0,0.0,0.0,0.0,0.0,0.0,0.0,0.0,0.0,0.0,0.0,0.0,-2.4419,-2.5237,0.0,-2.5931,-2.5699,-2.5867,-2.6663,-2.692,-2.6812,-2.6263,-2.6236,-2.5756,-2.4692,-2.4655,-2.4554,-2.432,-2.439,-2.4197,-2.3776,-2.3649,-2.351,-2.3367,-2.3172,-2.308,-2.308,-2.308,-2.3342,-2.3797,-2.3797,-2.4355,-2.5228,-2.5507,-2.564,-2.5695,-2.5554,-2.5245,-2.4851,-2.4439,-2.431,-2.431,-2.431,-2.4148,-2.394,-2.394,-2.394,-2.394,-2.394,-2.4125,-2.431,-2.431,-2.431,-2.4194,-2.3763,-2.3663,-2.3663,-2.3663,-2.3684,-2.3867,-2.4407,-2.4387,-2.4071,-2.3411,-2.3463,-2.3525,-2.3325,-2.3671,-2.3548,-2.2451,-2.2305,-2.1789,-2.0443,-2.0088,-1.9512,-1.8475,-1.8418,-1.8074,-1.7234,-1.7353,-1.7585,-1.7895,-1.7821,-1.7706,-1.757,-1.6987,-1.6383,0.0,0.0,0.0,0.0,0.0,0.0,0.0,0.0,0.0,0.0,0.0,0.0,0.0,0.0,0.0,0.0,0.0,0.0,0.0,0.0,0.0,0.0,0.0,0.0,0.0,-2.3711,-2.5314,-2.5702,-2.6294,-2.6724,-2.6888,-2.6562,-2.6679,-2.7503,-2.7459,-2.7043,-2.6237,-2.5941,-2.5181,-2.3831,-2.3806,-2.3741,-2.3598,-2.3651,-2.352,-2.3233,-2.3105,-2.2914,-2.2699,-2.2515,-2.2386,-2.2296,-2.2296,-2.2589,-2.3029,-2.3029,-2.3756,-2.4915,-2.5406,-2.5489,-2.539,-2.5619,-2.5199,-2.4504,-2.4353,-2.431,-2.431,-2.431,-2.431,-2.431,-2.431,-2.431,-2.431,-2.431,-2.431,-2.431,-2.431,-2.414,-2.3856,-2.3402,-2.3125,-2.2955,-2.2955,-2.2955,-2.3155,-2.3833,-2.4225,-2.4261,-2.3717,-2.401,-2.4156,-2.3702,-2.4025,-2.3817,-2.2463,-2.2305,-2.1789,-2.0443,-2.0175,-1.9662,-1.8585,-1.8747,-1.8429,-1.7306,-1.7531,-1.774,-1.7821,-1.774,-1.776,-1.7902,-1.7305,-1.6702,-1.6093,0.0,0.0,0.0,0.0,0.0,0.0,0.0,0.0,0.0,0.0,0.0,0.0,0.0,0.0,0.0,0.0,0.0,0.0,0.0,0.0,0.0,0.0,0.0,-2.49,-2.5081,-2.5763,-2.7225,-2.7543,-2.7482,-2.713,-2.7624,-2.7881,-2.7682,-2.7482,-2.7007,-2.6213,-2.5425,-2.4628,-2.3833,-2.3806,-2.3806,-2.3806,-2.3806,-2.3709,-2.3515,-2.3495,-2.3226,-2.2712,-2.2699,-2.2547,-2.2296,-2.2296,-2.2305,-2.233,-2.233,-2.2775,-2.357,-2.4983,-2.4876,-2.4083,-2.5508,-2.5064,-2.3809,-2.4132,-2.4248,-2.4248,-2.4248,-2.4256,-2.4279,-2.4279,-2.4287,-2.431,-2.431,-2.431,-2.431,-2.4279,-2.3794,-2.3286,-2.3248,-2.2732,-2.2263,-2.2263,-2.2263,-2.2474,-2.3132,-2.3817,-2.4287,-2.431,-2.431,-2.431,-2.431,-2.4287,0.0,-2.2463,-2.227,-2.1766,-2.0426,-1.9922,-1.9519,-1.9113,-1.8726,-1.826,-1.7726,-1.7686,-1.7686,-1.7699,-1.7699,-1.776,-1.7902,-1.7305,-1.6715,-1.6127,0.0,0.0,0.0,0.0,0.0,0.0,0.0,0.0,0.0,0.0,0.0,0.0,0.0,0.0,0.0,0.0,0.0,0.0,0.0,0.0,0.0,-2.3429,-2.4844,-2.4893,-2.6513,-2.7627,-2.7422,-2.7987,-2.806,-2.7188,-2.7121,-2.7057,-2.6849,-2.6631,-2.6186,-2.5371,-2.5117,-2.4628,-2.3833,-2.3806,-2.3806,-2.3806,-2.3806,-2.3774,-2.3719,-2.3565,-2.3313,-2.2985,-2.2795,-2.2547,-2.2296,-2.2296,-2.2592,-2.3105,-2.3105,-2.352,-2.4186,-2.4052,-2.415,-2.4353,-2.4464,-2.3903,-2.3043,-2.2906,-2.2848,-2.2848,-2.2848,-2.3179,-2.3571,-2.3571,-2.3917,-2.431,-2.431,-2.431,-2.4194,-2.3702,-2.344,-2.3048,-2.2081,-2.1712,-2.1573,-2.1573,-2.1573,-2.1773,-2.2432,-2.3117,-2.3733,-2.4225,-2.431,-2.431,-2.431,-2.3894,0.0,-2.2401,-2.1881,-2.1133,-1.9995,-1.978,-1.9384,-1.8584,-1.8429,-1.8134,-1.7591,-1.7508,-1.7488,-1.755,-1.7543,-1.7659,-1.7902,-1.7305,-1.6919,0.0,0.0,0.0,0.0,0.0,0.0,0.0,0.0,0.0,0.0,0.0,0.0,0.0,0.0,0.0,0.0,0.0,0.0,0.0,0.0,0.0,0.0,-2.4267,-2.5687,-2.5442,-2.6962,-2.7919,-2.7387,-2.7486,-2.7343,-2.6699,-2.6459,-2.6264,-2.6081,-2.5923,-2.5573,-2.5027,-2.4683,-2.4275,-2.3804,-2.3806,-2.3806,-2.3806,-2.3806,-2.3806,-2.3795,-2.3676,-2.3499,-2.3265,-2.2985,-2.2729,-2.246,-2.2344,-2.2533,-2.2945,-2.2945,-2.319,0.0,0.0,0.0,0.0,0.0,-2.3282,-2.3,-2.2645,-2.2418,-2.2305,-2.2305,-2.2555,-2.2871,-2.2871,-2.3148,-2.3463,-2.3463,-2.3463,-2.3371,-2.2978,-2.2663,-2.2274,-2.1488,-2.1088,-2.0872,-2.0872,-2.0872,-2.1073,-2.175,-2.2205,0.0,-2.3717,-2.4117,-2.431,-2.431,-2.3733,-2.3055,-2.2397,-2.1675,-2.0875,-1.9965,-1.9548,-1.9098,-1.8565,-1.8167,0.0,0.0,0.0,-1.7432,-1.7502,-1.7543,0.0,0.0,0.0,0.0,0.0,0.0,0.0,0.0,-1.7855,-1.8181,0.0,0.0,0.0,0.0,0.0,0.0,0.0,0.0,0.0,0.0,0.0,0.0,0.0,0.0,0.0,0.0,-2.5052,-2.6805,-2.621,-2.6716,-2.7125,-2.7063,-2.6572,-2.6134,-2.5886,-2.5757,-2.5606,-2.5374,-2.5236,-2.5081,-2.4884,-2.4185,0.0,0.0,0.0,-2.3806,-2.3806,-2.3806,-2.3806,-2.3806,-2.3806,-2.3689,-2.3483,-2.3245,-2.2985,-2.2694,-2.2446,-2.2338,-2.2296,-2.2296,-2.2296,-2.2423,-2.3731,-2.3826,-2.3169,-2.2781,-2.2834,-2.3051,-2.2691,0.0,0.0,-2.2119,-2.2154,-2.2197,-2.2197,-2.2243,-2.2305,-2.2305,-2.2305,-2.227,-2.222,-2.175,-2.1273,-2.1203,-2.0726,-2.0304,-2.0304,-2.0304,-2.0489,-2.1065,-2.125,-2.1681,-2.2863,-2.3694,-2.4194,-2.4194,-2.3605,-2.292,-2.2255,-2.1433,-2.0649,-2.0021,0.0,0.0,-1.8649,-1.7935,-1.7454,-1.7377,-1.7384,-1.7405,-1.7502,-1.7618,-1.776,-1.7902,-1.7902,-1.7902,-1.7902,-1.9028,-1.9328,-1.8799,-1.8384,-1.8764,0.0,0.0,0.0,0.0,0.0,0.0,0.0,0.0,0.0,0.0,0.0,0.0,0.0,0.0,0.0,-2.3259,-2.5099,-2.6413,-2.6279,-2.6258,-2.6249,-2.6226,-2.6685,-2.645,-2.5083,-2.541,-2.5383,-2.4589,-2.441,-2.4243,-2.4041,-2.3877,-2.3806,-2.3806,-2.3806,-2.3806,-2.3806,-2.3806,-2.3806,-2.3806,0.0,0.0,-2.3504,-2.3449,-2.3166,-2.2707,-2.2654,-2.2501,-2.2296,-2.2296,-2.2296,-2.233,-2.2615,-2.2465,-2.2079,-2.1721,-2.1464,-2.129,-2.1206,-2.0967,-2.0732,-2.0994,-2.1264,-2.1488,-2.1488,-2.1874,0.0,-2.2305,-2.2305,-2.2182,-2.1635,-2.1396,-2.1157,-2.061,-2.0379,-2.0304,-2.0304,-2.0304,-2.0343,-2.0474,-2.0926,-2.1381,-2.1642,-2.2678,-2.3486,-2.3486,-2.2874,-2.216,-2.1418,-2.0395,-1.9546,-1.9094,-1.8568,-1.8074,-1.7706,-1.7515,-1.737,-1.7253,-1.7247,-1.733,-1.7496,-1.7523,-1.7652,-1.7902,-1.7902,-1.7902,-1.7902,-1.8622,-1.8907,-1.8827,-1.9625,-2.0125,0.0,0.0,0.0,0.0,0.0,0.0,0.0,0.0,0.0,0.0,0.0,-1.9713,-1.9742,0.0,-2.3173,-2.367,-2.5161,-2.6132,-2.5802,-2.5607,-2.5473,-2.5412,-2.5702,-2.5588,-2.4779,-2.5004,-2.4986,-2.4437,-2.4339,-2.4229,-2.4067,-2.3997,-2.3946,-2.3946,-2.3856,-2.3806,-2.3806,-2.3806,-2.3806,-2.3806,-2.3806,-2.3689,-2.3504,-2.3359,-2.3081,-2.2699,-2.256,-2.2419,-2.2296,-2.2296,-2.2296,-2.2296,-2.2296,-2.2194,-2.2034,-2.1863,-2.1471,-2.1047,-2.1047,-2.0712,-2.0321,-2.0509,-2.0666,-2.0795,-2.0795,-2.1026,-2.1296,-2.1296,-2.1296,-2.1219,-2.088,-2.0795,-2.0728,-2.0381,-2.0304,-2.0304,-2.0304,-2.0304,-2.0304,-2.0304,-2.0564,-2.0921,-2.1234,-2.1795,-2.2336,-2.274,-2.2141,-2.1443,-2.0858,-1.992,-1.9147,-1.8738,-1.8252,-1.7861,-1.7618,-1.7419,-1.7274,-1.7199,-1.7199,-1.7288,-1.744,-1.7488,-1.7591,-1.7801,-1.7862,-1.7902,-1.7902,-1.85,-1.8806,-1.8827,-1.9693,-2.024,0.0,0.0,0.0,0.0,0.0,0.0,0.0,-2.0399,-2.0195,-2.0195,-2.0081,-2.0161,-2.0759,-2.2253,-2.3458,-2.3619,-2.4991,-2.5837,-2.5299,-2.5102,-2.4917,-2.464,-2.4623,-2.4646,-2.4683,-2.4691,-2.4641,-2.4486,-2.4486,-2.4435,-2.4312,-2.42,-2.4123,-2.4094,-2.3937,-2.3846,-2.3806,-2.3806,-2.3806,-2.3806,-2.3806,-2.3719,-2.3542,-2.3292,-2.3035,-2.2756,-2.2432,-2.2296,-2.2296,-2.2296,-2.2296,-2.2296,-2.2296,-2.2296,-2.2296,-2.2231,-2.1819,-2.13,-2.13,-2.0893,-2.0399,-2.0399,-2.0356,-2.0304,-2.0304,-2.0304,-2.0304,-2.0304,-2.0304,-2.0304,-2.0304,-2.0304,-2.0304,-2.0304,-2.0304,-2.0304,-2.0304,-2.0304,-2.0304,-2.0304,-2.0304,-2.0464,-2.1003,-2.0998,-2.1166,-2.1948,-2.1487,-2.089,-2.0427,-1.9596,-1.8933,-1.8623,-1.8028,-1.7673,-1.7673,-1.7399,-1.7199,-1.7199,-1.7199,-1.7253,-1.7377,-1.744,-1.7536,-1.7652,-1.7801,-1.7862,-1.7862,-1.8384,-1.8622,-1.8629,-1.9247,-1.989,-1.9472,-1.9892,-2.0595,-2.146,-2.1747,-2.2197,0.0,-2.2899,-2.1936,-2.2003,-2.1438,-2.0756,-2.0151,-2.1505,-2.2719,-2.2746,-2.4243,-2.5374,-2.5302,-2.5165,-2.4799,-2.4009,-2.4421,-2.4725,-2.4614,-2.4675,-2.4615,-2.4434,-2.4469,-2.4435,-2.4312,-2.4284,-2.4219,-2.4103,-2.4084,-2.3977,-2.3806,-2.3806,-2.3806,-2.3806,-2.3806,-2.3785,-2.3753,-2.3553,-2.3313,-2.3035,-2.2525,-2.2296,-2.2296,-2.2296,-2.2296,-2.2296,-2.2296,-2.2296,-2.226,-2.1976,-2.1623,-2.13,-2.13,-2.1063,-2.0745,-2.0745,-2.0552,-2.0304,-2.0304,-2.0304,-2.0304,-2.0304,-2.0304,-2.0304,-2.0304,-2.0304,-2.0304,-2.0304,-2.0304,-2.0304,-2.0304,-2.0304,-2.0304,-2.0304,-2.0304,-2.0327,-2.0404,-2.03,-2.0444,-2.1124,-2.1064,-2.0673,-1.9967,-1.9116,-1.8558,-1.8526,-1.7754,-1.7275,-1.7275,-1.724,-1.7199,-1.7199,-1.7199,-1.7253,-1.7377,-1.7404,-1.7453,-1.7523,-1.7652,-1.7726,-1.7726,-1.7909,-1.7997,-1.8018,-1.8615,-1.9491,-2.0393,-2.1202,-2.1985,-2.2821,-2.3373,-2.3912,-2.4585,-2.3875,-2.3081,-2.3107,-2.2073,-2.1377,-2.2103,-2.2428,-2.2938,-2.4,-2.4812,-2.5298,-2.5298,-2.485,-2.4344,-2.3861,-2.4054,-2.4153,-2.3979,-2.4372,-2.4622,-2.4586,-2.4602,-2.4595,-2.4547,-2.4462,-2.4392,-2.433,-2.4181,-2.4055,-2.3986,-2.3856,-2.3806,-2.3806,-2.3806,-2.3741,-2.3622,-2.354,-2.3265,-2.285,-2.2474,-2.2296,-2.2296,-2.2296,-2.2296,-2.2296,-2.2296,-2.2296,-2.2274,-2.2143,-2.1886,-2.1593,-2.1593,-2.137,-2.1087,-2.1087,-2.086,-2.0595,-2.0595,-2.045,-2.0304,-2.0304,-2.0304,-2.0304,-2.0304,-2.0304,-2.0304,-2.0304,-2.0304,-2.0304,-2.0304,-2.0304,-2.0304,-2.0304,-2.0304,-2.0287,-2.0202,-2.0106,-2.0117,-2.0311,-2.0094,-1.9637,-1.8855,-1.8364,-1.7988,-1.7774,-1.742,-1.7199,-1.7199,-1.7199,-1.7199,-1.7199,-1.7199,-1.7226,-1.7274,-1.7356,-1.7418,-1.7447,-1.7543,-1.7577,-1.7577,-1.7713,-1.7781,-1.7787,-1.8119,-1.8724,-2.073,-2.1603,-2.2322,-2.2945,-2.3653,-2.4226,-2.4233,-2.363,-2.3071,-2.3071,-2.214,-2.1732,-2.2997,-2.3156,-2.349,-2.4787,-2.5003,-2.5002,-2.4994,-2.4291,-2.3711,-2.3542,-2.3691,-2.3757,-2.3626,-2.4243,-2.4668,-2.4693,-2.47,-2.47,-2.47,-2.4611,-2.4537,-2.4503,-2.4312,-2.4163,-2.4094,-2.3957,-2.3847,-2.3806,-2.3806,-2.3721,-2.3576,-2.3529,-2.3214,-2.2685,-2.2492,-2.2372,-2.2296,-2.2296,-2.2296,-2.2296,-2.2296,-2.2296,-2.2296,-2.2296,-2.2152,-2.1915,-2.1827,-2.1638,-2.1416,-2.1331,-2.1135,-2.095,-2.095,-2.0704,-2.0441,-2.0441,-2.0373,-2.0304,-2.0304,-2.0304,-2.0304,-2.0304,-2.0304,-2.0304,-2.0304,-2.0304,-2.0304,-2.0304,-2.0304,-2.0227,-1.9985,-1.9887,-1.9708,-1.9365,-1.902,-1.8691,-1.8351,-1.8008,-1.7652,-1.724,-1.7199,-1.7199,-1.7199,-1.7199,-1.7199,-1.7199,-1.7199,-1.7199,-1.7199,-1.7295,-1.7329,-1.7329,-1.7433,-1.7468,-1.7468,-1.7584,-1.7652,-1.7652,-1.7781,-1.8072,-2.0396,-2.0874,-2.1374,-2.1527,-2.2033,-2.2488,-2.2555,-2.1995,-2.1467,-2.1467,-2.1584,-2.1659,-2.159,-2.304,-2.4247,-2.4245,-2.4229,-2.4228,-2.4232,-2.3479,-2.2908,-2.284,-2.3399,-2.3823,-2.3874,-2.4442,-2.4774,-2.4698,-2.4703,-2.47,-2.47,-2.47,-2.4626,-2.4494,-2.4495,-2.4356,-2.4103,-2.4094,-2.3996,-2.3806,-2.3806,-2.3795,-2.3785,-2.3587,-2.3214,-2.2699,-2.2685,-2.2533,-2.2296,-2.2296,-2.2296,-2.2296,-2.2296,-2.2296,-2.2296,-2.2296,-2.2296,-2.2231,-2.1915,-2.1789,-2.1721,-2.1416,-2.1284,-2.1284,-2.1284,-2.1047,-2.0778,-2.0778,-2.0552,-2.0304,-2.0304,-2.0304,-2.0304,-2.0304,-2.0304,-2.0304,-2.0304,-2.0304,-2.0304,-2.0304,-2.0304,-2.0133,-1.9621,-1.9468,-1.9121,-1.82,-1.7928,-1.8127,-1.8962,-1.8331,-1.7652,-1.724,-1.7199,-1.7199,-1.7199,-1.7199,-1.7199,-1.7199,-1.7199,-1.7199,-1.7199,-1.7199,-1.7205,-1.7205,-1.7329,-1.7398,-1.7398,-1.7468,-1.7502,-1.7502,-1.7652,-1.7713,-2.024,-2.0971,-2.1702,-2.2278,-2.258,-2.2738,-2.2757,-2.2568,-2.2398,-2.2398,-2.2477,-2.2709,-2.3195,-2.384,-2.4472,-2.4979,-2.4583,-2.4201,-2.4199,-2.2953,-2.2244,-2.2798,-2.3028,-2.3338,-2.3852,-2.4406,-2.4746,-2.4757,-2.4726,-2.4681,-2.4638,-2.4676,-2.4686,-2.4623,-2.4555,-2.4409,-2.4229,-2.4133,-2.3996,-2.3806,-2.3806,-2.3806,-2.3795,-2.3587,-2.3301,-2.2956,-2.2782,-2.2547,-2.2296,-2.2296,-2.2296,-2.2296,-2.2296,-2.2296,-2.2296,-2.2296,-2.2296,-2.2274,-2.2166,-2.1991,-2.1774,-2.1676,-2.1331,-2.0974,-2.0974,-2.0729,-2.0467,-2.0467,-2.039,-2.0304,-2.0304,-2.0304,-2.0304,-2.0304,-2.0304,-2.0304,-2.0304,-2.0304,-2.0304,-2.0304,-2.0227,-2.0106,-1.9876,-1.9744,-1.9358,-1.8461,-1.7794,-1.7516,-1.7794,-1.7578,-1.7358,-1.722,-1.7199,-1.7199,-1.7199,-1.7199,-1.7199,-1.7199,-1.7199,-1.7199,-1.7199,-1.7199,-1.7199,-1.7199,-1.7247,-1.7281,-1.7281,-1.7385,-1.7426,-1.7432,-1.7522,-1.7577,-1.9346,-1.9895,-2.0444,-2.101,-2.1111,-2.1174,-2.1529,-2.1839,-2.2133,-2.2438,-2.3043,-2.3555,-2.3715,-2.4323,-2.4861,-2.5036,-2.4356,-2.3797,-2.3768,-2.2559,-2.1989,-2.2827,-2.3151,-2.3598,-2.4361,-2.4679,-2.4835,-2.4804,-2.4759,-2.4703,-2.4597,-2.4646,-2.4679,-2.4699,-2.4615,-2.4505,-2.4366,-2.4238,-2.4056,-2.3806,-2.3806,-2.3806,-2.3795,-2.3675,-2.3466,-2.3233,-2.3068,-2.2782,-2.2446,-2.2446,-2.2386,-2.2296,-2.2296,-2.2296,-2.2296,-2.2296,-2.2296,-2.2296,-2.2296,-2.2166,-2.1982,-2.1982,-2.1609,-2.1151,-2.1151,-2.0836,-2.0484,-2.0484,-2.0382,-2.0304,-2.0304,-2.0304,-2.0304,-2.0304,-2.0304,-2.0304,-2.0304,-2.0304,-2.0287,-2.0245,-2.0168,-2.002,-1.9762,-1.9493,-1.9091,-1.8364,-1.7774,-1.7358,-1.722,-1.7199,-1.7199,-1.7199,-1.7199,-1.7199,-1.7199,-1.7199,-1.7199,-1.7199,-1.7199,-1.7199,-1.7199,-1.7199,-1.7199,-1.7199,-1.7199,-1.7199,-1.7199,-1.7281,-1.7329,-1.7329,-1.7419,-1.7454,-1.7799,-1.7814,-1.7832,-1.7958,-1.7886,-1.8057,-1.9072,-1.9922,-2.0749,-2.1619,-2.3193,-2.4111,-2.3146,-2.4475,-2.5409,-2.4517,-2.3692,-2.314,-2.3082,-2.238,-2.217,-2.2972,-2.3744,-2.4519,-2.5323,-2.523,-2.5031,-2.4823,-2.4795,-2.474,-2.4614,-2.4597,-2.4632,-2.4691,-2.4701,-2.4641,-2.4503,-2.4366,-2.4134,-2.3825,-2.3806,-2.3806,-2.3806,-2.3795,-2.3676,-2.3492,-2.3492,-2.319,-2.2685,-2.2707,-2.2533,-2.2296,-2.2296,-2.2296,-2.2296,-2.2296,-2.2296,-2.2296,-2.2296,-2.2282,-2.226,-2.226,-2.2049,-2.1774,-2.1774,-2.1324,-2.0794,-2.0794,-2.0569,-2.0304,-2.0304,-2.0304,-2.0304,-2.0304,-2.0304,-2.0304,-2.0304,-2.0304,-2.0262,-2.0125,-2.0073,-1.9864,-1.9281,-1.8781,-1.8312,-1.7875,-1.7774,-1.7632,-1.7275,-1.722,-1.7199,-1.7199,-1.7199,-1.7199,-1.7199,-1.7199,-1.7199,-1.7199,-1.7199,-1.7199,-1.7199,-1.7199,-1.7199,-1.7199,-1.7199,-1.7199,-1.7199,-1.7199,-1.7199,-1.7199,-1.7329,-1.7384,-1.6716,-1.7241,-1.7805,-1.7842,-1.7826,-1.8046,-1.9012,-1.9892,-2.0746,-2.1619,-2.319,-2.4323,-2.4062,-2.4941,-2.5624,-2.5379,-2.4631,-2.4057,-2.4047,-2.3306,-2.307,-2.3873,-2.4151,-2.4568,-2.5331,-2.535,-2.524,-2.5037,-2.4842,-2.4708,-2.4676,-2.463,-2.4607,-2.4623,-2.4666,-2.4641,-2.4503,-2.4266,-2.4104,-2.4016,-2.3867,-2.3806,-2.3795,-2.3748,-2.3591,-2.3351,-2.3351,-2.3049,-2.256,-2.2659,-2.2533,-2.2296,-2.2296,-2.2296,-2.2296,-2.2296,-2.2296,-2.2296,-2.2296,-2.2137,-2.1938,-2.1938,-2.1706,-2.1432,-2.1432,-2.1127,-2.0794,-2.0794,-2.0569,-2.0304,-2.0304,-2.0304,-2.0304,-2.0304,-2.0304,-2.0304,-2.0304,-2.0304,-2.0262,-2.0125,-1.9732,-1.9361,-1.9161,-1.8481,-1.7935,-1.7814,-1.7537,-1.742,-1.7618,-1.7399,-1.7199,-1.7199,-1.7199,-1.7199,-1.7199,-1.7199,-1.7199,-1.7199,-1.7199,-1.7199,-1.7199,-1.7199,-1.7199,-1.7199,-1.7199,-1.7199,-1.7199,-1.7199,-1.7199,-1.7199,-1.7247,-1.7247,-1.5691,-1.6118,-1.6575,-1.6615,-1.6917,-1.7563,-1.8821,-2.0115,-2.1377,-2.2643,-2.4003,-2.485,-2.447,-2.5109,-2.5573,-2.5188,-2.4717,-2.4398,-2.4402,-2.3979,-2.3843,-2.4288,-2.4656,-2.5016,-2.5411,-2.5424,-2.5343,-2.5198,-2.4942,-2.476,-2.4698,-2.4606,-2.4566,-2.4607,-2.4641,-2.4607,-2.4503,-2.4357,-2.4229,-2.4094,-2.3986,-2.3886,-2.3795,-2.3725,-2.3627,-2.3517,0.0,-2.3271,-2.2931,-2.2893,-2.2716,-2.246,-2.2352,-2.2296,-2.2296,-2.2296,-2.2296,-2.2296,-2.2296,-2.218,-2.202,-2.202,-2.1789,-2.1524,-2.1524,-2.1285,-2.1023,-2.1023,-2.0885,-2.0696,-2.0561,-2.0518,-2.0484,-2.0331,-2.0304,-2.0304,-2.0304,-2.0245,-2.0168,-2.001,-1.9667,-1.9358,-1.9139,-1.8688,-1.8312,-1.8127,-1.7734,-1.7537,-1.7774,-1.7455,-1.7199,-1.7199,-1.7199,-1.7199,-1.7199,-1.7199,-1.7199,-1.7199,-1.7199,-1.7199,-1.7199,-1.7199,-1.7199,-1.7199,-1.7199,-1.7199,-1.7199,-1.7199,-1.7199,-1.7199,-1.7199,-1.7199,-1.4723,-1.4832,-1.4964,-1.491,-1.5692,-1.687,-1.8451,-2.0296,-2.214,-2.3781,-2.4946,-2.5438,-2.4688,-2.5184,-2.5449,-2.4697,-2.4572,-2.457,-2.4568,-2.4568,-2.4566,-2.4574,-2.5187,-2.5591,-2.5521,-2.5453,-2.539,-2.5317,-2.4965,-2.4751,-2.4747,-2.463,-2.4565,-2.4604,-2.4606,-2.4581,-2.4529,-2.4503,-2.4374,-2.4153,-2.4103,-2.3996,-2.3836,-2.3725,-2.3714,-2.3783,-2.3734,-2.3614,-2.3458,-2.3233,-2.2973,-2.2681,-2.2446,-2.2338,-2.2296,-2.2296,-2.2296,-2.2296,-2.2296,-2.2296,-2.2296,-2.2296,-2.21,-2.1871,-2.1871,-2.1623,-2.137,-2.137,-2.1331,-2.1221,-2.0942,-2.0868,-2.0786,-2.051,-2.0382,-2.0348,-2.0348,-2.0185,-2.0003,-1.9833,-1.97,-1.9501,-1.9157,-1.9064,-1.8886,-1.8468,-1.8048,-1.7774,-1.7734,-1.742,-1.7199,-1.7199,-1.7199,-1.7199,-1.7199,-1.7199,-1.7199,-1.7199,-1.7199,-1.7199,-1.7199,-1.7199,-1.7199,-1.7199,-1.7199,-1.7199,-1.7199,-1.7199,-1.7199,-1.7199,-1.7199,-1.7199,-1.3854,-1.4241,-1.4683,-1.4019,-1.5067,-1.6528,-1.7604,-1.9761,-2.1839,-2.292,-2.4419,-2.5489,-2.5343,-2.5516,-2.5649,-2.5499,-2.5469,-2.5468,-2.5469,-2.5468,-2.5474,-2.5474,-2.5595,-2.5661,-2.5593,-2.5521,-2.5447,-2.5394,-2.4522,-2.4302,-2.4986,-2.4899,-2.479,-2.4693,-2.4627,-2.4615,-2.4666,-2.4503,-2.4425,-2.4426,-2.4087,-2.3967,-2.4035,-2.37,-2.36,-2.3712,-2.3711,0.0,-2.3339,-2.3403,-2.3142,-2.2707,-2.2646,-2.2501,-2.2296,-2.2296,-2.2296,-2.2296,-2.2296,-2.2296,-2.2296,-2.2296,-2.2268,-2.2209,-2.2209,-2.1982,-2.1706,-2.1706,-2.1508,-2.1284,-2.1221,-2.1206,-2.1198,-2.1142,-2.082,-2.0554,-2.0554,-2.0187,-1.9833,-1.9805,-1.9472,-1.9187,-1.9101,-1.8822,-1.8449,-1.7995,-1.7855,-1.7673,-1.7358,-1.724,-1.7199,-1.7199,-1.7199,-1.7199,-1.7199,-1.7199,-1.7199,-1.7199,-1.7199,-1.7199,-1.7199,-1.7199,-1.7199,-1.7199,-1.7199,-1.7199,-1.7199,-1.7199,-1.7199,-1.7199,-1.7199,-1.7199,-1.4085,-1.4355,-1.4658,-1.427,-1.5536,-1.7105,-1.7964,-1.99,-2.1756,-2.2661,-2.3536,-2.4157,-2.4193,-2.4618,-2.4982,-2.5017,-2.5398,-2.5703,-2.5698,-2.5703,-2.5702,-2.5698,-2.5702,-2.5668,-2.5615,-2.5571,-2.551,-2.5408,-2.4544,-2.4135,-2.4412,-2.3903,-2.3548,-2.3444,-2.3855,-2.406,-2.4025,-2.4388,-2.4536,-2.4503,-2.4302,-2.4173,-2.4094,-2.3821,-2.3716,-2.3748,-2.3721,-2.3647,-2.3553,-2.3517,-2.3345,-2.3105,-2.296,-2.2829,-2.2708,-2.256,-2.2515,-2.2487,-2.2344,-2.2296,-2.2296,-2.2296,-2.2296,-2.2296,-2.2296,-2.2189,-2.2057,-2.2057,-2.1819,-2.1524,-2.1354,-2.1166,-2.0982,-2.0738,-2.0487,-2.0264,-2.0204,-1.9985,-1.9787,-1.9744,-1.9563,-1.9409,-1.9409,-1.9068,-1.8745,-1.8507,-1.8305,-1.8088,-1.7895,-1.7652,-1.7434,-1.722,-1.7199,-1.7199,-1.7199,-1.7199,-1.7199,-1.7199,-1.7199,-1.7199,-1.7199,-1.7199,-1.7199,-1.7199,-1.7199,-1.7199,-1.7199,-1.7199,-1.7199,-1.7199,-1.7199,-1.7199,-1.4489,-1.4543,-1.466,-1.4656,-1.6047,-1.7634,-1.8428,-2.0074,-2.1613,-2.2287,-2.266,-2.2878,-2.2937,-2.3691,-2.4321,-2.4388,-2.5134,-2.5704,-2.5698,-2.5698,-2.5703,-2.5703,-2.5698,-2.5684,-2.5628,-2.5605,-2.5547,-2.5429,-2.4478,-2.3808,-2.3593,-2.2854,-2.2422,-2.2366,-2.2966,-2.3258,-2.3174,-2.3831,-2.4205,-2.4293,-2.4234,-2.4198,-2.4181,-2.3997,-2.3886,-2.3856,-2.3759,-2.3748,-2.3785,-2.3622,-2.354,-2.3472,-2.3277,-2.3136,-2.3035,-2.285,-2.2729,-2.2627,-2.2446,-2.2338,-2.2282,-2.2282,-2.2282,-2.2296,-2.2296,-2.2296,-2.2296,-2.2296,-2.2115,-2.1857,-2.1577,-2.1245,-2.0836,-2.0275,-2.01,-2.001,-1.9815,-1.978,-1.9762,-1.9708,-1.97,-1.97,-1.97,-1.9435,-1.9169,-1.9,-1.8707,-1.8429,-1.8246,-1.7895,-1.7557,-1.724,-1.7199,-1.7199,-1.7199,-1.7199,-1.7199,-1.7199,-1.7199,-1.7199,-1.7199,-1.7199,-1.7199,-1.7199,-1.7199,-1.7199,-1.7199,-1.7199,-1.7199,-1.7199,-1.7199,-1.7199,-1.4482,-1.4365,-1.4526,-1.452,-1.5845,-1.7354,-1.8149,-1.979,-2.1161,-2.1246,-2.2038,-2.2742,-2.2807,-2.3634,-2.4321,-2.4388,-2.5126,-2.5702,-2.5697,-2.5702,-2.5704,-2.5703,-2.5702,-2.5699,-2.5686,-2.5641,-2.5571,-2.5498,-2.3906,-2.2917,-2.289,-2.2694,-2.2582,-2.2571,-2.2413,-2.2355,-2.2394,-2.2422,-2.2815,-2.3592,-2.3345,-2.3659,-2.4452,-2.4068,-2.3957,-2.4055,-2.3876,-2.3795,0.0,-2.3785,-2.3666,-2.3504,-2.3472,-2.3238,-2.2927,-2.3035,-2.2829,-2.2533,-2.2627,-2.246,-2.2205,-2.2205,-2.2248,-2.2296,-2.2296,-2.2296,-2.2296,-2.2296,-2.2282,-2.2245,-2.2217,-2.1869,-2.1322,-2.0475,-2.0271,-2.0176,-1.9782,-1.9708,-1.9708,-1.97,-1.97,-1.97,-1.97,-1.9672,-1.9402,-1.8662,-1.8526,-1.8206,-1.742,-1.7275,-1.724,-1.7199,-1.7199,-1.7199,-1.7199,-1.7199,-1.7199,-1.7199,-1.7199,-1.7199,-1.7199,-1.7199,-1.7199,-1.7199,-1.7199,-1.7199,-1.7199,-1.7199,-1.7199,-1.7199,-1.7199,-1.7199,-1.5295,-1.5542,-1.5873,-1.5349,-1.6553,-1.7978,-1.8338,-1.9438,-2.0395,-2.0434,-2.0813,-2.1301,-2.1857,-2.2783,-2.3639,-2.4187,-2.5082,-2.5703,-2.5696,-2.6149,-2.6289,-2.5764,-2.6159,-2.6279,-2.5748,-2.5684,-2.5208,-2.4142,-2.3308,-2.2396,-2.1353,-2.1238,-2.1177,-2.1096,-2.1457,-2.1632,-2.1585,-2.2024,-2.2431,-2.2774,-2.2667,-2.3027,-2.3771,-2.3529,-2.3665,-2.4084,-2.3896,-2.3806,0.0,-2.3806,-2.3753,-2.3676,-2.3676,-2.358,-2.3425,-2.3371,-2.3242,-2.3093,-2.2973,-2.2747,-2.2492,-2.2457,-2.2349,-2.2234,-2.2234,-2.2234,-2.2248,-2.2282,-2.2131,-2.194,-2.194,-2.157,-2.1031,-2.0497,-2.0303,-2.0131,-1.9782,-1.97,-1.97,-1.97,-1.97,-1.97,-1.97,-1.97,-1.9592,-1.9266,-1.9229,-1.9109,-1.8755,-1.8271,-1.7975,-1.7975,-1.7516,-1.7199,-1.7199,-1.7199,-1.7199,-1.7199,-1.7199,-1.7199,-1.7199,-1.7199,-1.7199,-1.7199,-1.7199,-1.7199,-1.7199,-1.7199,-1.7199,-1.7199,-1.7199,-1.7199,-1.6788,-1.6821,-1.6882,-1.6497,-1.7372,-1.8459,-1.9017,-1.9688,-2.0291,-2.0611,-2.0751,-2.0999,-2.1637,-2.2577,-2.3462,0.0,-2.5033,-2.5671,-2.5671,-2.6425,-2.6753,-2.6157,-2.6626,-2.6763,-2.6142,-2.5826,-2.4964,-2.3226,-2.2981,-2.2136,-2.0389,-2.0301,-2.0259,-2.0165,-2.0695,-2.0909,-2.0778,-2.1321,-2.1699,-2.1919,-2.1919,-2.2414,-2.335,-2.3222,-2.3519,-2.4152,-2.3967,-2.3847,0.0,-2.3806,-2.3794,-2.3762,-2.3785,-2.3732,-2.3644,-2.3573,-2.3472,-2.3345,-2.3166,-2.294,-2.2725,-2.2628,-2.2407,-2.218,-2.2217,-2.2189,-2.2152,-2.22,-2.2011,-2.1759,-2.1632,-2.134,-2.0966,-2.0605,-2.0453,-2.0302,-2.0083,-1.9935,-1.9846,-1.9846,-1.9772,-1.97,-1.97,-1.97,-1.9672,-1.9537,-1.9519,-1.9483,-1.9365,-1.8731,-1.8285,-1.8285,-1.7632,-1.7199,-1.7199,-1.7199,-1.7199,-1.7199,-1.7199,-1.7199,-1.7199,-1.7199,-1.7199,-1.7199,-1.7199,-1.7199,-1.7199,-1.7199,-1.7199,-1.7199,-1.7199,-1.7199,-1.9016,-1.7962,-1.7092,-1.7878,-1.8096,-1.8562,-2.028,-2.0786,-2.1149,-2.2077,-2.2379,-2.2502,-2.2568,-2.3405,-2.4109,-2.419,-2.4993,-2.56,-2.56,-2.6349,-2.6919,-2.6982,-2.6985,-2.6998,-2.6992,-2.6148,-2.4912,-2.3231,-2.2981,-2.2136,-2.0389,-2.0301,-2.0298,-2.0298,-2.0243,-2.0144,-2.0016,-1.9949,-2.0295,-2.1015,-2.1015,-2.1889,-2.3487,-2.336,-2.3658,-2.4294,-2.4162,-2.3977,0.0,-2.3806,-2.3761,-2.3711,-2.3773,-2.3598,-2.3336,-2.36,-2.3444,-2.3098,-2.3098,-2.2974,-2.2777,-2.2646,-2.2368,-2.2133,-2.2251,-2.2158,-2.2004,-2.2004,-2.2004,-2.1911,-2.1501,-2.1402,-2.1293,-2.0885,-2.0794,-2.0794,-2.0794,-2.0487,-2.0191,-2.0191,-1.9935,-1.97,-1.97,-1.97,-1.9556,-1.9176,-1.9101,-1.8962,-1.8565,-1.8088,-1.7814,-1.7814,-1.7434,-1.7199,-1.7199,-1.7199,-1.7199,-1.7199,-1.7199,-1.7199,-1.7199,-1.7199,-1.7199,-1.7199,-1.7199,-1.7199,-1.7199,-1.7199,-1.7199,-1.7199,-1.7199,-1.7199,-1.9247,-1.9204,-1.9103,-1.836,-1.9029,-2.007,-2.0804,-2.1009,-2.1129,-2.1478,-2.162,-2.1846,-2.2428,-2.339,-2.4473,-2.5591,-2.6137,0.0,-2.7295,-2.7605,-2.7583,-2.6995,-2.6453,-2.6108,-2.6112,-2.5842,-2.4954,-2.3229,-2.3057,-2.2263,-2.0463,-2.0321,-2.03,-2.0302,-2.0186,-2.0107,-2.0064,-1.9963,-1.999,-2.0183,-2.0183,-2.1065,-2.267,-2.2492,-2.3149,-2.4418,-2.42,-2.4006,-2.3856,-2.377,-2.3678,-2.3564,-2.3589,-2.3533,-2.345,-2.353,-2.3485,-2.3372,-2.3372,-2.3217,-2.2986,-2.2898,-2.2681,-2.244,-2.2443,-2.2195,-2.1926,-2.1926,-2.1926,-2.189,-2.1721,-2.1661,-2.1586,-2.123,-2.1135,-2.1071,-2.0844,-2.0479,-2.0191,-2.0191,-1.9935,-1.97,-1.97,-1.97,-1.9672,-1.9519,-1.9501,-1.9464,-1.9347,-1.8948,-1.8688,-1.8688,-1.8331,-1.7855,-1.7261,-1.7199,-1.7199,-1.7199,-1.7199,-1.7199,-1.7199,-1.7199,-1.7199,-1.7199,-1.7199,-1.7199,-1.7199,-1.7122,-1.7038,-1.7002,-1.7275,-1.7261,-1.988,-1.9907,-1.9823,-1.898,-1.9487,-2.0374,-2.0966,-2.1101,-2.1211,-2.1615,-2.1973,-2.2358,-2.2861,-2.3816,-2.4841,-2.585,-2.6202,-2.6663,-2.7551,-2.7687,-2.751,-2.6961,-2.6483,-2.6061,-2.5729,-2.5397,-2.4624,-2.3208,-2.2798,-2.1972,-2.0525,-2.0352,-2.0299,-2.0294,-2.0217,-2.0147,-2.0093,-1.999,-1.9904,-1.9843,-1.9795,-2.048,-2.1825,-2.202,-2.282,-2.4058,-2.4164,-2.4115,0.0,-2.3801,-2.3647,-2.3505,-2.3505,-2.3439,-2.3357,-2.3404,-2.3427,-2.3415,-2.3369,-2.3268,-2.316,-2.3074,-2.2872,-2.2646,-2.2542,-2.2251,-2.1955,-2.1876,-2.1855,-2.1855,-2.1804,-2.1804,-2.1723,-2.1371,-2.1301,-2.1206,-2.0876,-2.0479,-2.0191,-2.0191,-1.9935,-1.97,-1.97,-1.97,-1.97,-1.97,-1.97,-1.97,-1.97,-1.9354,-1.9101,-1.9101,-1.8745,-1.8285,-1.7734,-1.7537,-1.7358,-1.722,-1.7199,-1.7199,-1.7199,-1.7199,-1.7178,-1.7143,-1.7122,-1.7122,-1.7101,-1.7002,-1.6939,-1.6903,-1.7157,-1.7136,0.0,-2.012,-1.9521,-1.9647,-1.9588,-1.9775,-2.0846,-2.1086,0.0,-2.2221,-2.3038,-2.3613,-2.3619,-2.4488,-2.5221,-2.5284,-2.5518,-2.5967,-2.6776,-2.6894,-2.6876,-2.6817,-2.6874,-2.6568,-2.569,-2.488,-2.4008,-2.3082,-2.2262,-2.1417,-2.0549,-2.0376,-2.0311,-2.0311,-2.0304,-2.0242,-2.0106,-2.0036,-1.9971,-1.9904,-1.9763,-2.017,-2.1034,-2.1901,-2.2671,0.0,-2.409,-2.4302,0.0,-2.3887,-2.3694,-2.3505,-2.3494,-2.3324,-2.3119,-2.3241,-2.3289,-2.3265,-2.3135,-2.318,-2.3265,-2.3135,-2.2974,-2.2777,-2.2569,-2.2329,-2.209,-2.1884,-2.1819,-2.1819,-2.1804,-2.1804,-2.1715,-2.1418,-2.1348,-2.1246,-2.0942,-2.0571,-2.0277,-2.0243,-1.997,-1.9736,-1.97,-1.97,-1.97,-1.97,-1.97,-1.97,-1.97,-1.9373,-1.9139,-1.9139,-1.8815,-1.8558,-1.8546,-1.8108,-1.7693,-1.7317,-1.7296,-1.7296,-1.7296,-1.7275,-1.722,-1.7101,-1.7086,-1.7059,-1.6981,-1.7002,-1.7002,-1.696,-1.7002,-1.7002,-1.9941,0.0,-2.0194,-1.9676,-2.0015,-2.0571,0.0,-2.1019,-2.1101,-2.1365,-2.2111,-2.2738,-2.284,-2.4144,-2.5439,-2.6153,-2.6413,-2.6822,-2.7673,-2.7281,-2.6671,-2.6059,-2.5997,-2.566,-2.4791,-2.4519,-2.3782,-2.229,-2.1993,-2.1466,-2.0549,-2.0423,-2.0381,-2.0381,-2.033,-2.0236,-2.0106,-2.0078,-2.0026,-1.9904,-1.9875,-2.0257,-2.1034,-2.1901,-2.2722,-2.3489,-2.4182,0.0,-2.4229,-2.3978,-2.3728,-2.349,-2.3383,-2.3253,-2.3098,-2.3144,-2.3156,-2.3135,-2.3111,-2.3123,-2.3135,-2.3111,-2.3074,-2.2961,-2.2614,-2.2465,-2.2357,-2.2099,-2.2033,-2.199,-2.184,-2.1804,-2.1774,-2.17,-2.1685,-2.1654,-2.1586,-2.1293,-2.0966,-2.0712,-2.0344,-1.9997,-1.9736,-1.97,-1.97,-1.97,-1.97,-1.97,-1.97,-1.9617,-1.9556,-1.9556,-1.9475,-1.9291,-1.8981,-1.8584,-1.8305,-1.8206,-1.8187,-1.8187,-1.8187,-1.8088,-1.8028,-1.7988,-1.7935,-1.7855,-1.7734,-1.8048,-1.7995,-1.7598,-1.7955,-1.7935,-1.9669,-2.0162,-2.0622,-2.031,-2.0536,-2.0889,-2.1048,-2.0778,-2.0505,-2.058,-2.1581,-2.2467,-2.2537,-2.4031,-2.5407,-2.5878,-2.6114,-2.6411,-2.6888,-2.6921,-2.6603,-2.5796,-2.5697,-2.5362,-2.4477,-2.4043,-2.3273,-2.1997,-2.1529,-2.1077,-2.0567,-2.0481,-2.0449,-2.0449,-2.0352,-2.0269,-2.019,-2.0128,-2.0065,-1.9996,-1.99,-2.0083,-2.0521,-2.1325,-2.2142,-2.2942,-2.3674,0.0,-2.433,-2.4096,-2.3816,-2.3544,-2.3426,-2.3268,-2.3098,-2.3098,-2.3098,-2.3098,-2.3098,-2.3098,-2.3098,-2.3098,-2.3098,-2.3036,-2.2725,-2.2632,-2.2543,-2.2093,-2.1955,-2.1934,-2.1825,-2.1804,-2.1759,-2.1617,-2.1572,-2.1533,-2.1371,-2.119,-2.1023,-2.0844,-2.0629,-2.0419,-2.0239,-2.004,-1.9935,-1.9935,-1.98,-1.97,-1.97,-1.97,-1.97,-1.97,-1.97,-1.961,-1.9391,-1.915,-1.886,-1.8526,-1.8266,-1.8127,-1.8127,-1.7988,-1.8008,-1.8167,-1.8069,-1.7969,-1.7915,-1.8127,-1.8068,-1.7814,-1.8048,-1.8028,-1.9814,-2.0397,-2.0996,-2.0923,-2.0909,-2.0954,-2.1132,0.0,0.0,-2.0299,-2.158,-2.2684,-2.2711,-2.4113,-2.5259,-2.5234,-2.5422,-2.5578,-2.5608,-2.6254,-2.6459,-2.5777,-2.5579,-2.5157,-2.4288,-2.3408,-2.2567,-2.1757,-2.0886,-2.0398,-2.0398,-2.0338,-2.0305,-2.0321,-2.0325,-2.0317,-2.0317,-2.0188,-2.0121,-2.0101,-1.9934,-1.9872,-1.9939,-2.0678,-2.1451,-2.2262,0.0,0.0,-2.4393,-2.422,-2.3961,-2.3662,-2.3556,-2.3368,-2.316,-2.3119,-2.3098,-2.3098,-2.3098,-2.3098,-2.3098,-2.3098,-2.3098,-2.3061,-2.2859,-2.2803,-2.2668,-2.203,-2.1848,-2.184,-2.1804,-2.1804,-2.173,-2.1449,-2.1379,-2.1293,-2.1015,-2.095,-2.0942,-2.0893,-2.0876,-2.086,-2.0811,-2.0521,-2.0294,-2.0294,-2.0058,-1.9861,-1.9861,-1.9861,-1.9843,-1.9772,-1.9754,-1.9736,-1.9672,-1.9603,-1.9302,-1.8688,-1.8206,-1.7955,-1.7935,-1.7834,-1.7895,-1.8167,-1.8048,-1.7988,-1.7988,-1.7988,-1.7988,-1.7988,-1.7988,-1.7988,-2.0545,-2.1369,-2.1674,-2.033,-2.0492,-2.099,-2.1016,-2.0931,-2.1028,0.0,-2.2697,-2.348,-2.365,-2.4482,-2.5182,-2.5341,-2.5397,-2.5489,-2.5655,-2.5804,-2.5845,-2.5709,-2.5052,-2.4256,-2.3377,-2.2508,-2.1669,-2.0857,-1.9993,-1.9499,-1.9499,-1.9439,-1.9435,-1.9484,-2.0072,-2.0376,-2.0376,-2.0313,-2.0215,-2.0101,-2.0074,-2.0031,-2.0014,-2.0755,-2.1523,-2.2324,0.0,-2.3816,-2.4479,-2.4384,-2.422,-2.3991,-2.3694,-2.3524,-2.3403,-2.3175,-2.3098,-2.3098,-2.3098,-2.3098,-2.3098,-2.3098,-2.3098,-2.3061,-2.2859,-2.2803,-2.2703,-2.2189,-2.2053,-2.201,-2.184,-2.1804,-2.1789,-2.1744,-2.173,-2.1715,-2.1661,-2.1654,-2.1555,-2.1277,-2.1214,-2.1135,-2.0844,-2.0753,-2.0704,-2.0704,-2.067,-2.0637,-2.0637,-2.0637,-2.0486,-2.0083,-2.0038,-1.9879,-1.9487,-1.9439,-1.9376,-1.9258,-1.9183,-1.9101,-1.9064,-1.9019,-1.8981,-1.8924,-1.8905,-1.8905,-1.8905,-1.8905,-1.8905,-1.8905,-1.8905,-1.8905,-1.9588,-2.0662,-2.1491,-2.0787,-2.1568,-2.2514,-2.2511,-2.2152,-2.1793,-2.1727,-2.2395,-2.3029,-2.3128,-2.3921,-2.4768,-2.5398,-2.5509,-2.5537,-2.5627,-2.5683,-2.5533,-2.5046,-2.464,-2.3871,-2.2534,-2.204,-2.1452,-2.0615,-1.9766,-1.9295,-1.9303,-1.8818,-1.8784,-1.9284,-1.9591,-1.9984,-2.0445,-2.0346,-2.0271,-2.0205,-2.0125,-2.0083,-2.006,-2.0368,-2.0908,-2.1637,0.0,-2.3148,-2.3829,-2.427,-2.4312,-2.4088,-2.3931,-2.3712,-2.3492,-2.3357,-2.3319,-2.3333,-2.3443,-2.3477,-2.3454,-2.3345,-2.3286,-2.3199,-2.2846,-2.2725,-2.2624,-2.2301,-2.2164,-2.2053,-2.1855,-2.1804,-2.1804,-2.1804,-2.1804,-2.1804,-2.1804,-2.1804,-2.1759,-2.1594,-2.1572,-2.1518,-2.1371,-2.119,-2.1071,-2.1071,-2.0819,-2.0645,-2.0645,-2.0578,-2.045,-2.022,-2.021,-2.0115,-1.9894,-1.9815,-1.9545,-1.9,-1.8962,-1.8943,-1.886,-1.886,-1.8943,-1.9101,-1.9101,-1.9101,-1.9101,-1.9101,-1.9101,-1.9101,-1.9101,-1.9101,-1.8821,-1.987,-2.0988,-2.1464,-2.2397,-2.3272,-2.3471,-2.2838,-2.2154,-2.1911,-2.2363,-2.2868,-2.3068,-2.3813,-2.4639,-2.5433,-2.555,-2.5575,-2.562,-2.5494,-2.5153,-2.4481,-2.4043,-2.3272,-2.1933,-2.1616,-2.1223,-2.055,-1.9566,-1.9003,-1.9004,-1.8173,-1.8102,-1.8973,-1.9141,-1.9626,-2.049,-2.0381,-2.0325,-2.0296,-2.0202,-2.0148,-2.0142,-2.006,-2.0413,-2.1117,-2.1873,-2.2605,-2.3308,-2.4155,-2.4384,-2.4192,-2.4117,-2.3879,-2.3565,-2.3565,-2.3553,-2.3576,-2.3721,-2.3774,-2.3723,-2.3578,-2.3497,-2.3385,-2.3014,-2.2838,-2.2716,-2.2511,-2.2335,-2.2169,-2.1966,-2.1924,-2.1901,-2.1819,-2.1825,-2.1819,-2.17,-2.1744,-2.1789,-2.1753,-2.1753,-2.1753,-2.1753,-2.1495,-2.1301,-2.1301,-2.095,-2.067,-2.0604,-2.0503,-2.0375,-2.0202,-2.0185,-2.0133,-2.0035,-1.9925,-1.9541,-1.8765,-1.8777,-1.8796,-1.8731,-1.8815,-1.8955,-1.9187,-1.9269,-1.9262,-1.9187,-1.9262,-1.9306,-1.9306,-1.9306,-1.9306,-1.9351,-1.9847,-2.0314,-2.199,-2.1939,-2.1696,-2.2505,-2.2013,-2.179,-2.3224,-2.3622,-2.3945,-2.4757,-2.5081,-2.5262,-2.539,-2.5414,-2.5476,-2.5667,-2.4997,-2.4471,-2.4413,-2.2973,-2.194,-2.1805,-2.1073,-2.0566,-2.0499,-1.9007,-1.8095,-1.8086,-1.7275,-1.7194,-1.8066,-1.8874,-1.9683,-2.049,-2.0429,-2.0363,-2.0302,-2.029,-2.029,-2.0281,-2.0147,-2.0532,-2.1311,-2.1928,-2.2647,-2.344,-2.4197,-2.4491,-2.4447,-2.4201,-2.397,-2.3774,-2.3774,-2.3733,-2.3691,-2.3703,-2.3671,-2.3608,-2.3597,-2.3586,-2.3575,-2.3553,-2.3399,-2.3208,-2.301,-2.2756,-2.2511,-2.2316,-2.226,-2.2189,-2.1871,-2.1899,-2.1868,-2.1425,-2.1579,-2.1759,-2.1642,-2.1612,-2.1612,-2.1612,-2.1434,-2.1301,-2.1301,-2.127,-2.1143,-2.0893,-2.0869,-2.0589,-1.9912,-1.9849,-1.966,-1.9225,-1.9176,-1.9139,-1.9064,-1.931,-1.9424,-1.9431,-1.9726,-1.9769,-1.9468,-1.9787,-1.9787,-1.9468,-1.978,-1.9945,-1.9945,-1.9945,-1.9945,-1.5463,-1.7556,-1.989,-1.9492,-2.0822,-2.2441,-2.3232,-2.3146,-2.3096,-2.37,-2.3408,-2.3328,-2.4248,-2.4903,-2.5336,-2.5436,-2.5496,-2.5381,-2.4951,-2.4608,-2.4004,-2.2914,-2.2203,-2.1589,-2.1044,-2.0691,-2.0277,-1.9733,-1.9105,-1.8294,-1.7249,-1.7391,-1.7412,-1.7204,-1.8555,-1.9447,-1.9752,-2.0222,-2.0427,-2.0356,-2.0323,-2.0298,-2.0298,-2.0255,-2.0338,-2.0623,-2.1901,-2.2498,-2.2694,-2.4018,-2.4553,-2.4545,-2.4309,-2.4136,-2.3986,-2.3986,-2.3937,-2.3898,-2.4028,-2.4058,-2.4009,-2.3898,-2.3816,-2.3764,-2.3588,-2.3452,-2.3356,-2.3271,-2.3185,-2.2966,-2.2438,-2.2296,-2.226,-2.2143,-2.2157,-2.2135,-2.1961,-2.2049,-2.2083,-2.1776,-2.1753,-2.1708,-2.1465,-2.1348,-2.1301,-2.1301,-2.1222,-2.1143,-2.1039,-2.0917,-2.0729,-2.0453,-2.0412,-2.0351,-2.0172,-1.9997,-1.9917,-1.9917,-1.9486,-1.9262,-1.9262,-1.938,-1.938,-1.9262,-1.938,-1.938,-1.9262,-1.9262,-1.9262,-1.9262,-1.9262,-1.9347,-1.4727,-1.6227,-1.8214,-1.8629,-1.995,-2.1652,-2.3535,-2.3752,-2.3616,-2.3845,-2.3642,-2.3613,-2.4232,-2.4848,-2.5293,-2.5387,-2.5249,-2.4936,-2.4414,-2.3859,-2.3078,-2.1913,-2.1535,-2.113,-2.0557,-2.0498,-2.0247,-1.9662,-1.9115,-1.844,-1.7568,-1.7558,-1.7566,-1.7519,-1.8679,-1.9426,-1.9709,-2.0243,-2.0477,-2.0429,-2.0355,-2.0322,-2.0298,-2.0296,-2.0252,-2.024,-2.1597,-2.2057,-2.1969,-2.3609,-2.4427,-2.4653,-2.451,-2.438,-2.4257,-2.4257,-2.4181,-2.4086,-2.422,-2.4266,-2.4247,-2.4113,-2.4035,-2.3957,-2.3785,-2.363,-2.3533,-2.3533,-2.3468,-2.3277,-2.279,-2.2602,-2.2497,-2.231,-2.2321,-2.2316,-2.2172,-2.2265,-2.2271,-2.1936,-2.1905,-2.1838,-2.157,-2.1487,-2.1464,-2.1464,-2.1301,-2.1135,-2.1055,-2.0819,-2.0645,-2.0561,-2.0552,-2.0552,-2.0552,-2.0375,-2.0264,-2.0264,-1.9667,-1.9365,-1.9464,-1.9556,-1.9556,-1.9428,-1.9493,-1.9493,-1.9428,-1.935,-1.9332,-1.9332,-1.9332,-1.9442,-1.8252,-1.6316,-1.5011,-2.0001,-1.9392,-1.869,-2.3056,-2.3408,-2.302,-2.3753,-2.4591,-2.518,-2.5113,-2.5151,-2.5194,-2.5186,-2.4566,-2.4105,-2.4174,-2.2695,-2.1616,-2.168,-2.0915,-2.0427,-2.0485,-2.0498,-2.0489,-2.0479,-1.8937,-1.838,-1.9216,-1.7637,-1.7497,-1.9214,-1.9287,-1.9707,-2.0565,-2.0533,-2.05,-2.0498,-2.0431,-2.037,-2.0302,-2.0301,-2.0304,-2.0342,-2.101,-2.1303,-2.142,-2.2959,-2.4066,-2.4797,-2.4804,-2.4719,-2.4597,-2.4597,-2.4427,-2.4192,-2.4201,-2.42,-2.4208,-2.4199,-2.4199,-2.4199,-2.4199,-2.4016,-2.3806,-2.3806,-2.3619,-2.3412,-2.3403,-2.3259,-2.2956,-2.2344,-2.2359,-2.2374,-2.1922,-2.2086,-2.2251,-2.205,-2.2004,-2.2004,-2.2004,-2.189,-2.1804,-2.1804,-2.1526,-2.1214,-2.0942,-2.0621,-2.0315,-2.0051,-2.0023,-2.0023,-2.0023,-2.0023,-2.0023,-2.0023,-1.9882,-1.9962,-2.0287,-2.0551,-2.0509,-2.0108,-2.035,-2.0367,-2.0108,-2.0367,-2.0494,-2.0494,-2.0494,-2.0494,-1.2606,-1.3103,-1.3971,-1.1136,-1.2167,-1.5012,-1.938,-2.1994,-2.3586,-2.3845,-2.4589,-2.5189,-2.517,-2.4724,-2.436,-2.4366,-2.3703,-2.2993,-2.2446,-2.193,-2.1385,-2.079,-2.049,-2.0341,-2.0358,-2.0398,-1.9941,-1.8759,-1.8778,-1.8171,-1.6637,-1.7225,-1.7291,-1.658,-1.8337,-1.9131,-1.8768,-1.9966,-2.055,-2.0498,-2.048,-2.0437,-2.0369,-2.0321,-2.0299,-2.0342,-2.1112,-2.1353,-2.1356,-2.3,-2.4093,-2.4741,-2.4895,-2.483,-2.467,-2.467,-2.4624,-2.4537,-2.4391,-2.4338,-2.433,-2.4228,-2.4199,-2.4199,-2.4199,-2.4142,-2.4084,-2.4084,-2.4016,-2.3917,-2.3733,-2.3637,-2.3495,-2.3138,-2.3087,-2.3096,-2.296,-2.2934,-2.2829,-2.2484,-2.2308,-2.213,-2.1905,-2.1834,-2.1804,-2.1804,-2.1723,-2.1616,-2.1547,-2.1455,-2.1354,-2.1276,-2.1269,-2.1269,-2.1269,-2.1269,-2.1253,-2.1206,-2.115,-2.078,-1.998,-1.9985,-1.9932,-1.9826,-1.9897,-1.9897,-1.9826,-1.9757,-1.9732,-1.9732,-1.9732,-1.9947,-1.2463,-1.2102,-1.2191,-0.8756,-0.8845,-1.1336,-1.7347,-2.1402,-2.3902,-2.3967,-2.4101,-2.4222,-2.4242,-2.3831,-2.3482,-2.3482,-2.2761,-2.2048,-2.1617,-2.1217,-2.0802,-2.0347,-2.0305,-2.0315,-2.034,-2.0062,-1.9478,-1.8486,-1.8265,-1.7661,-1.6489,-1.7104,-1.7158,-1.6462,-1.83,-1.9049,-1.8515,-1.9902,-2.0572,-2.0497,-2.0503,-2.0479,-2.0445,-2.0368,-2.0331,-2.0326,-2.0779,-2.1287,-2.1871,-2.2897,-2.3928,-2.4911,-2.5025,-2.4958,-2.4787,-2.4787,-2.4747,-2.4682,-2.456,-2.4518,-2.4493,-2.433,-2.4266,-2.4247,-2.4238,-2.4238,-2.4257,-2.4339,-2.4375,-2.4357,-2.4201,-2.4155,-2.4022,-2.3526,-2.3403,-2.3403,-2.3403,-2.3347,-2.3215,-2.296,-2.2814,-2.2652,-2.2364,-2.2318,-2.2276,-2.2172,-2.205,-2.192,-2.1811,-2.1804,-2.1804,-2.1804,-2.1804,-2.1804,-2.1804,-2.1783,-2.1738,-2.1701,-2.1625,-2.1245,-2.0465,-2.0396,-2.0362,-2.0336,-2.0336,-2.0336,-2.0336,-2.021,-2.0151,-2.0151,-2.0151,-2.0356,-1.5505,-1.2391,-0.9982,-0.9992,-0.789,-0.7808,-1.5505,-2.0336,-2.3356,-2.3952,-2.3343,-2.2724,-2.2772,-2.2671,-2.258,-2.2571,-2.1778,-2.1207,-2.1326,-2.0575,-2.0065,-2.0248,-2.0283,-2.0311,-2.0384,-1.9601,-1.9081,-1.9062,-1.7526,-1.694,-1.7723,-1.701,-1.698,-1.7847,-1.8727,-1.9223,-1.9297,-2.0163,-2.0557,-2.0509,-2.0496,-2.0505,-2.05,-2.0429,-2.0363,-2.0294,-2.0246,-2.1122,-2.2594,-2.2671,-2.3644,-2.5107,-2.5157,-2.5085,-2.4935,-2.4935,-2.4863,-2.4751,-2.4727,-2.4721,-2.4682,-2.4475,-2.4363,-2.431,-2.4302,-2.4311,-2.4354,-2.4529,-2.4629,-2.4675,-2.4675,-2.4675,-2.4466,-2.3681,-2.3484,-2.3493,-2.3468,-2.3457,-2.3426,-2.3426,-2.3403,-2.335,-2.3163,-2.3123,-2.3045,-2.279,-2.25,-2.2214,-2.1963,-2.1943,-2.1943,-2.1943,-2.1943,-2.1928,-2.1899,-2.1863,-2.1827,-2.1797,-2.1646,-2.1554,-2.1554,-2.1455,-2.1363,-2.13,-2.13,-2.13,-2.13,-2.13,-2.13,-2.13,-2.13,-2.1323,-1.2569,-1.0413,-0.8523,-0.3057,-0.3362,-0.5399,-0.6747,-1.2269,-1.8377,-2.2931,-2.3237,-2.2695,-2.2651,-2.2114,-2.1651,-2.1539,-2.0777,-2.0194,-2.0168,-2.007,-2.0021,-2.0055,-2.0161,-2.023,-2.0236,-1.9502,-1.8737,-1.8067,-1.714,-1.6407,-1.5976,-1.5781,-1.608,-1.6952,-1.7831,-1.8611,-1.9287,-2.0108,-2.054,0.0,-2.0529,-2.0499,-2.0503,-2.0427,-2.036,-2.03,-2.0283,-2.0874,-2.1885,-2.2403,-2.3274,-2.432,-2.4902,-2.5158,-2.5209,-2.5209,-2.5202,-2.5143,-2.499,-2.4866,-2.4746,-2.4603,-2.4477,-2.4381,-2.4381,-2.4381,-2.4389,-2.4424,-2.445,-2.4458,-2.4458,-2.4458,-2.4424,-2.4238,-2.4174,-2.4136,-2.3979,-2.3836,-2.3692,-2.3649,-2.3504,-2.3394,-2.3336,-2.3283,-2.3241,-2.318,-2.3114,-2.3035,-2.2985,-2.2973,-2.2973,-2.2973,-2.2973,-2.2884,-2.2686,-2.2833,-2.2833,-2.2575,-2.2717,-2.2781,-2.2738,-2.1826,-2.13,-2.13,-2.13,-2.13,-2.13,-2.13,-2.13,-2.13,-2.13,-2.1447,-1.3722,-1.1074,-0.8074,-0.0881,-0.0156,-0.1769,-0.3884,-0.8131,-1.2611,-1.6166,-1.9331,-2.145,-2.1445,-2.1077,-2.0752,-2.0679,-2.0205,-1.986,-1.9893,-1.9871,-1.9877,-1.9945,-2.0011,-2.0084,-2.0149,-1.9046,-1.8167,-1.7779,-1.6646,-1.5788,-1.537,-1.5349,-1.5585,-1.6056,-1.6891,-1.7761,-1.8669,-1.9506,-2.0137,-2.0545,-2.0524,-2.0503,-2.0501,-2.0426,-2.0402,-2.039,-2.036,-2.0817,-2.1626,-2.1984,-2.2641,-2.3458,-2.3848,-2.4276,-2.4678,-2.4678,-2.4942,-2.5292,-2.5178,-2.5061,-2.4926,-2.4792,-2.4666,-2.4593,-2.4587,-2.464,-2.4702,-2.4762,-2.4813,-2.4824,-2.4824,-2.4824,-2.4799,-2.4672,-2.4524,-2.4373,-2.4275,-2.4155,-2.4059,-2.396,-2.3849,-2.3712,-2.3535,-2.3392,-2.3301,-2.3301,-2.3301,-2.3301,-2.3301,-2.3301,-2.3301,-2.3301,-2.3301,-2.3232,-2.3098,-2.3193,-2.318,-2.2999,-2.3081,-2.3142,-2.31,-2.2498,-2.2161,-2.2161,-2.2093,-2.2068,-2.2068,-2.1996,-2.1961,-2.1976,-2.2039,-2.2161,-1.5212,-1.1083,-0.6502,-0.0445,0.1866,0.1574,-0.2563,-0.5192,-0.704,-0.799,-1.4003,-1.8891,-1.8252,-1.8076,-1.8024,-1.7994,-1.7835,-1.7985,-1.8799,-1.8792,-1.9001,-1.9803,-1.9919,-1.9976,-2.0093,-1.8589,-1.7658,-1.7773,-1.6234,-1.5288,-1.5299,-1.5305,-1.5395,-1.56,-1.6248,-1.7053,-1.7967,-1.8698,-1.9405,-2.0068,-2.0224,-2.0366,-2.05,-2.0437,-2.0448,-2.0501,-2.0439,-2.0792,-2.1423,-2.1542,-2.1982,-2.2612,-2.2732,-2.3303,-2.4027,-2.4018,-2.4576,-2.5331,-2.5322,-2.5228,-2.5099,-2.4984,-2.491,-2.4848,-2.4849,-2.4933,-2.5038,-2.515,-2.5218,-2.5273,-2.5273,-2.5273,-2.5207,-2.4984,-2.4715,-2.4498,-2.4425,-2.4399,-2.4364,-2.4266,-2.4229,-2.4116,-2.3746,-2.3567,-2.347,-2.3444,-2.3458,-2.347,-2.347,-2.347,-2.347,-2.347,-2.347,-2.3449,-2.3403,-2.3392,-2.3368,-2.3313,-2.3307,-2.3309,-2.3309,-2.3298,-2.3298,-2.3298,-2.3022,-2.2885,-2.2868,-2.2742,-2.2699,-2.2699,-2.285,-2.2918,-1.2103,-0.5532,-0.0179,0.1319,0.2107,0.2447,0.2179,-0.0555,-0.3073,-0.33,-0.9551,-1.393,-1.0433,-0.9751,-0.9657,-0.954,-0.9405,-1.0537,-1.4054,-1.4617,-1.597,-1.9477,-1.9996,-2.0079,-2.0103,-1.8644,-1.7689,-1.7707,-1.6155,-1.5241,-1.5295,-1.5299,-1.5652,-1.6423,-1.6543,-1.702,-1.7902,-1.8029,-1.8172,-1.8337,-1.9101,-1.983,-2.0502,-2.0491,-2.0493,-2.0504,-2.0487,-2.0549,-2.0692,-2.1269,-2.1607,-2.1817,-2.2457,-2.3312,-2.4174,-2.4113,-2.4683,-2.5456,-2.5414,-2.5303,-2.5176,-2.5175,-2.5111,-2.5061,-2.5064,-2.5066,-2.509,-2.5111,-2.5117,-2.5132,-2.5132,-2.5132,-2.5117,-2.5082,-2.5043,-2.4893,-2.4488,-2.44,-2.4381,-2.4375,-2.4376,-2.4303,-2.4075,-2.4105,-2.4134,-2.4015,-2.4095,-2.4172,-2.4172,-2.4172,-2.4172,-2.4172,-2.4172,-2.4077,-2.3842,-2.402,-2.4049,-2.3823,-2.4019,-2.4135,-2.4135,-2.4078,-2.4058,-2.4058,-2.3286,-2.2846,-2.2725,-2.2712,-2.2699,-2.2699,-2.2891,-2.2989,-1.1455,-0.7398,-0.3948,0.0667,0.2159,0.2615,0.3042,0.0324,-0.1699,0.0409,-0.3737,-0.7863,-0.8245,-0.8225,-0.8109,-0.7985,-0.7882,-0.8426,-1.0198,-1.0397,-1.1054,-1.2899,-1.513,-1.6545,-1.6625,-1.762,-1.8097,-1.7724,-1.6534,-1.5654,-1.5256,-1.5237,-1.5422,-1.5796,-1.5852,-1.6291,-1.7157,-1.7167,-1.7431,-1.7946,-1.8873,-1.9492,-1.9843,-2.0331,-2.0541,-2.0498,-2.0504,-2.0504,-2.0518,-2.0815,-2.0955,-2.102,-2.1342,-2.2038,-2.2911,-2.3327,-2.4051,-2.4887,-2.5315,-2.5368,-2.5264,-2.5264,-2.5238,-2.5213,-2.5213,-2.526,-2.5321,-2.5322,-2.5318,-2.5318,-2.5318,-2.5297,-2.5259,-2.5223,-2.5213,-2.5128,-2.4849,-2.4788,-2.4752,-2.4598,-2.4444,-2.4321,-2.4238,-2.4257,-2.4284,-2.4219,-2.4266,-2.4303,-2.4303,-2.4303,-2.4303,-2.4303,-2.4303,-2.4248,-2.4135,-2.4229,-2.4248,-2.4135,-2.4229,-2.4284,-2.4257,-2.422,-2.4163,-2.4096,-2.371,-2.3488,-2.3422,-2.3344,-2.3321,-2.3321,-2.3477,-2.3604,-1.1134,-0.9046,-0.6767,-0.0052,0.1962,0.2416,0.2806,0.089,-0.0155,0.2722,0.0961,-0.1949,-0.4817,-0.5176,-0.4954,-0.4714,-0.4596,-0.4938,-0.6081,-0.6119,-0.6486,-0.7752,-1.0509,-1.2331,-1.2398,-1.4401,-1.5497,-1.4997,-1.4132,-1.3751,-1.4021,-1.4029,-1.4384,-1.5179,-1.5248,-1.5594,-1.6261,-1.6294,-1.6735,-1.7603,-1.8297,-1.8761,-1.9003,-1.9869,-2.0244,-2.0214,-2.0426,-2.0533,-2.0521,-2.0511,-2.0497,-2.0497,-2.0501,-2.1028,-2.1867,-2.2466,-2.3392,-2.4413,-2.4995,-2.5269,-2.5381,-2.5379,-2.5378,-2.5378,-2.5383,-2.5449,-2.5528,-2.5533,-2.553,-2.553,-2.553,-2.5493,-2.5435,-2.5388,-2.5385,-2.5326,-2.5157,-2.5134,-2.5065,-2.4873,-2.4664,-2.4514,-2.4479,-2.4518,-2.4512,-2.4454,-2.4474,-2.4503,-2.4477,-2.4477,-2.4477,-2.4477,-2.4477,-2.4486,-2.4503,-2.4494,-2.4502,-2.45,-2.4502,-2.4486,-2.4433,-2.4407,-2.4338,-2.4183,-2.4211,-2.4135,-2.3946,-2.3846,-2.3806,-2.3797,-2.3999,-2.4126,-1.0375,-0.7233,-0.3823,0.0154,0.1493,0.1916,0.226,0.2544,0.2789,0.2971,0.3206,0.3295,0.303,0.3349,0.3824,0.4333,0.452,0.3119,-0.1143,-0.1721,-0.3334,-0.766,-0.8366,-0.8439,-0.8323,-0.7822,-0.7495,-0.7462,-0.6764,-0.7665,-1.0683,-1.084,-1.218,-1.5107,-1.52,-1.526,-1.5367,-1.5429,-1.5901,-1.6759,-1.6809,-1.7268,-1.8098,-1.8966,-1.9367,-1.9407,-2.0244,-2.0585,-2.0594,-2.0534,-2.0497,-2.0495,-2.0497,-2.1029,-2.1813,-2.1848,-2.2936,-2.4394,-2.4366,-2.49,-2.5584,-2.5582,-2.5582,-2.5579,-2.5578,-2.5588,-2.559,-2.5588,-2.5586,-2.5586,-2.5586,-2.5593,-2.5591,-2.5588,-2.5578,-2.5514,-2.5245,-2.5195,-2.5192,-2.5185,-2.516,-2.5114,-2.499,-2.5072,-2.5093,-2.4895,-2.498,-2.5044,-2.4974,-2.4958,-2.4958,-2.4958,-2.4958,-2.499,-2.5051,-2.506,-2.506,-2.5064,-2.5056,-2.506,-2.5051,-2.4993,-2.4872,-2.4666,-2.4785,-2.4511,-2.3806,-2.3806,-2.3806,-2.3806,-2.4127,-2.4291,-1.3054,-1.1582,-0.9546,-0.3031,-0.1339,-0.0558,0.2245,0.3078,0.3249,0.3206,0.3428,0.3764,0.4166,0.427,0.4427,0.4842,0.4949,0.4418,0.2803,0.2656,0.1964,-0.0057,-0.2552,-0.4122,-0.4203,-0.6342,-0.7519,-0.7001,-0.6723,-0.687,-0.7548,-0.7623,-0.9041,-1.209,-1.2265,-1.3272,-1.5282,-1.3357,-1.3528,-1.5783,-1.4361,-1.4914,-1.7204,-1.8074,-1.8469,-1.8508,-1.9392,-2.0076,-2.0603,-2.0566,-2.0556,-2.0556,-2.0555,-2.075,-2.1102,-2.166,-2.2263,-2.2947,-2.4004,-2.4573,-2.4911,-2.5434,-2.5601,-2.5599,-2.5598,-2.5627,-2.5658,-2.5606,-2.5595,-2.5605,-2.5603,-2.5595,-2.5605,-2.5596,-2.5598,-2.5571,-2.5478,-2.5391,-2.5329,-2.5331,-2.5263,-2.5179,-2.5142,-2.5176,-2.5177,-2.5101,-2.5134,-2.5163,-2.5134,-2.5085,-2.5059,-2.5059,-2.5031,-2.5016,-2.5028,-2.5038,-2.5044,-2.5037,-2.5035,-2.5035,-2.5035,-2.5006,-2.495,-2.483,-2.4879,-2.4723,-2.4381,-2.4466,-2.4508,-2.4508,-2.4596,-2.4672,-1.4843,-1.4071,-1.2915,-0.6897,-0.4049,-0.2146,0.0123,0.2017,0.3272,0.3219,0.3549,0.3957,0.4365,0.4443,0.4581,0.4905,0.5014,0.4975,0.4823,0.4925,0.4794,0.4236,0.1855,0.023,0.0211,-0.2392,-0.3816,-0.3226,-0.338,0.0,-0.4358,-0.4499,-0.5938,-0.8965,-1.0144,-1.1207,-1.2197,-1.1211,-1.1217,-1.224,-1.1778,-1.2679,-1.4777,-1.5612,-1.6067,-1.6209,-1.6019,-1.755,-2.0177,-2.0455,-2.0572,-2.0567,-2.0591,-2.0593,-2.0643,-2.124,-2.1631,-2.207,-2.3483,-2.4155,-2.4535,-2.5364,-2.4453,-2.334,-2.5105,-2.4443,-2.3442,-2.5146,-2.5625,-2.563,-2.5629,-2.5626,-2.5631,-2.5627,-2.5634,-2.5632,-2.5627,-2.5554,-2.547,-2.5498,-2.5432,-2.5366,-2.5373,-2.5376,-2.5356,-2.5336,-2.5334,-2.5335,-2.5298,-2.5255,-2.5225,-2.5225,-2.5192,-2.518,-2.52,-2.52,-2.5196,-2.5201,-2.5201,-2.5205,-2.5199,-2.5179,-2.5126,-2.5036,-2.5078,-2.5015,-2.4864,-2.487,-2.4868,-2.4868,-2.4865,-2.4951,0.0,0.0,0.0,-1.1111,-0.6546,-0.2872,-0.4076,-0.0588,0.2955,0.2992,0.3703,0.4236,0.4126,0.4472,0.49,0.5212,0.538,0.532,0.4867,0.4925,0.4836,0.436,0.4318,0.4427,0.4757,0.4368,0.4189,0.4365,0.3775,0.2052,-0.1106,-0.1544,-0.3042,-0.5978,-0.9054,-0.92,-0.6138,-0.8986,-0.9008,-0.6239,-0.9079,-1.0555,-1.0786,-1.1512,-1.2076,-1.2387,-1.0204,-1.2944,-1.9033,-1.9961,-2.0412,-2.051,-2.0566,-2.0486,-2.035,-2.0425,-2.0934,-2.1708,-2.2458,-2.3336,-2.4256,-2.5002,-2.1811,-1.8623,-2.3704,-2.1795,-1.8958,-2.4041,-2.5581,-2.5661,-2.5511,-2.5581,-2.5621,-2.5323,-2.5359,-2.5469,-2.5469,-2.5419,-2.5438,-2.5662,-2.5703,-2.5705,-2.5699,-2.5697,-2.5678,-2.5608,-2.56,-2.5582,-2.551,-2.5497,-2.5504,-2.5504,-2.5504,-2.5526,-2.5589,-2.5601,-2.5597,-2.5596,-2.56,-2.5599,-2.5599,-2.5526,-2.5444,-2.5304,-2.5427,-2.5399,-2.5207,-2.4937,-2.4825,-2.4816,-2.495,-2.5121,-1.7738,0.0,0.0,0.0,0.0,0.0,-0.458,-0.2151,-0.0161,0.2632,0.3592,0.3977,0.4087,0.4358,0.4548,0.4443,0.4823,0.512,0.5036,0.5055,0.4923,0.4554,0.4511,0.4489,0.4449,0.432,0.4146,0.0,0.3765,0.315,0.1914,-0.0361,-0.2032,-0.292,-0.5843,-0.7055,-0.6322,-0.4857,-0.4864,-0.6328,-0.4884,-0.5349,-0.7516,-0.7805,-0.7968,-0.8004,-0.8053,-0.9124,-1.1138,-1.5107,-1.8223,-2.0496,-2.0517,-1.895,-1.6668,-1.6693,-1.6827,-1.6711,-1.4469,-1.5538,-1.7508,-1.5224,-1.3508,-1.2594,-1.4053,-1.6087,-1.8201,-1.9651,-2.2779,-2.4831,-2.1043,-2.2856,-2.3798,-1.6283,-1.7339,-2.006,-2.006,-2.0041,-2.1146,-2.496,-2.5699,-2.57,-2.5701,-2.5697,-2.5692,-2.568,-2.5673,-2.5668,-2.5645,-2.5601,-2.5573,-2.5573,-2.5529,-2.5514,-2.5526,-2.5526,-2.553,-2.5525,-2.5528,-2.5531,-2.5533,-2.5506,-2.5478,-2.5452,-2.5435,-2.5404,-2.5337,-2.5269,-2.5235,-2.5235,-2.5264,-2.5317,-1.9077,-1.9052,-1.8831,-1.7284,0.0,0.0,-0.7298,-0.4267,-0.1483,0.2102,0.3342,0.3842,0.3944,0.4168,0.4239,0.3974,0.4396,0.4779,0.4846,0.493,0.4908,0.4709,0.4733,0.4755,0.4714,0.4535,0.4377,0.4244,0.3896,0.3457,0.2965,0.1185,0.019,0.0172,-0.274,-0.3727,-0.253,-0.1935,-0.1949,-0.2555,-0.1977,-0.2641,-0.4363,-0.4416,-0.4501,-0.4568,-0.3808,-0.4422,-0.6202,-0.913,-1.2411,-1.5575,-1.5521,-1.4345,-1.2672,-1.2481,-1.2523,-1.242,-1.0451,-1.1162,-1.2651,-1.0867,-0.8843,-0.7519,-0.9713,-1.0937,-1.2065,-1.4234,-1.7002,-1.8622,-1.5558,-1.6996,-1.7721,-1.1707,-1.2586,-1.4774,-1.4774,-1.4818,-1.701,-2.4293,-2.57,-2.57,-2.57,-2.57,-2.57,-2.57,-2.57,-2.57,-2.57,-2.5665,-2.5639,-2.5639,-2.5607,-2.4823,-2.2949,-2.4511,-2.4001,-2.0266,-2.1775,-2.1959,-2.0109,-2.0028,-2.0028,-2.0035,-2.1808,-2.3641,-2.5473,-2.5433,-2.5399,-2.5399,-2.543,-2.5439,-1.9698,-1.9126,-1.8952,-2.0341,-1.7119,0.0,-1.1321,-0.6997,-0.2408,0.0925,0.2696,0.3677,0.3706,0.388,0.392,0.3689,0.3987,0.4312,0.4429,0.467,0.4825,0.4847,0.4944,0.5086,0.5259,0.4898,0.4727,0.4923,0.4025,0.327,0.2798,0.2752,0.2748,0.2749,0.0144,0.0071,0.2831,0.0156,0.0143,0.276,0.0071,-0.1237,-0.1284,-0.1237,-0.1438,-0.1661,0.1125,0.0322,-0.297,-0.2763,-0.5058,-0.8683,-0.8549,-0.8507,-0.8488,-0.8071,-0.818,-0.8475,-0.8034,-0.8213,-0.8646,-0.8698,-0.5599,-0.2724,-0.7374,-0.5884,-0.3711,-0.9007,-1.046,-1.0282,-0.9715,-0.9894,-0.9976,-0.8945,-0.9144,-0.9559,-0.9559,-0.9652,-1.2571,-2.2156,-2.4016,-2.4021,-2.4021,-2.4012,-2.4198,-2.478,-2.485,-2.5042,-2.5631,-2.5261,-2.4929,-2.487,-2.4477,-2.2581,-1.8511,-2.189,-2.0836,-1.2891,-1.6094,-1.6501,-1.2553,-1.2319,-1.2317,-1.2398,-1.6738,-2.0941,-2.4869,-2.5246,-2.5207,-2.4814,-2.4874,-2.4681,-1.9864,-1.9582,-1.9422,-1.9884,-1.9601,0.0,-1.4358,-1.1002,-0.7452,-0.3046,0.0469,0.2816,0.3039,0.3282,0.342,0.3317,0.3367,0.3596,0.4101,0.4628,0.4998,0.5101,0.5105,0.51,0.5146,0.5015,0.4806,0.4539,0.3793,0.3291,0.3189,0.3028,0.2798,0.2495,0.2263,0.2276,0.2575,0.2136,0.2185,0.2712,0.2118,0.1861,0.1896,0.1861,0.1828,0.1817,0.2376,0.2184,0.1475,0.1718,-0.2335,-0.8683,-0.8549,-0.6811,-0.4365,-0.4261,-0.4295,-0.3858,-0.0253,-0.0894,-0.272,0.0778,0.2922,0.3924,0.2902,0.0712,-0.261,-0.8278,-1.0217,-0.9596,-0.5374,-0.7386,-0.8425,-0.007,-0.1251,-0.4286,-0.4286,-0.4312,-0.615,-1.235,-1.3547,-1.3552,-1.3552,-1.3464,-1.4813,-1.9027,-1.953,-2.094,-2.5163,-2.2545,-2.0138,-1.9705,-1.6862,-1.4439,-1.3076,-1.421,-1.4251,-1.2514,-1.321,-1.3276,-1.2357,-1.1847,-1.1826,-1.2307,-1.6718,-1.9423,-2.0295,-2.3836,-2.4042,-2.1129,-2.1146,-1.9563,-1.9797,-1.9726,-1.9771,-2.0066,-2.0232,0.0,0.0,-1.3497,-1.1143,-0.7449,-0.3303,-0.0382,-0.051,0.1339,0.2871,0.2803,0.3178,0.3465,0.3509,0.4106,0.4685,0.5061,0.5127,0.5144,0.5144,0.5123,0.4904,0.4441,0.3838,0.3436,0.3259,0.3093,0.2914,0.2698,0.2998,0.306,0.286,0.2843,0.2825,0.2792,0.2727,0.2814,0.2996,0.2797,0.2814,0.2996,0.278,0.2698,0.2715,0.2924,0.0841,-0.2465,-0.247,-0.1521,-0.0137,0.0098,0.0039,0.022,0.2834,0.2786,0.193,0.4318,0.5506,0.5991,0.5991,0.4389,0.1956,-0.0878,-0.1887,-0.1527,0.1111,-0.0316,-0.1129,0.4026,0.3043,0.0951,0.0951,0.0878,0.0071,-0.2563,-0.3062,-0.4667,-0.9727,-1.0541,-1.1382,-1.4025,-1.4323,-1.5211,-1.7822,-1.6197,-1.4713,-1.4435,-1.2669,-1.048,-0.7973,-1.0061,-0.9605,-0.514,-0.694,-0.7162,-0.4906,-0.4535,-0.5546,-0.8057,-1.0417,-1.2848,-1.5358,-1.7652,-1.9073,-1.9607,-1.7758,-1.5918,-1.9734,-1.976,-1.9942,-2.0278,-2.0187,-1.9355,0.0,0.0,0.0,-1.1554,-0.7474,-0.4247,-0.4012,-0.149,0.0933,0.2152,0.2434,0.2605,0.2922,0.3535,0.417,0.4859,0.5096,0.5222,0.5222,0.5215,0.5028,0.4583,0.4116,0.3714,0.3454,0.3285,0.3157,0.3059,0.3229,0.3278,0.3175,0.2988,0.2885,0.29,0.2777,0.2895,0.3192,0.2913,0.2961,0.3239,0.2893,0.2746,0.2758,0.2932,0.327,0.3688,0.369,0.3478,0.321,0.3595,0.3439,0.3142,0.3858,0.4444,0.496,0.5296,0.5827,0.6399,0.6507,0.6453,0.6401,0.6514,0.6463,0.6354,0.6354,0.6132,0.5855,0.5755,0.5344,0.4989,0.4989,0.4903,0.4816,0.4816,0.4816,0.216,-0.625,-0.7667,-0.7988,-0.9003,-0.9127,-0.9419,-1.0306,-0.9785,-0.9244,-0.9017,-0.8412,-0.6552,-0.284,-0.5916,-0.4957,0.2246,-0.0645,-0.1032,0.2552,0.2708,0.1086,-0.2389,-0.3594,-0.6189,-1.0251,-1.0645,-1.293,-1.6841,-1.3843,-1.2093,-1.9908,-1.9801,-1.9754,-1.9848,-2.0289,-2.045,-1.953,0.0,-1.5291,-1.4449,0.0,-0.7416,-0.438,0.0,0.0,0.1178,-0.0082,-0.0614,0.2788,0.3293,0.3662,0.4619,0.5058,0.5293,0.5293,0.5241,0.5182,0.5111,0.4622,0.4299,0.4256,0.4019,0.3692,0.3273,0.3566,0.3526,0.3109,0.2913,0.2843,0.29,0.2828,0.2929,0.3194,0.3161,0.3255,0.345,0.305,0.2869,0.2898,0.3217,0.3319,0.3321,0.377,0.4022,0.414,0.4208,0.3926,0.3598,0.4232,0.4636,0.4985,0.5554,0.6307,0.7082,0.7571,0.7383,0.7001,0.7028,0.6647,0.6236,0.6236,0.6182,0.6152,0.6127,0.6073,0.6018,0.6018,0.6018,0.6018,0.6018,0.6018,0.5315,0.317,0.289,0.1393,-0.3246,-0.3792,-0.5164,-0.927,-0.6854,-0.4332,-0.3276,-0.055,0.162,0.2651,0.1778,0.1629,0.2646,0.2241,0.2182,0.2679,0.2708,0.2706,0.2751,-0.1824,-0.4481,-0.5052,-0.6378,-0.7589,-0.864,-0.8227,-0.6264,-1.9885,-1.9836,-1.9898,-2.0237,-2.0268,-2.0235,-2.0313,-1.9162,-1.8128,-1.8297,0.0,0.0,0.0,0.0,0.0,0.0,-0.169,0.0181,-0.0436,0.1824,0.3799,0.4504,0.0,0.0,0.5162,0.5171,0.5149,0.5149,0.4728,0.4429,0.4395,0.4216,0.4003,0.3769,0.3855,0.3822,0.3616,0.334,0.322,0.3249,0.322,0.3307,0.349,0.3403,0.3469,0.3602,0.3237,0.3072,0.3078,0.3233,0.3463,0.3749,0.4089,0.418,0.4159,0.4385,0.436,0.424,0.4647,0.5146,0.573,0.6575,0.7176,0.7601,0.7821,0.7738,0.7571,0.7571,0.7381,0.719,0.719,0.6947,0.6726,0.6726,0.6453,0.6209,0.6209,0.6209,0.6209,0.6209,0.6209,0.6046,0.5582,0.5529,0.4818,0.2627,0.2374,0.1729,-0.0221,0.0917,0.2101,0.2616,0.3584,0.4312,0.4563,0.4067,0.3737,0.3737,0.3737,0.3737,0.3737,0.3629,0.3687,0.3938,0.1642,0.027,-0.0074,-0.1135,-0.1981,-0.2665,-0.3294,-0.2761,-1.9877,-1.9881,-2.0025,-2.0392,-2.0144,-1.9923,-2.0384,-2.0116,-1.9932,-2.0508,-1.8278,0.0,0.0,0.0,-0.8453,-0.9064,0.0,-0.2164,-0.2992,-0.0162,0.2542,0.4018,0.0,0.0,0.0,0.5162,0.5157,0.5153,0.4859,0.4655,0.4652,0.4446,0.4306,0.423,0.4168,0.4083,0.3971,0.3684,0.3519,0.3497,0.3467,0.3536,0.3705,0.3602,0.3635,0.377,0.3422,0.3288,0.3288,0.3323,0.3571,0.3963,0.4317,0.4308,0.4153,0.4551,0.4618,0.4554,0.4877,0.557,0.6447,0.7322,0.7731,0.7901,0.7901,0.7901,0.7875,0.7818,0.7845,0.7872,0.7818,0.7547,0.733,0.733,0.6972,0.6672,0.6672,0.6615,0.6564,0.6564,0.6564,0.6564,0.6564,0.6372,0.6209,0.6209,0.6209,0.6263,0.6426,0.629,0.6263,0.6426,0.5909,0.5553,0.5553,0.5199,0.4901,0.4736,0.4519,0.441,0.441,0.4245,0.4136,0.4136,0.391,0.3545,0.3047,0.2266,0.1539,0.0784,-0.0224,-0.0729,0.0,0.0,0.0,-1.9941,0.0,0.0,0.0,-1.9804,-1.9744,-1.9899,-1.9881,-1.8834,-1.553,-1.6898,-1.6497,-1.03,-1.1374,0.0,0.0,-0.2611,-0.1094,0.2961,0.4117,0.4795,0.0,0.5299,0.5294,0.0,0.5149,0.5124,0.5254,0.4894,0.4656,0.4589,0.4519,0.4306,0.3914,0.3701,0.3565,0.3497,0.3375,0.3442,0.3705,0.3688,0.38,0.3977,0.3628,0.3497,0.3497,0.3635,0.3623,0.3596,0.4319,0.4516,0.4444,0.4838,0.4707,0.4381,0.4836,0.5783,0.6865,0.7429,0.7731,0.7901,0.7901,0.7901,0.7845,0.7574,0.7711,0.7845,0.7574,0.7681,0.7875,0.7875,0.7848,0.7845,0.7845,0.7655,0.7464,0.7464,0.7464,0.7464,0.7464,0.6753,0.6209,0.6209,0.6209,0.6399,0.7001,0.6564,0.6426,0.7001,0.6537,0.6182,0.6182,0.6152,0.5907,0.5306,0.4601,0.4221,0.4221,0.4079,0.3995,0.3995,0.3881,0.3659,0.3385,0.2575,0.1818,0.1062,0.0196,-0.028,0.0,0.0,-1.9992,-1.9971,0.0,0.0,0.0,0.0,0.0,0.0,-1.9921,-1.961,-1.854,-1.7223,-1.6355,-1.6545,-1.3213,-0.9778,0.0,-0.2747,0.1148,0.304,0.3943,0.4559,0.492,0.0,0.5419,0.5179,0.5214,0.0,0.5305,0.5052,0.4875,0.4806,0.46,0.4382,0.4108,0.3901,0.3736,0.3635,0.3681,0.37,0.3705,0.3833,0.3866,0.38,0.3686,0.3635,0.3635,0.3688,0.367,0.3693,0.4251,0.444,0.4471,0.4995,0.5108,0.5019,0.5345,0.5856,0.6394,0.6707,0.708,0.7503,0.7903,0.7966,0.7955,0.8156,0.8079,0.7875,0.7791,0.7711,0.7631,0.7631,0.7494,0.7383,0.7383,0.73,0.7249,0.7249,0.7383,0.7437,0.7276,0.7139,0.7109,0.7297,0.7163,0.7139,0.733,0.719,0.7136,0.7357,0.7028,0.6701,0.648,0.5696,0.5122,0.4904,0.466,0.4524,0.4524,0.419,0.3884,0.3608,0.3245,0.3023,0.2942,0.2267,0.1762,0.1425,0.0728,0.0112,-1.9529,-1.933,0.0,-1.9178,-1.9154,0.0,-1.9482,0.0,-1.9433,0.0,0.0,0.0,-1.7822,0.0,-1.7328,-1.8777,-1.5701,-1.2175,0.0,-0.3684,0.1015,0.301,0.3747,0.4217,0.456,0.5043,0.5261,0.5056,0.5119,0.5161,0.0,0.5031,0.4921,0.4788,0.4647,0.4439,0.4169,0.4017,0.3856,0.3695,0.3766,0.3747,0.367,0.3817,0.3817,0.3705,0.3705,0.3705,0.3705,0.3705,0.3705,0.374,0.4113,0.425,0.4326,0.4971,0.5203,0.5224,0.5482,0.5742,0.6005,0.6223,0.6638,0.7141,0.7529,0.7626,0.7652,0.7854,0.778,0.7601,0.7491,0.741,0.7357,0.7357,0.7219,0.7112,0.7112,0.7031,0.695,0.695,0.7085,0.7163,0.6977,0.7192,0.741,0.7601,0.7467,0.7357,0.7357,0.7437,0.7464,0.7357,0.73,0.7109,0.6807,0.5832,0.5179,0.5018,0.4851,0.4603,0.4245,0.3993,0.3633,0.3163,0.2858,0.2634,0.2521,0.2128,0.1763,0.14,0.1037,0.0477]},{"header":{"parameterUnit":"m.s-1","parameterCategory":1,"la1":30.6,"la2":29.2853,"lo1":-89.7004,"lo2":-87.6739,"dy":0.0162,"dx":0.0183,"nx":112,"ny":82,"refTime":"2024-07-14T00:00:00:Z","depth":0,"parameterNumber":3,"parameterNumberName":"V-component_of_WINDS"},"data":[0.0,0.0,0.0,0.0,0.0,0.0,0.0,0.0,0.0,0.0,0.0,0.0,0.0,0.0,0.0,0.0,0.0,0.0,0.0,0.0,0.0,0.0,0.0,0.0,0.0,0.0,0.0,0.0,0.0,0.0,0.0,0.0,0.0,0.0,0.0,0.0,0.0,0.0,0.0,0.0,0.0,0.0,0.0,0.0,0.0,0.0,0.0,0.0,0.0,0.0,0.0,0.0,0.0,0.0,0.0,0.0,0.0,0.0,0.0,0.0,0.0,0.0,0.0,0.0,0.0,0.0,0.0,0.0,0.0,0.0,0.0,0.0,0.0,0.0,0.0,0.0,0.0,0.0,0.0,0.0,0.0,0.0,0.0,0.0,0.0,0.0,0.0,0.0,0.0,0.0,-1.2532,-1.2417,-1.2032,-1.197,-1.2388,-1.3182,-1.38,-1.4047,0.0,0.0,0.0,0.0,0.0,0.0,0.0,0.0,0.0,0.0,0.0,0.0,0.0,0.0,0.0,0.0,0.0,0.0,0.0,0.0,0.0,0.0,0.0,0.0,0.0,0.0,0.0,0.0,0.0,0.0,0.0,0.0,0.0,0.0,0.0,0.0,0.0,0.0,0.0,0.0,0.0,0.0,0.0,0.0,0.0,0.0,0.0,0.0,0.0,0.0,0.0,0.0,0.0,0.0,0.0,0.0,0.0,0.0,0.0,0.0,0.0,0.0,0.0,0.0,0.0,0.0,0.0,0.0,0.0,0.0,0.0,0.0,0.0,0.0,0.0,0.0,0.0,0.0,0.0,0.0,0.0,0.0,0.0,0.0,0.0,0.0,0.0,0.0,0.0,0.0,0.0,0.0,0.0,0.0,0.0,0.0,0.0,0.0,0.0,0.0,0.0,0.0,0.0,0.0,-1.2417,-1.2389,-1.2032,-1.1991,-1.2461,-1.3418,-1.4133,-1.4417,0.0,0.0,0.0,0.0,0.0,0.0,0.0,0.0,0.0,0.0,0.0,0.0,0.0,0.0,0.0,0.0,0.0,0.0,0.0,0.0,0.0,0.0,0.0,0.0,0.0,0.0,0.0,0.0,0.0,0.0,0.0,0.0,0.0,0.0,0.0,0.0,0.0,0.0,0.0,0.0,0.0,0.0,0.0,0.0,0.0,0.0,0.0,0.0,0.0,0.0,0.0,0.0,0.0,0.0,0.0,0.0,0.0,0.0,0.0,0.0,0.0,0.0,0.0,0.0,0.0,0.0,0.0,0.0,0.0,0.0,0.0,0.0,0.0,0.0,0.0,0.0,0.0,0.0,0.0,0.0,0.0,0.0,0.0,0.0,0.0,0.0,0.0,0.0,0.0,0.0,0.0,0.0,0.0,0.0,0.0,0.0,0.0,0.0,0.0,0.0,0.0,0.0,0.0,-1.2244,-1.2252,-1.2368,-1.2422,-1.2641,-1.3062,-1.4479,-1.5253,-1.5044,-1.4867,0.0,0.0,0.0,0.0,0.0,0.0,0.0,0.0,0.0,0.0,0.0,0.0,0.0,0.0,0.0,0.0,0.0,0.0,0.0,0.0,0.0,0.0,0.0,0.0,0.0,0.0,0.0,0.0,0.0,0.0,0.0,0.0,0.0,0.0,0.0,0.0,0.0,0.0,0.0,0.0,0.0,0.0,0.0,0.0,0.0,0.0,0.0,0.0,0.0,0.0,0.0,0.0,0.0,0.0,0.0,0.0,0.0,0.0,0.0,0.0,0.0,0.0,0.0,0.0,0.0,0.0,0.0,0.0,0.0,0.0,0.0,0.0,0.0,0.0,0.0,0.0,0.0,0.0,0.0,0.0,0.0,0.0,0.0,0.0,0.0,0.0,0.0,0.0,0.0,0.0,0.0,0.0,0.0,0.0,0.0,0.0,0.0,0.0,0.0,0.0,0.0,0.0,-1.2686,-1.2412,-1.2817,-1.3061,-1.3401,-1.39,-1.5443,-1.6152,-1.5697,-1.5198,0.0,0.0,0.0,0.0,0.0,0.0,0.0,0.0,0.0,0.0,0.0,0.0,0.0,0.0,0.0,0.0,0.0,0.0,0.0,0.0,0.0,0.0,0.0,0.0,0.0,0.0,0.0,0.0,0.0,0.0,0.0,0.0,0.0,0.0,0.0,0.0,0.0,0.0,0.0,0.0,0.0,0.0,0.0,0.0,0.0,0.0,0.0,0.0,0.0,0.0,0.0,0.0,0.0,0.0,0.0,0.0,0.0,0.0,0.0,0.0,0.0,0.0,0.0,0.0,0.0,0.0,0.0,0.0,0.0,0.0,0.0,0.0,0.0,0.0,0.0,0.0,0.0,0.0,0.0,0.0,0.0,0.0,0.0,0.0,0.0,0.0,0.0,0.0,0.0,0.0,0.0,0.0,0.0,0.0,0.0,0.0,0.0,0.0,0.0,0.0,0.0,0.0,-1.3263,-1.3341,-1.418,-1.3946,-1.4077,-1.4909,-1.5744,-1.6205,-1.6154,-1.5068,0.0,0.0,0.0,0.0,0.0,0.0,0.0,0.0,0.0,0.0,0.0,0.0,0.0,0.0,0.0,0.0,0.0,0.0,0.0,0.0,0.0,0.0,0.0,0.0,0.0,0.0,0.0,0.0,0.0,0.0,0.0,0.0,0.0,0.0,0.0,0.0,0.0,0.0,0.0,0.0,0.0,0.0,0.0,0.0,0.0,0.0,0.0,0.0,0.0,0.0,0.0,0.0,0.0,0.0,0.0,0.0,0.0,0.0,0.0,0.0,0.0,0.0,0.0,0.0,0.0,0.0,0.0,0.0,0.0,0.0,0.0,0.0,0.0,0.0,0.0,0.0,0.0,0.0,0.0,0.0,0.0,0.0,0.0,0.0,0.0,0.0,0.0,0.0,0.0,0.0,0.0,0.0,0.0,0.0,0.0,0.0,0.0,0.0,0.0,0.0,0.0,0.0,-1.4022,-1.4402,-1.4901,-1.5251,-1.5539,-1.5885,-1.6551,-1.6674,-1.6052,0.0,0.0,0.0,0.0,0.0,0.0,0.0,0.0,0.0,0.0,0.0,0.0,0.0,0.0,0.0,0.0,0.0,0.0,0.0,0.0,0.0,0.0,0.0,0.0,0.0,0.0,0.0,0.0,0.0,0.0,0.0,0.0,0.0,0.0,0.0,0.0,0.0,0.0,0.0,0.0,0.0,0.0,0.0,0.0,0.0,0.0,0.0,0.0,0.0,0.0,0.0,0.0,0.0,0.0,0.0,0.0,0.0,0.0,0.0,0.0,0.0,0.0,0.0,0.0,0.0,0.0,0.0,0.0,0.0,0.0,0.0,0.0,0.0,0.0,0.0,0.0,0.0,0.0,0.0,0.0,0.0,0.0,0.0,0.0,0.0,0.0,0.0,0.0,0.0,0.0,0.0,0.0,0.0,0.0,0.0,0.0,0.0,0.0,0.0,0.0,0.0,0.0,-1.4051,-1.4742,-1.5355,-1.5839,-1.6229,-1.6438,-1.6444,-1.6877,-1.6729,-1.5711,0.0,0.0,0.0,0.0,0.0,0.0,0.0,0.0,0.0,0.0,0.0,0.0,0.0,0.0,0.0,0.0,0.0,0.0,0.0,0.0,0.0,0.0,0.0,0.0,0.0,0.0,0.0,0.0,0.0,0.0,0.0,0.0,0.0,0.0,0.0,0.0,0.0,0.0,0.0,0.0,0.0,0.0,0.0,0.0,0.0,0.0,0.0,0.0,0.0,0.0,0.0,0.0,0.0,0.0,0.0,0.0,0.0,0.0,0.0,0.0,0.0,0.0,0.0,0.0,0.0,0.0,0.0,0.0,0.0,0.0,0.0,0.0,0.0,0.0,0.0,0.0,0.0,0.0,0.0,0.0,0.0,0.0,0.0,0.0,0.0,0.0,0.0,0.0,0.0,0.0,0.0,0.0,0.0,0.0,0.0,0.0,0.0,0.0,0.0,0.0,0.0,0.0,-1.4754,-1.5376,-1.6117,-1.7092,-1.6852,-1.6577,-1.6514,-1.6536,-1.6151,0.0,0.0,0.0,0.0,0.0,0.0,0.0,0.0,0.0,0.0,0.0,0.0,0.0,0.0,0.0,0.0,0.0,0.0,0.0,0.0,0.0,0.0,0.0,0.0,0.0,0.0,0.0,0.0,0.0,0.0,0.0,0.0,0.0,0.0,0.0,0.0,0.0,0.0,0.0,0.0,0.0,0.0,0.0,0.0,0.0,0.0,0.0,0.0,0.0,0.0,0.0,0.0,0.0,0.0,0.0,0.0,0.0,0.0,0.0,0.0,0.0,0.0,0.0,0.0,0.0,0.0,0.0,0.0,0.0,0.0,0.0,0.0,0.0,0.0,0.0,0.0,0.0,0.0,0.0,0.0,0.0,0.0,0.0,0.0,0.0,0.0,0.0,0.0,0.0,0.0,0.0,0.0,0.0,0.0,0.0,0.0,0.0,0.0,0.0,0.0,0.0,0.0,0.0,-1.4959,-1.6432,-1.7386,-1.7339,-1.6902,-1.6582,-1.6562,-1.5929,-1.528,-1.4643,0.0,0.0,0.0,0.0,0.0,0.0,0.0,0.0,0.0,0.0,0.0,0.0,0.0,0.0,0.0,0.0,0.0,0.0,0.0,0.0,0.0,0.0,0.0,0.0,0.0,0.0,0.0,0.0,0.0,0.0,0.0,0.0,0.0,0.0,0.0,0.0,0.0,0.0,0.0,0.0,0.0,0.0,0.0,0.0,0.0,0.0,0.0,0.0,0.0,0.0,0.0,0.0,0.0,0.0,0.0,0.0,0.0,0.0,0.0,0.0,0.0,0.0,0.0,0.0,0.0,0.0,0.0,0.0,0.0,0.0,0.0,0.0,0.0,0.0,0.0,0.0,0.0,0.0,0.0,0.0,0.0,0.0,0.0,0.0,0.0,0.0,0.0,0.0,0.0,0.0,0.0,0.0,0.0,0.0,0.0,0.0,0.0,0.0,0.0,0.0,0.0,0.0,-1.5329,-1.6824,-1.7639,-1.7128,-1.6629,-1.6151,-1.5768,-1.5378,-1.4861,-1.4085,0.0,0.0,0.0,0.0,0.0,0.0,0.0,0.0,0.0,0.0,0.0,0.0,0.0,0.0,0.0,0.0,0.0,0.0,0.0,0.0,0.0,0.0,0.0,0.0,0.0,0.0,0.0,0.0,0.0,0.0,0.0,0.0,0.0,0.0,0.0,0.0,0.0,0.0,0.0,0.0,0.0,0.0,0.0,0.0,0.0,0.0,0.0,0.0,0.0,0.0,0.0,0.0,0.0,0.0,0.0,0.0,0.0,0.0,0.0,0.0,0.0,0.0,0.0,0.0,0.0,0.0,0.0,0.0,0.0,0.0,0.0,0.0,0.0,0.0,0.0,0.0,0.0,0.0,0.0,0.0,0.0,0.0,0.0,0.0,0.0,0.0,0.0,0.0,0.0,0.0,0.0,0.0,0.0,0.0,0.0,0.0,0.0,0.0,0.0,0.0,0.0,0.0,-1.5725,-1.6751,-1.7189,-1.6612,-1.6078,-1.5412,-1.4508,-1.489,-1.4728,-1.3676,0.0,0.0,0.0,0.0,0.0,0.0,0.0,0.0,0.0,0.0,0.0,0.0,0.0,0.0,0.0,0.0,0.0,0.0,0.0,0.0,0.0,0.0,0.0,0.0,0.0,0.0,0.0,0.0,0.0,0.0,0.0,0.0,0.0,0.0,0.0,0.0,0.0,0.0,0.0,0.0,0.0,0.0,0.0,0.0,0.0,0.0,0.0,0.0,0.0,0.0,0.0,0.0,0.0,0.0,0.0,0.0,0.0,0.0,0.0,0.0,-1.1492,-1.107,0.0,0.0,0.0,0.0,0.0,0.0,0.0,0.0,0.0,0.0,0.0,0.0,0.0,0.0,0.0,0.0,0.0,0.0,0.0,0.0,0.0,0.0,0.0,0.0,0.0,0.0,0.0,0.0,0.0,0.0,0.0,0.0,0.0,0.0,0.0,0.0,0.0,0.0,0.0,0.0,-1.5238,-1.6516,-1.7082,-1.628,-1.5348,-1.4746,-1.4643,-1.4371,-1.4248,-1.4362,-1.4802,0.0,0.0,0.0,0.0,0.0,0.0,0.0,0.0,0.0,0.0,0.0,0.0,0.0,0.0,0.0,0.0,0.0,0.0,0.0,0.0,0.0,0.0,0.0,0.0,0.0,0.0,0.0,0.0,0.0,0.0,0.0,0.0,0.0,0.0,0.0,0.0,0.0,0.0,0.0,0.0,0.0,0.0,0.0,0.0,0.0,0.0,0.0,0.0,0.0,0.0,0.0,0.0,0.0,0.0,0.0,0.0,0.0,0.0,0.0,-1.2543,-1.2306,0.0,0.0,0.0,0.0,0.0,0.0,0.0,0.0,0.0,0.0,0.0,0.0,0.0,0.0,0.0,0.0,0.0,0.0,0.0,0.0,0.0,0.0,0.0,0.0,0.0,0.0,0.0,0.0,0.0,0.0,0.0,0.0,0.0,0.0,0.0,0.0,0.0,0.0,0.0,0.0,-1.5562,-1.6524,-1.676,-1.5554,-1.4697,-1.4047,-1.3623,-1.3839,-1.4155,-1.4525,-1.5223,0.0,0.0,0.0,0.0,0.0,0.0,0.0,0.0,0.0,0.0,0.0,0.0,0.0,0.0,0.0,0.0,0.0,0.0,0.0,0.0,0.0,0.0,0.0,0.0,0.0,0.0,0.0,0.0,0.0,0.0,0.0,0.0,0.0,0.0,0.0,0.0,0.0,0.0,0.0,0.0,0.0,0.0,0.0,0.0,0.0,0.0,0.0,0.0,0.0,0.0,0.0,0.0,0.0,-1.3053,-1.3275,-1.3603,-1.3413,-1.3593,-1.3973,-1.3697,-1.3775,-1.4085,-1.3625,0.0,0.0,0.0,0.0,0.0,0.0,0.0,0.0,0.0,0.0,0.0,0.0,0.0,0.0,0.0,0.0,0.0,0.0,0.0,0.0,0.0,0.0,0.0,0.0,-1.3783,-1.3431,-1.224,0.0,0.0,0.0,0.0,0.0,0.0,0.0,0.0,0.0,0.0,0.0,-1.6091,-1.6636,-1.6456,-1.5036,-1.4314,-1.3602,-1.281,-1.357,-1.4264,-1.4678,-1.5618,-1.6122,0.0,0.0,0.0,0.0,0.0,0.0,0.0,0.0,0.0,0.0,0.0,0.0,0.0,0.0,0.0,0.0,0.0,0.0,0.0,0.0,0.0,0.0,0.0,0.0,0.0,0.0,0.0,0.0,0.0,0.0,0.0,0.0,-0.5354,-0.6112,0.0,0.0,0.0,0.0,0.0,0.0,0.0,0.0,0.0,0.0,0.0,0.0,0.0,-1.0898,-1.1843,-1.2636,-1.3335,-1.3928,-1.4463,-1.4724,-1.478,-1.4994,-1.5099,-1.5182,-1.5128,0.0,-1.4099,-1.4019,0.0,0.0,0.0,0.0,0.0,0.0,0.0,0.0,0.0,0.0,0.0,0.0,0.0,0.0,0.0,0.0,0.0,0.0,0.0,0.0,0.0,0.0,-1.6834,-1.6339,-1.5891,-1.5472,0.0,-1.3709,-1.2575,-1.2979,-1.315,0.0,0.0,0.0,0.0,0.0,0.0,0.0,-1.6274,-1.669,-1.6621,-1.566,-1.4669,-1.4068,-1.4051,-1.4024,-1.4423,-1.539,-1.5803,-1.6423,-1.7319,-1.6845,0.0,0.0,0.0,0.0,0.0,0.0,0.0,0.0,0.0,0.0,0.0,0.0,0.0,0.0,0.0,0.0,0.0,0.0,0.0,0.0,0.0,0.0,0.0,0.0,0.0,0.0,0.0,0.0,0.0,-0.4323,-0.503,-0.592,-0.6302,-0.6804,0.0,0.0,0.0,0.0,0.0,0.0,0.0,0.0,0.0,-0.951,-0.9982,-1.0717,-1.1829,-1.2254,-1.2952,-1.3894,-1.4077,-1.4195,-1.4279,-1.4475,-1.4553,-1.4553,-1.4637,-1.4455,-1.4124,-1.4372,-1.4502,-1.45,0.0,0.0,0.0,0.0,-1.6582,-1.6727,-1.7646,-1.776,-1.7399,-1.6871,0.0,0.0,0.0,0.0,0.0,0.0,0.0,0.0,0.0,0.0,-1.7227,-1.7021,-1.6793,-1.6595,-1.6568,-1.5807,-1.5024,0.0,-1.497,-1.5189,-1.4716,0.0,0.0,0.0,0.0,-1.6783,-1.6403,-1.6871,-1.6729,-1.5433,-1.4884,-1.448,-1.416,-1.4637,-1.5223,-1.585,-1.6587,-1.7194,-1.7586,-1.7344,-1.6902,0.0,0.0,0.0,0.0,0.0,0.0,0.0,0.0,0.0,0.0,0.0,0.0,0.0,0.0,0.0,0.0,0.0,0.0,0.0,0.0,0.0,0.0,0.0,0.0,0.0,0.0,0.0,0.0,-0.4088,-0.471,-0.5716,-0.6107,-0.6726,0.0,0.0,0.0,0.0,0.0,0.0,-0.9553,-0.959,-0.9614,-0.9706,-0.994,-1.0583,-1.1647,-1.1717,-1.2353,-1.3558,-1.345,-1.3531,-1.3752,-1.3899,-1.3939,-1.397,-1.4051,-1.4109,-1.4133,-1.4482,-1.4619,-1.4595,-1.4385,-1.4642,-1.5316,-1.6369,-1.6882,-1.7253,-1.8559,-1.8734,-1.8338,-1.7947,-1.773,-1.7472,-1.6661,0.0,0.0,0.0,0.0,-1.7661,-1.7731,-1.7667,-1.7596,-1.7642,-1.7672,-1.7672,-1.7672,-1.7622,-1.7323,0.0,-1.6612,-1.6735,-1.5889,0.0,0.0,-1.637,-1.7069,-1.7369,-1.6735,-1.7087,-1.6841,-1.536,-1.5085,-1.4862,-1.4475,-1.5182,-1.5834,-1.6308,-1.7219,-1.777,-1.7824,-1.7836,-1.7548,-1.6948,0.0,0.0,0.0,0.0,0.0,0.0,0.0,0.0,0.0,0.0,0.0,0.0,0.0,0.0,0.0,0.0,0.0,0.0,0.0,0.0,0.0,0.0,0.0,0.0,0.0,0.0,0.0,0.0,0.0,-0.5789,-0.5973,0.0,0.0,0.0,0.0,-0.9415,-0.9883,-1.0194,-1.0347,-1.0344,-1.0401,-1.0539,-1.0554,-1.0906,-1.1592,-1.1431,-1.1932,-1.3118,-1.3114,-1.339,-1.389,-1.4029,-1.4082,-1.4077,-1.4109,-1.4109,-1.4109,-1.4133,-1.4143,-1.4177,-1.46,-1.5129,-1.5801,-1.6801,-1.7539,-1.8111,-1.8771,-1.8975,-1.8971,-1.8921,-1.8572,-1.8157,-1.8103,-1.8103,0.0,0.0,-1.8524,-1.8921,-1.8918,-1.8918,-1.8904,-1.8901,-1.8907,-1.8907,-1.8907,-1.8813,-1.8581,0.0,-1.7598,-1.7427,-1.7964,0.0,-1.7507,-1.8013,-1.8127,-1.7971,-1.7417,-1.7375,-1.6973,-1.587,-1.5307,-1.5165,-1.5577,-1.5563,-1.5919,-1.689,-1.7373,-1.7854,-1.8428,-1.8449,-1.8161,-1.7569,-1.6969,0.0,0.0,0.0,0.0,0.0,0.0,0.0,0.0,0.0,0.0,0.0,0.0,0.0,0.0,0.0,0.0,0.0,0.0,0.0,0.0,0.0,0.0,0.0,0.0,0.0,0.0,0.0,0.0,-0.6004,-0.6234,0.0,-0.8394,-0.863,-0.916,-1.0302,-1.0638,-1.0697,-1.0544,-1.0533,-1.0341,-0.9976,-0.9961,-1.0234,-1.0828,-1.0668,-1.1027,-1.1887,-1.218,-1.2468,-1.2753,-1.3144,-1.3325,-1.3325,-1.3325,-1.3477,-1.3704,-1.3704,-1.4026,-1.4565,-1.4727,-1.533,-1.6173,-1.6914,-1.7595,-1.818,-1.8795,-1.8993,-1.8993,-1.8993,-1.8867,-1.8704,-1.8704,-1.8704,-1.8704,-1.8704,-1.8849,-1.8993,-1.8993,-1.8993,-1.8903,-1.8566,-1.8488,-1.8488,-1.8488,-1.8462,-1.848,-1.8644,-1.846,-1.8263,-1.8208,-1.8332,-1.838,-1.8223,-1.8494,-1.8398,-1.7501,-1.7387,-1.6985,-1.59,-1.5624,-1.566,-1.599,-1.6366,-1.6817,-1.7347,-1.7969,-1.8369,-1.8491,-1.8576,-1.8496,-1.8194,-1.759,-1.6965,0.0,0.0,0.0,0.0,0.0,0.0,0.0,0.0,0.0,0.0,0.0,0.0,0.0,0.0,0.0,0.0,0.0,0.0,0.0,0.0,0.0,0.0,0.0,0.0,0.0,-0.5257,-0.5699,-0.6349,-0.6434,-0.7005,-0.8413,-0.8791,-0.9415,-1.0592,-1.092,-1.096,-1.0634,-1.0481,-1.0174,-0.9629,-0.9588,-0.9773,-1.0138,-1.0039,-1.0318,-1.0926,-1.1238,-1.1644,-1.2101,-1.248,-1.273,-1.2905,-1.2905,-1.3042,-1.3296,-1.3296,-1.3716,-1.4385,-1.4705,-1.524,-1.5943,-1.6637,-1.7318,-1.8009,-1.8729,-1.8993,-1.8993,-1.8993,-1.8993,-1.8993,-1.8993,-1.8993,-1.8993,-1.8993,-1.8993,-1.8993,-1.8993,-1.8861,-1.8638,-1.8283,-1.8067,-1.7935,-1.7935,-1.7935,-1.8091,-1.862,-1.8799,-1.8785,-1.853,-1.8758,-1.8873,-1.8518,-1.877,-1.8608,-1.755,-1.7387,-1.6985,-1.59,-1.5941,-1.6172,-1.6515,-1.7066,-1.7565,-1.796,-1.8434,-1.8653,-1.8576,-1.8653,-1.8634,-1.8498,-1.792,-1.7295,-1.6701,0.0,0.0,0.0,0.0,0.0,0.0,0.0,0.0,0.0,0.0,0.0,0.0,0.0,0.0,0.0,0.0,0.0,0.0,0.0,0.0,0.0,0.0,0.0,-0.6295,-0.605,-0.6096,-0.682,-0.6549,-0.6757,-0.7811,-0.8677,-0.9464,-1.0144,-1.0756,-1.0946,-1.0591,-1.0272,-0.995,-0.9599,-0.9588,-0.9588,-0.9588,-0.9588,-0.9851,-1.0377,-1.0399,-1.0985,-1.2076,-1.2101,-1.2402,-1.2905,-1.2905,-1.291,-1.2925,-1.2925,-1.3149,-1.3608,-1.4424,-1.4837,-1.5085,-1.5939,-1.6787,-1.7618,-1.8601,-1.8945,-1.8945,-1.8945,-1.8951,-1.8969,-1.8969,-1.8975,-1.8993,-1.8993,-1.8993,-1.8993,-1.8969,-1.859,-1.8193,-1.8163,-1.776,-1.7394,-1.7394,-1.7394,-1.7519,-1.8073,-1.8608,-1.8975,-1.8993,-1.8993,-1.8993,-1.8993,-1.8975,0.0,-1.755,-1.74,-1.6967,-1.5922,-1.6241,-1.6708,-1.7171,-1.7578,-1.8062,-1.868,-1.8718,-1.8718,-1.8692,-1.8692,-1.8634,-1.8498,-1.792,-1.7309,-1.6737,0.0,0.0,0.0,0.0,0.0,0.0,0.0,0.0,0.0,0.0,0.0,0.0,0.0,0.0,0.0,0.0,0.0,0.0,0.0,0.0,0.0,-0.625,-0.6512,-0.6322,-0.661,-0.6824,-0.6837,-0.6913,-0.7224,-0.7892,-0.8551,-0.9218,-1.0005,-1.049,-1.058,-1.025,-1.0148,-0.995,-0.9599,-0.9588,-0.9588,-0.9588,-0.9588,-0.9666,-0.9825,-1.0216,-1.0778,-1.146,-1.1898,-1.2402,-1.2905,-1.2905,-1.3076,-1.334,-1.334,-1.3579,-1.3929,-1.3887,-1.4049,-1.4417,-1.5102,-1.601,-1.7012,-1.7616,-1.7851,-1.7851,-1.7851,-1.8109,-1.8416,-1.8416,-1.8686,-1.8993,-1.8993,-1.8993,-1.8903,-1.8518,-1.8313,-1.8007,-1.7213,-1.6925,-1.6817,-1.6817,-1.6817,-1.6973,-1.7526,-1.8061,-1.8542,-1.8927,-1.8993,-1.8993,-1.8993,-1.8668,0.0,-1.7502,-1.7057,-1.6697,-1.6337,-1.6414,-1.685,-1.7713,-1.7875,-1.8174,-1.8741,-1.8858,-1.8877,-1.8779,-1.8772,-1.869,-1.8498,-1.792,-1.752,0.0,0.0,0.0,0.0,0.0,0.0,0.0,0.0,0.0,0.0,0.0,0.0,0.0,0.0,0.0,0.0,0.0,0.0,0.0,0.0,0.0,0.0,-0.6701,-0.7063,-0.658,-0.6942,-0.722,-0.721,-0.714,-0.7263,-0.7719,-0.8247,-0.882,-0.9461,-0.9886,-1.0138,-1.0111,-0.9972,-0.9808,-0.9618,-0.9588,-0.9588,-0.9588,-0.9588,-0.9588,-0.9614,-0.9928,-1.034,-1.088,-1.146,-1.2022,-1.2578,-1.2803,-1.3042,-1.3247,-1.3247,-1.3389,0.0,0.0,0.0,0.0,0.0,-1.541,-1.6406,-1.691,-1.7241,-1.7387,-1.7387,-1.7622,-1.7869,-1.7869,-1.8085,-1.8332,-1.8332,-1.8332,-1.8259,-1.7953,-1.7706,-1.7363,-1.6751,-1.6439,-1.6271,-1.6271,-1.6271,-1.6427,-1.6955,-1.7309,0.0,-1.853,-1.8843,-1.8993,-1.8993,-1.8542,-1.8013,-1.7459,-1.6972,-1.6567,-1.6312,-1.6659,-1.7158,-1.7734,-1.8127,0.0,0.0,0.0,-1.8941,-1.881,-1.8772,0.0,0.0,0.0,0.0,0.0,0.0,0.0,0.0,-1.8449,-1.8786,0.0,0.0,0.0,0.0,0.0,0.0,0.0,0.0,0.0,0.0,0.0,0.0,0.0,0.0,0.0,0.0,-0.6977,-0.7528,-0.6809,-0.7034,-0.7395,-0.7728,-0.7307,-0.7094,-0.7331,-0.7875,-0.8351,-0.8737,-0.9185,-0.9628,-1.0022,-0.9771,0.0,0.0,0.0,-0.9588,-0.9588,-0.9588,-0.9588,-0.9588,-0.9588,-0.9873,-1.0425,-1.0901,-1.146,-1.213,-1.2603,-1.2832,-1.2905,-1.2905,-1.2905,-1.2979,-1.3701,-1.3791,-1.358,-1.4166,-1.4935,-1.5805,-1.6335,0.0,0.0,-1.7165,-1.7231,-1.7303,-1.7303,-1.7339,-1.7387,-1.7387,-1.7387,-1.74,-1.7321,-1.6955,-1.6583,-1.6529,-1.6157,-1.5792,-1.5792,-1.5792,-1.5936,-1.6421,-1.6565,-1.6901,-1.7863,-1.8512,-1.8903,-1.8903,-1.8484,-1.7948,-1.7388,-1.7011,-1.6647,-1.6212,0.0,0.0,-1.7659,-1.8371,-1.8882,-1.9005,-1.9012,-1.8953,-1.881,-1.8728,-1.8634,-1.8498,-1.8498,-1.8498,-1.8498,-1.9705,-1.9971,-1.9383,-1.8996,-1.9431,0.0,0.0,0.0,0.0,0.0,0.0,0.0,0.0,0.0,0.0,0.0,0.0,0.0,0.0,0.0,-0.6205,-0.6345,-0.6402,-0.6248,-0.6699,-0.7156,-0.7458,-0.7557,-0.7491,-0.7192,-0.7738,-0.8217,-0.8467,-0.8855,-0.9276,-0.9683,-0.9647,-0.9588,-0.9588,-0.9588,-0.9588,-0.9588,-0.9588,-0.9588,-0.9588,0.0,0.0,-1.0403,-1.0502,-1.1112,-1.2105,-1.2204,-1.2505,-1.2905,-1.2905,-1.2905,-1.2925,-1.3057,-1.3332,-1.363,-1.414,-1.4718,-1.5256,-1.5372,-1.5728,-1.6053,-1.5677,-1.6097,-1.6751,-1.6751,-1.7051,0.0,-1.7387,-1.7387,-1.7291,-1.6865,-1.6679,-1.6493,-1.6066,-1.5886,-1.5792,-1.5792,-1.5792,-1.5822,-1.5924,-1.6313,-1.6667,-1.6871,-1.7718,-1.835,-1.835,-1.7992,-1.7509,-1.6998,-1.685,-1.6916,-1.7192,-1.7659,-1.8193,-1.8659,-1.8865,-1.8998,-1.9078,-1.9071,-1.8995,-1.8803,-1.8791,-1.8683,-1.8498,-1.8498,-1.8498,-1.8498,-1.9242,-1.9536,-1.9411,-2.0323,-2.0886,0.0,0.0,0.0,0.0,0.0,0.0,0.0,0.0,0.0,0.0,0.0,-0.5863,-0.5731,0.0,-0.5993,-0.5655,-0.5925,-0.6063,-0.5661,-0.6118,-0.6617,-0.6958,-0.737,-0.7519,-0.7223,-0.7496,-0.7788,-0.8029,-0.8232,-0.855,-0.8968,-0.9181,-0.9312,-0.9312,-0.9488,-0.9588,-0.9588,-0.9588,-0.9588,-0.9588,-0.9588,-0.9873,-1.0403,-1.0676,-1.1288,-1.2101,-1.2377,-1.2652,-1.2905,-1.2905,-1.2905,-1.2905,-1.2905,-1.3041,-1.3272,-1.3496,-1.4077,-1.4703,-1.4703,-1.5187,-1.577,-1.5525,-1.5786,-1.6211,-1.6211,-1.6391,-1.6601,-1.6601,-1.6601,-1.6541,-1.6277,-1.6211,-1.6122,-1.5852,-1.5792,-1.5792,-1.5792,-1.5792,-1.5792,-1.5792,-1.603,-1.6272,-1.6553,-1.7105,-1.7569,-1.7766,-1.7454,-1.7171,-1.7117,-1.6976,-1.7089,-1.755,-1.8014,-1.8415,-1.8728,-1.8927,-1.9059,-1.9101,-1.9101,-1.9033,-1.8908,-1.8836,-1.8741,-1.8595,-1.8537,-1.8498,-1.8498,-1.9115,-1.939,-1.9411,-2.0393,-2.1005,0.0,0.0,0.0,0.0,0.0,0.0,0.0,-0.6261,-0.6126,-0.6126,-0.5996,-0.5829,-0.5611,-0.5807,-0.574,-0.4993,-0.5483,-0.5728,-0.5061,-0.5479,-0.5982,-0.6286,-0.6916,-0.733,-0.7341,-0.7314,-0.7416,-0.772,-0.772,-0.791,-0.8371,-0.8718,-0.8929,-0.9008,-0.9309,-0.9514,-0.9588,-0.9588,-0.9588,-0.9588,-0.9588,-0.9825,-1.0267,-1.0799,-1.136,-1.1972,-1.2627,-1.2905,-1.2905,-1.2905,-1.2905,-1.2905,-1.2905,-1.2905,-1.2905,-1.2997,-1.3568,-1.4299,-1.4299,-1.4903,-1.5653,-1.5653,-1.5726,-1.5792,-1.5792,-1.5792,-1.5792,-1.5792,-1.5792,-1.5792,-1.5792,-1.5792,-1.5792,-1.5792,-1.5792,-1.5792,-1.5792,-1.5792,-1.5792,-1.5792,-1.5792,-1.5952,-1.6373,-1.6553,-1.6798,-1.7225,-1.7053,-1.6954,-1.7178,-1.7185,-1.7311,-1.7673,-1.8266,-1.8623,-1.8623,-1.8905,-1.9101,-1.9101,-1.9101,-1.9078,-1.9005,-1.8908,-1.8805,-1.8723,-1.8595,-1.8537,-1.8537,-1.8996,-1.9242,-1.9249,-1.9887,-2.0597,-0.5538,-0.6082,-0.6518,-0.6663,-0.6727,-0.6892,0.0,-0.6865,-0.6264,-0.6205,-0.5794,-0.5392,-0.5118,-0.4965,-0.4855,-0.4731,-0.4712,-0.4674,-0.4575,-0.5034,-0.5356,-0.5268,-0.6117,-0.6915,-0.7437,-0.7368,-0.7467,-0.7851,-0.7774,-0.791,-0.8371,-0.8451,-0.8636,-0.8982,-0.9035,-0.9234,-0.9588,-0.9588,-0.9588,-0.9588,-0.9588,-0.964,-0.9718,-1.0241,-1.0778,-1.136,-1.2421,-1.2905,-1.2905,-1.2905,-1.2905,-1.2905,-1.2905,-1.2905,-1.2949,-1.3368,-1.3842,-1.4299,-1.4299,-1.468,-1.5176,-1.5176,-1.5452,-1.5792,-1.5792,-1.5792,-1.5792,-1.5792,-1.5792,-1.5792,-1.5792,-1.5792,-1.5792,-1.5792,-1.5792,-1.5792,-1.5792,-1.5792,-1.5792,-1.5792,-1.5792,-1.581,-1.587,-1.6003,-1.6262,-1.6803,-1.7019,-1.7004,-1.657,-1.7212,-1.7727,-1.7774,-1.8546,-1.9019,-1.9019,-1.9064,-1.9101,-1.9101,-1.9101,-1.9078,-1.9005,-1.8993,-1.8922,-1.8791,-1.8723,-1.868,-1.868,-1.8627,-1.8596,-1.8617,-1.9235,-2.014,-0.4568,-0.5262,-0.5865,-0.6142,-0.6345,-0.6519,-0.676,-0.6397,-0.5996,-0.5976,-0.5606,-0.5206,-0.4976,-0.4818,-0.4667,-0.4584,-0.4543,-0.4489,-0.4489,-0.4606,-0.476,-0.5072,-0.547,-0.6022,-0.6791,-0.719,-0.741,-0.7429,-0.7375,-0.7432,-0.7622,-0.786,-0.8073,-0.8229,-0.8742,-0.9084,-0.9237,-0.9488,-0.9588,-0.9588,-0.9588,-0.9773,-1.0057,-1.0297,-1.088,-1.1769,-1.2554,-1.2905,-1.2905,-1.2905,-1.2905,-1.2905,-1.2905,-1.2905,-1.2925,-1.3109,-1.3478,-1.3889,-1.3889,-1.4212,-1.4628,-1.4628,-1.4983,-1.5379,-1.5379,-1.5586,-1.5792,-1.5792,-1.5792,-1.5792,-1.5792,-1.5792,-1.5792,-1.5792,-1.5792,-1.5792,-1.5792,-1.5792,-1.5792,-1.5792,-1.5792,-1.5814,-1.5891,-1.6029,-1.6218,-1.6521,-1.6861,-1.7183,-1.7468,-1.7928,-1.8305,-1.8526,-1.8886,-1.9101,-1.9101,-1.9101,-1.9101,-1.9101,-1.9101,-1.909,-1.9059,-1.9024,-1.8967,-1.8915,-1.8812,-1.8767,-1.8767,-1.8666,-1.8615,-1.8622,-1.8804,-1.9347,-0.333,-0.4224,-0.5025,-0.506,-0.5597,-0.6012,-0.5734,-0.5483,-0.53,-0.53,-0.4807,-0.4422,-0.4574,-0.4318,-0.4115,-0.4176,-0.4072,-0.4016,-0.4183,-0.4065,-0.4154,-0.4736,-0.4982,-0.5321,-0.5918,-0.6752,-0.7219,-0.7168,-0.7112,-0.7112,-0.7112,-0.7378,-0.7589,-0.7696,-0.8312,-0.8765,-0.9008,-0.9286,-0.9484,-0.9588,-0.9588,-0.9795,-1.019,-1.0322,-1.1011,-1.2126,-1.25,-1.2754,-1.2905,-1.2905,-1.2905,-1.2905,-1.2905,-1.2905,-1.2905,-1.2905,-1.3113,-1.343,-1.3573,-1.3818,-1.4142,-1.4253,-1.4559,-1.4875,-1.4875,-1.5215,-1.5614,-1.5614,-1.5703,-1.5792,-1.5792,-1.5792,-1.5792,-1.5792,-1.5792,-1.5792,-1.5792,-1.5792,-1.5792,-1.5792,-1.5792,-1.5875,-1.6148,-1.6284,-1.65,-1.6871,-1.7201,-1.7544,-1.7955,-1.8285,-1.8642,-1.9064,-1.9101,-1.9101,-1.9101,-1.9101,-1.9101,-1.9101,-1.9101,-1.9101,-1.9101,-1.904,-1.9036,-1.9036,-1.8901,-1.8855,-1.8855,-1.8774,-1.8723,-1.8723,-1.8615,-1.8796,-0.1941,-0.3166,-0.4324,-0.3482,-0.4558,-0.5555,-0.4589,-0.4201,-0.4051,-0.4051,-0.3106,-0.2611,-0.3637,-0.3136,-0.2763,-0.3327,-0.3002,-0.2841,-0.3352,-0.3378,-0.35,-0.3976,-0.4654,-0.5064,-0.4966,-0.5953,-0.6812,-0.7257,-0.7171,-0.7112,-0.7112,-0.7112,-0.7295,-0.7694,-0.7723,-0.815,-0.8982,-0.9008,-0.9211,-0.9588,-0.9588,-0.9614,-0.964,-1.0164,-1.1011,-1.2101,-1.2126,-1.2426,-1.2905,-1.2905,-1.2905,-1.2905,-1.2905,-1.2905,-1.2905,-1.2905,-1.2905,-1.2997,-1.343,-1.3615,-1.3705,-1.4142,-1.4322,-1.4322,-1.4322,-1.4703,-1.5131,-1.5131,-1.5452,-1.5792,-1.5792,-1.5792,-1.5792,-1.5792,-1.5792,-1.5792,-1.5792,-1.5792,-1.5792,-1.5792,-1.5792,-1.5979,-1.6573,-1.6738,-1.7104,-1.8081,-1.8364,-1.8167,-1.7337,-1.7975,-1.8642,-1.9064,-1.9101,-1.9101,-1.9101,-1.9101,-1.9101,-1.9101,-1.9101,-1.9101,-1.9101,-1.9101,-1.9108,-1.9108,-1.9036,-1.8986,-1.8986,-1.8855,-1.881,-1.881,-1.8723,-1.8706,-0.0972,-0.1766,-0.2665,-0.2785,-0.3249,-0.3576,-0.3249,-0.3122,-0.3073,-0.3073,-0.2685,-0.2462,-0.2925,-0.2716,-0.2599,-0.2901,-0.2747,-0.265,-0.2837,-0.3047,-0.325,-0.3509,-0.4035,-0.451,-0.488,-0.6057,-0.6804,-0.6837,-0.709,-0.7281,-0.7357,-0.7192,-0.7195,-0.744,-0.7595,-0.799,-0.861,-0.8873,-0.9211,-0.9588,-0.9588,-0.9588,-0.9614,-1.0164,-1.0804,-1.1539,-1.1923,-1.2402,-1.2905,-1.2905,-1.2905,-1.2905,-1.2905,-1.2905,-1.2905,-1.2905,-1.2905,-1.2925,-1.3089,-1.3344,-1.3639,-1.3776,-1.4287,-1.4823,-1.4823,-1.5164,-1.5564,-1.5564,-1.5681,-1.5792,-1.5792,-1.5792,-1.5792,-1.5792,-1.5792,-1.5792,-1.5792,-1.5792,-1.5792,-1.5792,-1.5875,-1.6029,-1.6312,-1.6457,-1.6865,-1.7828,-1.8507,-1.8784,-1.8507,-1.8726,-1.8943,-1.9082,-1.9101,-1.9101,-1.9101,-1.9101,-1.9101,-1.9101,-1.9101,-1.9101,-1.9101,-1.9101,-1.9101,-1.9101,-1.9071,-1.9066,-1.9066,-1.8972,-1.8934,-1.8941,-1.8831,-1.8767,0.0042,-0.0543,-0.1183,-0.1515,-0.1847,-0.2015,-0.1647,-0.1695,-0.1815,-0.1791,-0.1561,-0.1518,-0.1997,-0.1861,-0.1738,-0.1888,-0.1944,-0.1951,-0.1949,-0.2296,-0.2651,-0.2955,-0.346,-0.3949,-0.4405,-0.5584,-0.6394,-0.6588,-0.6866,-0.7171,-0.7491,-0.733,-0.7252,-0.7287,-0.7467,-0.7756,-0.8153,-0.8583,-0.9054,-0.9588,-0.9588,-0.9588,-0.9614,-0.9958,-1.0417,-1.0926,-1.1314,-1.1923,-1.2603,-1.2603,-1.273,-1.2905,-1.2905,-1.2905,-1.2905,-1.2905,-1.2905,-1.2905,-1.2905,-1.3089,-1.3339,-1.3339,-1.3899,-1.457,-1.457,-1.5034,-1.5541,-1.5541,-1.5675,-1.5792,-1.5792,-1.5792,-1.5792,-1.5792,-1.5792,-1.5792,-1.5792,-1.5792,-1.5814,-1.5852,-1.5935,-1.6104,-1.6436,-1.6723,-1.7152,-1.7928,-1.8526,-1.8943,-1.9082,-1.9101,-1.9101,-1.9101,-1.9101,-1.9101,-1.9101,-1.9101,-1.9101,-1.9101,-1.9101,-1.9101,-1.9101,-1.9101,-1.9101,-1.9101,-1.9101,-1.9101,-1.9101,-1.9066,-1.9036,-1.9036,-1.8927,-1.8882,0.1089,0.0544,0.0117,0.0215,-0.041,-0.0828,0.0104,-0.0022,-0.0317,-0.0283,0.0152,0.0158,-0.0909,-0.0614,-0.0249,-0.0455,-0.0672,-0.0808,-0.0806,-0.1197,-0.172,-0.2288,-0.2942,-0.3419,-0.3587,-0.4591,-0.5578,-0.6477,-0.6586,-0.6861,-0.7437,-0.7491,-0.7443,-0.7314,-0.7317,-0.7416,-0.7696,-0.8182,-0.8814,-0.9566,-0.9588,-0.9588,-0.9588,-0.9614,-0.9928,-1.0429,-1.0429,-1.1061,-1.2126,-1.2105,-1.2426,-1.2905,-1.2905,-1.2905,-1.2905,-1.2905,-1.2905,-1.2905,-1.2905,-1.2929,-1.2949,-1.2949,-1.3248,-1.3639,-1.3639,-1.4316,-1.5108,-1.5108,-1.543,-1.5792,-1.5792,-1.5792,-1.5792,-1.5792,-1.5792,-1.5792,-1.5792,-1.5792,-1.583,-1.5973,-1.6038,-1.6266,-1.6909,-1.7476,-1.7995,-1.8429,-1.8526,-1.8662,-1.9019,-1.9082,-1.9101,-1.9101,-1.9101,-1.9101,-1.9101,-1.9101,-1.9101,-1.9101,-1.9101,-1.9101,-1.9101,-1.9101,-1.9101,-1.9101,-1.9101,-1.9101,-1.9101,-1.9101,-1.9101,-1.9101,-1.9036,-1.9012,0.2312,0.1793,0.1284,0.1013,0.0759,0.061,0.0664,0.0629,0.0498,0.0259,0.0379,0.0398,0.0131,-0.0082,-0.0224,-0.0277,-0.0618,-0.0866,-0.0866,-0.1247,-0.1588,-0.1853,-0.2379,-0.2962,-0.3532,-0.3873,-0.4479,-0.555,-0.6367,-0.6939,-0.7192,-0.7383,-0.7494,-0.744,-0.7365,-0.7416,-0.7696,-0.8474,-0.8952,-0.9159,-0.9462,-0.9588,-0.9614,-0.9807,-1.0227,-1.0765,-1.0765,-1.1398,-1.2377,-1.2175,-1.2426,-1.2905,-1.2905,-1.2905,-1.2905,-1.2905,-1.2905,-1.2905,-1.2905,-1.3138,-1.3411,-1.3411,-1.3729,-1.4118,-1.4118,-1.4588,-1.5108,-1.5108,-1.543,-1.5792,-1.5792,-1.5792,-1.5792,-1.5792,-1.5792,-1.5792,-1.5792,-1.5792,-1.583,-1.5973,-1.6411,-1.6831,-1.7102,-1.7808,-1.8371,-1.8488,-1.8765,-1.8886,-1.8688,-1.8905,-1.9101,-1.9101,-1.9101,-1.9101,-1.9101,-1.9101,-1.9101,-1.9101,-1.9101,-1.9101,-1.9101,-1.9101,-1.9101,-1.9101,-1.9101,-1.9101,-1.9101,-1.9101,-1.9101,-1.9101,-1.9071,-1.9071,0.321,0.2788,0.233,0.1948,0.1797,0.171,0.1688,0.1561,0.1448,0.1385,0.1205,0.1058,0.1042,0.0657,0.0418,0.0605,-0.0054,-0.0532,-0.0319,-0.0837,-0.1276,-0.1353,-0.1859,-0.2464,-0.3148,-0.3432,-0.3986,-0.4869,-0.5959,-0.675,-0.7082,-0.7464,-0.7628,-0.7494,-0.7416,-0.7494,-0.7696,-0.8179,-0.861,-0.9008,-0.9237,-0.9439,-0.9614,-0.9888,-1.012,-1.0348,0.0,-1.0913,-1.159,-1.1665,-1.2047,-1.2578,-1.2808,-1.2905,-1.2905,-1.2905,-1.2905,-1.2905,-1.2905,-1.3065,-1.3296,-1.3296,-1.3615,-1.3978,-1.3978,-1.4357,-1.4754,-1.4754,-1.4932,-1.521,-1.5424,-1.5497,-1.5541,-1.5742,-1.5792,-1.5792,-1.5792,-1.5852,-1.5935,-1.6132,-1.6503,-1.6865,-1.7157,-1.7618,-1.7995,-1.8167,-1.8565,-1.8765,-1.8526,-1.8841,-1.9101,-1.9101,-1.9101,-1.9101,-1.9101,-1.9101,-1.9101,-1.9101,-1.9101,-1.9101,-1.9101,-1.9101,-1.9101,-1.9101,-1.9101,-1.9101,-1.9101,-1.9101,-1.9101,-1.9101,-1.9101,-1.9101,0.3876,0.3561,0.3249,0.2932,0.2732,0.2672,0.2861,0.265,0.2449,0.2631,0.2265,0.189,0.1835,0.143,0.1222,0.1565,0.0643,0.0,0.0348,-0.0295,-0.0831,-0.0885,-0.1375,-0.193,-0.2514,-0.3125,-0.3738,-0.4322,-0.542,-0.6286,-0.6834,-0.7383,-0.7598,-0.7434,-0.7464,-0.7545,-0.7646,-0.7696,-0.8096,-0.8821,-0.8982,-0.9211,-0.954,-0.9888,-0.9914,-0.9669,-0.9892,-1.0176,-1.0506,-1.0926,-1.1485,-1.2155,-1.2603,-1.2832,-1.2905,-1.2905,-1.2905,-1.2905,-1.2905,-1.2905,-1.2905,-1.2905,-1.3181,-1.3501,-1.3501,-1.3842,-1.4212,-1.4212,-1.4253,-1.4415,-1.4869,-1.4989,-1.5102,-1.5491,-1.5675,-1.572,-1.572,-1.5913,-1.6126,-1.6349,-1.6494,-1.6729,-1.7136,-1.724,-1.742,-1.7834,-1.8246,-1.8526,-1.8565,-1.8886,-1.9101,-1.9101,-1.9101,-1.9101,-1.9101,-1.9101,-1.9101,-1.9101,-1.9101,-1.9101,-1.9101,-1.9101,-1.9101,-1.9101,-1.9101,-1.9101,-1.9101,-1.9101,-1.9101,-1.9101,-1.9101,-1.9101,0.4285,0.4117,0.3951,0.3674,0.367,0.3683,0.3502,0.344,0.3386,0.3145,0.2809,0.2539,0.2524,0.1756,0.112,0.1197,0.0695,0.0194,-0.0056,-0.0222,-0.0472,-0.0862,-0.1006,-0.1289,-0.1902,-0.2514,-0.3096,-0.371,-0.4711,-0.5388,-0.5597,-0.6179,-0.6642,-0.6993,-0.7324,-0.7467,-0.7365,-0.7696,-0.7877,-0.7937,-0.8886,-0.926,-0.9136,-0.9999,-1.0231,-0.9943,-0.9973,0.0,-1.079,-1.0604,-1.1162,-1.2105,-1.22,-1.2505,-1.2905,-1.2905,-1.2905,-1.2905,-1.2905,-1.2905,-1.2905,-1.2905,-1.2954,-1.3017,-1.3017,-1.3339,-1.3729,-1.3729,-1.4001,-1.4322,-1.4415,-1.4438,-1.4467,-1.4531,-1.4988,-1.5384,-1.5384,-1.5879,-1.6349,-1.6399,-1.6778,-1.7088,-1.7199,-1.7475,-1.7855,-1.8312,-1.8449,-1.8623,-1.8943,-1.9064,-1.9101,-1.9101,-1.9101,-1.9101,-1.9101,-1.9101,-1.9101,-1.9101,-1.9101,-1.9101,-1.9101,-1.9101,-1.9101,-1.9101,-1.9101,-1.9101,-1.9101,-1.9101,-1.9101,-1.9101,-1.9101,-1.9101,0.4867,0.4612,0.4394,0.4329,0.4163,0.4008,0.4065,0.3823,0.3592,0.3564,0.3177,0.2779,0.2543,0.21,0.1692,0.1448,0.1053,0.0701,0.0505,0.0084,-0.028,-0.0505,-0.0757,-0.1149,-0.1735,-0.2069,-0.2625,-0.3543,-0.397,-0.45,-0.5161,-0.5601,-0.6063,-0.6529,-0.6728,-0.6899,-0.7088,-0.734,-0.756,-0.7696,-0.8249,-0.8679,-0.9008,-0.9655,-0.9884,-0.9807,-0.9947,-1.0098,-1.0241,-1.0348,-1.0731,-1.1238,-1.151,-1.1789,-1.2042,-1.2377,-1.248,-1.2529,-1.2803,-1.2905,-1.2905,-1.2905,-1.2905,-1.2905,-1.2905,-1.307,-1.3253,-1.3253,-1.3568,-1.3978,-1.4235,-1.4513,-1.4795,-1.5102,-1.5473,-1.5796,-1.5856,-1.6148,-1.642,-1.6457,-1.6671,-1.6835,-1.6835,-1.7206,-1.7557,-1.7794,-1.7988,-1.8206,-1.841,-1.8642,-1.886,-1.9082,-1.9101,-1.9101,-1.9101,-1.9101,-1.9101,-1.9101,-1.9101,-1.9101,-1.9101,-1.9101,-1.9101,-1.9101,-1.9101,-1.9101,-1.9101,-1.9101,-1.9101,-1.9101,-1.9101,-1.9101,0.5417,0.5096,0.4781,0.4886,0.462,0.4397,0.4723,0.4336,0.3957,0.4181,0.369,0.3088,0.2613,0.2464,0.2235,0.1786,0.1455,0.1207,0.1122,0.0505,0.0,-0.0168,-0.0533,-0.0981,-0.1539,-0.1734,-0.2235,-0.332,-0.3495,-0.3931,-0.4827,-0.5198,-0.5538,-0.5915,-0.6127,-0.6395,-0.6727,-0.6918,-0.717,-0.7485,-0.7641,-0.8067,-0.8742,-0.9181,-0.9439,-0.9488,-0.9781,-0.9807,-0.964,-1.0057,-1.0297,-1.045,-1.0854,-1.1129,-1.136,-1.1769,-1.2022,-1.2254,-1.2603,-1.2832,-1.2929,-1.2929,-1.2929,-1.2905,-1.2905,-1.2905,-1.2905,-1.2905,-1.3157,-1.3525,-1.3912,-1.4398,-1.5,-1.5734,-1.5988,-1.6132,-1.6371,-1.6414,-1.6436,-1.65,-1.6494,-1.6494,-1.6494,-1.682,-1.7109,-1.7296,-1.7598,-1.7875,-1.8048,-1.841,-1.8745,-1.9064,-1.9101,-1.9101,-1.9101,-1.9101,-1.9101,-1.9101,-1.9101,-1.9101,-1.9101,-1.9101,-1.9101,-1.9101,-1.9101,-1.9101,-1.9101,-1.9101,-1.9101,-1.9101,-1.9101,-1.9101,0.5814,0.555,0.5233,0.5249,0.5302,0.543,0.5701,0.5488,0.5227,0.5248,0.4584,0.3857,0.3383,0.2797,0.2235,0.1786,0.1729,0.16,0.115,0.1038,0.0673,-0.0112,-0.0224,-0.0449,-0.0925,-0.1484,-0.2069,-0.2736,-0.3493,-0.3989,-0.4088,-0.4643,-0.4981,-0.503,-0.5849,-0.6252,-0.6184,-0.6482,-0.6704,-0.6793,-0.7473,-0.7802,-0.7857,-0.8909,-0.9286,-0.9084,-0.9465,-0.9614,0.0,-0.964,-0.9954,-1.0403,-1.045,-1.096,-1.1619,-1.136,-1.1789,-1.2426,-1.2254,-1.2578,-1.308,-1.308,-1.3007,-1.2905,-1.2905,-1.2905,-1.2905,-1.2905,-1.2929,-1.2973,-1.3022,-1.3467,-1.4213,-1.5359,-1.566,-1.5798,-1.638,-1.65,-1.65,-1.6494,-1.6494,-1.6494,-1.6494,-1.6543,-1.6829,-1.7632,-1.7774,-1.8088,-1.8886,-1.9019,-1.9064,-1.9101,-1.9101,-1.9101,-1.9101,-1.9101,-1.9101,-1.9101,-1.9101,-1.9101,-1.9101,-1.9101,-1.9101,-1.9101,-1.9101,-1.9101,-1.9101,-1.9101,-1.9101,-1.9101,-1.9101,-1.9101,0.5909,0.5753,0.5699,0.5568,0.5558,0.5561,0.5585,0.5368,0.5109,0.4953,0.4614,0.4237,0.3928,0.3278,0.2667,0.2409,0.2057,0.1741,0.1543,0.1313,0.1004,0.0618,0.0371,0.0029,-0.0421,-0.0701,-0.1156,-0.1927,-0.2888,-0.3422,-0.3334,-0.384,-0.4212,-0.4412,-0.5127,-0.5594,-0.5733,-0.6237,-0.6485,-0.653,-0.6822,-0.715,-0.7552,-0.8245,-0.8731,-0.9035,-0.9413,-0.9588,0.0,-0.9588,-0.9718,-0.9928,-0.9928,-1.0131,-1.046,-1.0651,-1.093,-1.1263,-1.1485,-1.1968,-1.25,-1.2544,-1.2774,-1.3032,-1.3032,-1.3032,-1.3007,-1.2929,-1.3167,-1.3445,-1.3445,-1.3941,-1.4658,-1.5411,-1.565,-1.587,-1.638,-1.6494,-1.6494,-1.6494,-1.6494,-1.6494,-1.6494,-1.6494,-1.6622,-1.697,-1.7012,-1.7131,-1.7489,-1.7994,-1.8331,-1.8331,-1.8784,-1.9101,-1.9101,-1.9101,-1.9101,-1.9101,-1.9101,-1.9101,-1.9101,-1.9101,-1.9101,-1.9101,-1.9101,-1.9101,-1.9101,-1.9101,-1.9101,-1.9101,-1.9101,-1.9101,0.6487,0.6206,0.604,0.5984,0.5939,0.5887,0.5837,0.5599,0.5319,0.5091,0.4886,0.4679,0.4402,0.3778,0.3219,0.0,0.2383,0.1908,0.1908,0.1616,0.1344,0.1142,0.0872,0.0467,-0.0114,-0.0479,-0.0899,-0.1446,-0.2491,-0.3037,-0.2911,-0.3352,-0.3709,-0.3943,-0.4422,-0.4851,-0.5229,-0.5738,-0.6094,-0.6285,-0.6285,-0.6613,-0.7195,-0.7629,-0.8184,-0.885,-0.926,-0.9484,0.0,-0.9588,-0.9644,-0.9721,-0.964,-0.9769,-1.0006,-1.0219,-1.045,-1.0731,-1.1112,-1.1594,-1.2051,-1.219,-1.2613,-1.3065,-1.3022,-1.307,-1.3113,-1.3012,-1.3291,-1.3663,-1.3881,-1.4292,-1.4817,-1.5316,-1.5518,-1.5684,-1.601,-1.6179,-1.6287,-1.6287,-1.6408,-1.6494,-1.6494,-1.6494,-1.6543,-1.6686,-1.6708,-1.675,-1.6871,-1.7544,-1.8008,-1.8008,-1.8662,-1.9101,-1.9101,-1.9101,-1.9101,-1.9101,-1.9101,-1.9101,-1.9101,-1.9101,-1.9101,-1.9101,-1.9101,-1.9101,-1.9101,-1.9101,-1.9101,-1.9101,-1.9101,-1.9101,0.7756,0.7053,0.6263,0.6529,0.6587,0.6619,0.6761,0.6529,0.624,0.6122,0.5709,0.5247,0.4771,0.4311,0.3845,0.3373,0.2682,0.2183,0.2183,0.2016,0.1705,0.1267,0.1208,0.0854,-0.0029,-0.1113,-0.1715,-0.1523,-0.2491,-0.3037,-0.2911,-0.3352,-0.3602,-0.3602,-0.3797,-0.4144,-0.4598,-0.4881,-0.5343,-0.6001,-0.6001,-0.6251,-0.6735,-0.7198,-0.7773,-0.8424,-0.8824,-0.9234,0.0,-0.9588,-0.9751,-0.9973,-0.9695,-1.0138,-1.082,-1.0231,-1.0561,-1.1297,-1.1297,-1.1548,-1.1952,-1.22,-1.2623,-1.2972,-1.2847,-1.2987,-1.3189,-1.3189,-1.3189,-1.3362,-1.403,-1.4199,-1.4362,-1.4966,-1.5108,-1.5108,-1.5108,-1.5473,-1.581,-1.581,-1.6179,-1.6494,-1.6494,-1.6494,-1.6665,-1.7115,-1.7199,-1.7337,-1.7734,-1.8206,-1.8488,-1.8488,-1.886,-1.9101,-1.9101,-1.9101,-1.9101,-1.9101,-1.9101,-1.9101,-1.9101,-1.9101,-1.9101,-1.9101,-1.9101,-1.9101,-1.9101,-1.9101,-1.9101,-1.9101,-1.9101,-1.9101,0.7679,0.7468,0.7214,0.6547,0.6645,0.674,0.6237,0.6024,0.5885,0.5605,0.5365,0.522,0.5307,0.46,0.4041,0.4168,0.3325,0.0,0.2418,0.2354,0.2141,0.174,0.1068,0.0541,0.0256,-0.062,-0.1144,-0.104,-0.1638,-0.2119,-0.2331,-0.2833,-0.3238,-0.3466,-0.3832,-0.4182,-0.4471,-0.4862,-0.531,-0.5787,-0.5787,-0.604,-0.6501,-0.693,-0.741,-0.7963,-0.8689,-0.9185,-0.9488,-0.9755,-1.0051,-1.0338,-1.0257,-1.0385,-1.0594,-1.0415,-1.0518,-1.0744,-1.0744,-1.1074,-1.1523,-1.1698,-1.2092,-1.2535,-1.2569,-1.2944,-1.3338,-1.3338,-1.3338,-1.3415,-1.3705,-1.38,-1.3918,-1.4489,-1.4628,-1.472,-1.504,-1.5467,-1.581,-1.581,-1.6179,-1.6494,-1.6494,-1.6494,-1.6543,-1.6708,-1.6729,-1.6772,-1.6892,-1.7324,-1.7618,-1.7618,-1.7975,-1.8449,-1.9045,-1.9101,-1.9101,-1.9101,-1.9101,-1.9101,-1.9101,-1.9101,-1.9101,-1.9101,-1.9101,-1.9101,-1.9101,-1.9183,-1.9258,-1.9302,-1.9019,-1.9045,0.731,0.7295,0.7239,0.6397,0.6544,0.6694,0.5962,0.5802,0.5733,0.5464,0.5402,0.5471,0.5673,0.4954,0.4436,0.4674,0.3653,0.2773,0.2623,0.2422,0.2195,0.1944,0.1041,0.0426,0.0393,-0.0388,-0.086,-0.081,-0.1245,-0.1609,-0.1818,-0.2521,-0.2988,-0.3214,-0.361,-0.3985,-0.4294,-0.4707,-0.5101,-0.548,-0.5653,-0.5921,-0.6258,-0.6601,-0.7059,-0.7614,-0.8291,-0.8837,0.0,-0.9677,-1.0098,-1.0496,-1.0496,-1.062,-1.0799,-1.0697,-1.0645,-1.0671,-1.0773,-1.0943,-1.1171,-1.1347,-1.1748,-1.22,-1.2431,-1.2847,-1.329,-1.3438,-1.3491,-1.3491,-1.3592,-1.3592,-1.3739,-1.428,-1.4402,-1.4541,-1.4994,-1.5467,-1.581,-1.581,-1.6179,-1.6494,-1.6494,-1.6494,-1.6494,-1.6494,-1.6494,-1.6494,-1.6494,-1.6899,-1.7199,-1.7199,-1.7557,-1.8008,-1.8565,-1.8765,-1.8943,-1.9082,-1.9101,-1.9101,-1.9101,-1.9101,-1.912,-1.9165,-1.9183,-1.9183,-1.9202,-1.9302,-1.9358,-1.9402,-1.9139,-1.9157,0.0,0.6683,0.6627,0.6147,0.6364,0.6545,0.5953,0.5823,0.0,0.5618,0.5771,0.5887,0.5862,0.5317,0.4903,0.4886,0.3672,0.2758,0.2814,0.2294,0.1909,0.1905,0.1056,0.0464,0.042,-0.038,-0.0865,-0.0806,-0.1215,-0.1427,-0.1392,-0.2322,-0.2832,-0.2832,-0.3216,-0.3638,-0.4091,-0.4419,-0.4748,-0.5101,-0.555,-0.5831,-0.6007,-0.628,-0.6742,0.0,-0.774,-0.8279,0.0,-0.9409,-0.9936,-1.0496,-1.0522,-1.0845,-1.1276,-1.1023,-1.0922,-1.0972,-1.1221,-1.115,-1.0972,-1.1221,-1.1548,-1.1952,-1.2382,-1.273,-1.3045,-1.3443,-1.3568,-1.3568,-1.3592,-1.3592,-1.3734,-1.421,-1.4332,-1.4466,-1.4903,-1.5361,-1.57,-1.5744,-1.6135,-1.6451,-1.6494,-1.6494,-1.6494,-1.6494,-1.6494,-1.6494,-1.6494,-1.6877,-1.7157,-1.7157,-1.7468,-1.7727,-1.7754,-1.8187,-1.8604,-1.8981,-1.9,-1.9,-1.9,-1.9019,-1.9082,-1.9202,-1.9228,-1.9239,-1.9321,-1.9302,-1.9302,-1.9339,-1.9302,-1.9302,0.612,0.0,0.6953,0.6441,0.6503,0.656,0.0,0.5953,0.5877,0.565,0.577,0.5801,0.5431,0.5104,0.4858,0.47,0.383,0.3115,0.297,0.2357,0.1894,0.1822,0.0993,0.0448,0.046,-0.0348,-0.0882,-0.0803,-0.0912,-0.1101,-0.1392,-0.1967,-0.2277,-0.2277,-0.3106,-0.3728,-0.4091,-0.4176,-0.4508,-0.5101,-0.521,-0.5523,-0.6007,-0.628,-0.6569,-0.6902,-0.748,0.0,-0.858,-0.9204,-0.9829,-1.0458,-1.0718,-1.0998,-1.1297,-1.1226,-1.12,-1.1221,-1.1272,-1.1247,-1.1221,-1.1272,-1.1347,-1.1573,-1.2278,-1.2549,-1.2681,-1.305,-1.3141,-1.3213,-1.3515,-1.3592,-1.3639,-1.3758,-1.3781,-1.3829,-1.3918,-1.4362,-1.4852,-1.5187,-1.5645,-1.6086,-1.6451,-1.6494,-1.6494,-1.6494,-1.6494,-1.6494,-1.6494,-1.6607,-1.6665,-1.6665,-1.6744,-1.6955,-1.7317,-1.7713,-1.7988,-1.8088,-1.8108,-1.8108,-1.8108,-1.8206,-1.8266,-1.8305,-1.8411,-1.8489,-1.8565,-1.8246,-1.8312,-1.8707,-1.8351,-1.8371,0.5943,0.643,0.675,0.6185,0.6279,0.6361,0.5812,0.5689,0.5614,0.537,0.5556,0.568,0.5437,0.5026,0.4709,0.4738,0.3786,0.2922,0.2678,0.2207,0.1889,0.1804,0.115,0.0664,0.0507,-0.0131,-0.0609,-0.0792,-0.0775,-0.0851,-0.1078,-0.1522,-0.1789,-0.1789,-0.2747,-0.3369,-0.3537,-0.3981,-0.4334,-0.4639,-0.5077,-0.5381,-0.5595,-0.609,-0.6428,-0.6687,-0.7238,0.0,-0.8348,-0.889,-0.9562,-1.0237,-1.0553,-1.0943,-1.1297,-1.1297,-1.1297,-1.1297,-1.1297,-1.1297,-1.1297,-1.1297,-1.1297,-1.1423,-1.2051,-1.2224,-1.2368,-1.3079,-1.329,-1.3343,-1.3539,-1.3592,-1.3663,-1.3905,-1.3975,-1.4017,-1.4246,-1.453,-1.4789,-1.504,-1.53,-1.5562,-1.5812,-1.6048,-1.6179,-1.6179,-1.6358,-1.6494,-1.6494,-1.6494,-1.6494,-1.6494,-1.6494,-1.6601,-1.6856,-1.713,-1.7434,-1.7774,-1.8028,-1.8167,-1.8167,-1.8305,-1.8285,-1.8127,-1.8267,-1.8365,-1.839,-1.8167,-1.8226,-1.8488,-1.8246,-1.8266,0.6034,0.6333,0.6344,0.5753,0.5946,0.6108,0.5539,0.0,0.0,0.525,0.5481,0.5656,0.5505,0.5015,0.4653,0.4734,0.3658,0.2632,0.2212,0.198,0.185,0.1802,0.1368,0.0961,0.0636,0.0153,-0.0271,-0.0688,-0.0707,-0.069,-0.069,-0.1155,-0.1375,-0.1287,-0.2248,-0.2788,-0.2788,-0.3719,-0.4162,-0.4112,-0.4901,-0.5185,-0.5041,-0.5759,-0.6252,-0.6541,0.0,0.0,-0.8162,-0.8547,-0.9138,-0.9862,-1.0212,-1.068,-1.1171,-1.1276,-1.1297,-1.1297,-1.1297,-1.1297,-1.1297,-1.1297,-1.1297,-1.1372,-1.1773,-1.1902,-1.2116,-1.3204,-1.352,-1.3515,-1.3592,-1.3592,-1.371,-1.4163,-1.4285,-1.4396,-1.4783,-1.4875,-1.4903,-1.4971,-1.4994,-1.5017,-1.5085,-1.5428,-1.5678,-1.5678,-1.6026,-1.63,-1.63,-1.63,-1.6321,-1.6408,-1.6429,-1.6451,-1.6543,-1.6669,-1.7002,-1.7618,-1.8088,-1.8351,-1.8371,-1.8468,-1.841,-1.8127,-1.8246,-1.8305,-1.8305,-1.8305,-1.8305,-1.8305,-1.8305,-1.8305,0.6183,0.6254,0.6292,0.5805,0.5876,0.6019,0.5927,0.5903,0.5955,0.0,0.6188,0.5936,0.5081,0.5064,0.4952,0.4241,0.3626,0.2904,0.1991,0.1833,0.1807,0.1798,0.134,0.1006,0.0995,0.0295,-0.0213,-0.0296,-0.0545,-0.0702,-0.0702,-0.1146,-0.121,-0.0829,-0.1734,-0.2232,-0.2232,-0.3217,-0.3838,-0.4112,-0.4244,-0.4441,-0.469,-0.5319,-0.5817,-0.6217,0.0,-0.731,-0.7806,-0.8159,-0.8577,-0.9059,-0.9784,-1.0259,-1.0604,-1.1116,-1.1297,-1.1297,-1.1297,-1.1297,-1.1297,-1.1297,-1.1297,-1.1372,-1.1773,-1.1902,-1.2071,-1.2876,-1.3088,-1.316,-1.3515,-1.3592,-1.3615,-1.3687,-1.371,-1.3734,-1.38,-1.3829,-1.3965,-1.4419,-1.4512,-1.4628,-1.504,-1.5147,-1.5215,-1.5215,-1.526,-1.5305,-1.5305,-1.5305,-1.5507,-1.601,-1.6082,-1.6278,-1.6791,-1.6861,-1.6918,-1.7038,-1.7122,-1.7199,-1.724,-1.7275,-1.7317,-1.7379,-1.7399,-1.7399,-1.7399,-1.7399,-1.7399,-1.7399,-1.7399,-1.7399,0.5594,0.5706,0.5708,0.5352,0.5528,0.577,0.5743,0.5729,0.5712,0.5695,0.5766,0.5688,0.5313,0.4785,0.4117,0.3175,0.2991,0.274,0.2101,0.188,0.1785,0.1751,0.1534,0.1303,0.1058,0.0673,0.0351,0.0135,-0.0043,-0.0232,-0.0358,-0.0616,-0.0738,-0.0694,-0.137,-0.1726,-0.1721,-0.2724,-0.3415,-0.3836,-0.4094,-0.4246,-0.4355,-0.489,-0.5431,-0.6026,0.0,-0.7022,-0.7657,-0.7944,-0.8342,-0.8827,-0.9216,-0.9792,-1.0429,-1.0706,-1.0812,-1.0757,-1.0468,-1.0391,-1.0442,-1.0731,-1.0858,-1.1065,-1.1798,-1.2051,-1.222,-1.2779,-1.2958,-1.3088,-1.3491,-1.3592,-1.3592,-1.3592,-1.3592,-1.3592,-1.3592,-1.3592,-1.3663,-1.3923,-1.3975,-1.4041,-1.4246,-1.453,-1.472,-1.472,-1.5057,-1.5311,-1.5311,-1.5401,-1.5586,-1.5869,-1.5897,-1.6001,-1.629,-1.6371,-1.6693,-1.7296,-1.7337,-1.7358,-1.7434,-1.7434,-1.7358,-1.7199,-1.7199,-1.7199,-1.7199,-1.7199,-1.7199,-1.7199,-1.7199,-1.7199,0.5109,0.5231,0.5233,0.5054,0.5222,0.5426,0.5392,0.5351,0.5319,0.5286,0.5369,0.5437,0.5485,0.4575,0.3545,0.2701,0.2714,0.266,0.2185,0.1922,0.1759,0.1712,0.1681,0.15,0.1149,0.1038,0.0857,0.0538,0.0384,0.0187,-0.0083,-0.0159,-0.0355,-0.0663,-0.1045,-0.1286,-0.1388,-0.2277,-0.2947,-0.3442,-0.3904,-0.4076,-0.4007,-0.4447,-0.4995,-0.5634,-0.6092,-0.6723,-0.7461,-0.7761,-0.8159,-0.8596,-0.8748,-0.9376,-1.0216,-1.0216,-1.0241,-1.019,-0.9795,-0.9666,-0.9766,-1.016,-1.037,-1.0596,-1.138,-1.1794,-1.2047,-1.2446,-1.2701,-1.2929,-1.3329,-1.3435,-1.3454,-1.3568,-1.3539,-1.3568,-1.3758,-1.3687,-1.3615,-1.3692,-1.3692,-1.3692,-1.3692,-1.4093,-1.4402,-1.4402,-1.4875,-1.526,-1.535,-1.5485,-1.5669,-1.5891,-1.5913,-1.5979,-1.6116,-1.6207,-1.6652,-1.7537,-1.7509,-1.7489,-1.7544,-1.7468,-1.7331,-1.7088,-1.701,-1.7004,-1.7088,-1.7004,-1.6968,-1.6968,-1.6968,-1.6968,0.5208,0.5202,0.523,0.533,0.5166,0.4959,0.5015,0.4931,0.5031,0.571,0.5644,0.5418,0.5178,0.4592,0.4058,0.3738,0.343,0.2931,0.1964,0.1748,0.1711,0.1707,0.1581,0.151,0.1477,0.1127,0.0898,0.0873,0.0518,0.0178,-0.0079,-0.017,-0.0319,-0.0591,-0.07,-0.0967,-0.1388,-0.19,-0.2433,-0.2966,-0.3418,-0.3646,-0.3644,-0.3985,-0.4388,-0.4847,-0.585,-0.6547,-0.6999,-0.7629,-0.7928,-0.8032,-0.857,-0.9141,-0.9666,-0.9666,-0.974,-0.9843,-0.9788,-0.9865,-0.9991,-1.0016,-1.0042,-1.0068,-1.0119,-1.0541,-1.107,-1.141,-1.1909,-1.2446,-1.2852,-1.2949,-1.307,-1.3501,-1.342,-1.3433,-1.4181,-1.3947,-1.3663,-1.3921,-1.3968,-1.3968,-1.3968,-1.4221,-1.4402,-1.4402,-1.4448,-1.4599,-1.4903,-1.4954,-1.5305,-1.616,-1.6253,-1.6497,-1.7046,-1.7115,-1.7157,-1.724,-1.6934,-1.6774,-1.678,-1.6479,-1.6442,-1.6738,-1.642,-1.642,-1.6738,-1.6414,-1.6259,-1.6259,-1.6259,-1.6259,0.6484,0.5789,0.5075,0.6831,0.575,0.4413,0.4885,0.5052,0.5147,0.5308,0.527,0.5092,0.4741,0.4587,0.4211,0.3264,0.3018,0.264,0.1854,0.1721,0.1679,0.1577,0.1528,0.1486,0.1448,0.1311,0.1196,0.1142,0.1001,0.0779,0.0471,0.0247,-0.0038,-0.0338,-0.0587,-0.0785,-0.097,-0.1436,-0.1922,-0.2409,-0.3219,-0.3602,-0.3602,-0.3731,-0.4023,-0.4478,-0.5157,-0.5949,-0.6803,-0.7314,-0.7536,-0.7563,-0.8045,-0.8636,-0.9237,-0.9237,-0.9309,-0.9383,-0.9044,-0.8965,-0.9066,-0.9383,-0.9562,-0.9692,-1.0012,-1.035,-1.0613,-1.0728,-1.0935,-1.1388,-1.2598,-1.2905,-1.2949,-1.3109,-1.3084,-1.3104,-1.3392,-1.3248,-1.3171,-1.3673,-1.3692,-1.3763,-1.4174,-1.4332,-1.4402,-1.4402,-1.4518,-1.4633,-1.4766,-1.492,-1.5164,-1.5518,-1.5557,-1.5651,-1.5866,-1.6086,-1.6201,-1.6201,-1.6716,-1.7004,-1.7004,-1.6884,-1.6884,-1.7004,-1.6884,-1.6884,-1.7004,-1.7004,-1.7004,-1.7004,-1.7004,-1.6892,0.6194,0.6067,0.5721,0.678,0.629,0.5398,0.4868,0.4832,0.4912,0.496,0.5025,0.5019,0.482,0.4774,0.446,0.3483,0.3184,0.2841,0.2297,0.214,0.1994,0.1749,0.1695,0.1617,0.1415,0.1411,0.1371,0.1332,0.1316,0.1168,0.0844,0.0594,0.0307,0.0,-0.0326,-0.053,-0.0538,-0.1105,-0.1567,-0.19,-0.2725,-0.3287,-0.3602,-0.3442,-0.3639,-0.4118,-0.464,-0.5346,-0.6144,-0.677,-0.7033,-0.7098,-0.7377,-0.7922,-0.853,-0.853,-0.8742,-0.8945,-0.8577,-0.8504,-0.8586,-0.8956,-0.9136,-0.9286,-0.964,-0.9939,-1.0141,-1.0141,-1.0265,-1.0669,-1.1801,-1.224,-1.2471,-1.2783,-1.2822,-1.2852,-1.306,-1.292,-1.289,-1.3377,-1.3391,-1.3481,-1.3941,-1.4087,-1.414,-1.414,-1.4402,-1.4628,-1.4743,-1.5057,-1.5311,-1.5424,-1.5452,-1.5452,-1.5452,-1.5669,-1.5796,-1.5796,-1.6503,-1.6871,-1.6772,-1.6665,-1.6665,-1.6814,-1.6723,-1.6723,-1.6814,-1.6858,-1.6879,-1.6879,-1.6879,-1.6752,0.3984,0.5939,0.7382,0.4871,0.6701,0.8273,0.5006,0.4128,0.4189,0.4779,0.5115,0.5352,0.5567,0.5203,0.484,0.4725,0.4194,0.3683,0.3344,0.3063,0.2726,0.2255,0.2152,0.1922,0.1455,0.1411,0.141,0.141,0.1345,0.1185,0.0923,0.0828,0.0668,0.0419,0.0084,-0.0129,-0.0202,-0.0986,-0.1389,-0.1411,-0.1877,-0.2614,-0.358,-0.3102,-0.3148,-0.3633,-0.4442,-0.4796,-0.4896,-0.5964,-0.6476,-0.6615,-0.6588,-0.6972,-0.7491,-0.7491,-0.7966,-0.8596,-0.86,-0.8689,-0.8781,-0.8808,-0.8808,-0.8808,-0.8808,-0.9159,-0.9588,-0.9588,-0.9965,-1.0393,-1.0389,-1.0846,-1.1539,-1.2545,-1.2618,-1.2691,-1.3401,-1.3205,-1.2944,-1.3151,-1.3189,-1.3189,-1.3189,-1.3415,-1.3592,-1.3592,-1.4046,-1.4512,-1.4835,-1.5294,-1.573,-1.6128,-1.6178,-1.6178,-1.6178,-1.6178,-1.6178,-1.6178,-1.6244,-1.6129,-1.5814,-1.5486,-1.5525,-1.5994,-1.5686,-1.5663,-1.5994,-1.5663,-1.5513,-1.5513,-1.5513,-1.5513,0.8344,0.853,0.873,1.2614,1.2849,1.1364,0.8452,0.6307,0.496,0.515,0.5171,0.5211,0.535,0.5002,0.4625,0.4379,0.3913,0.3462,0.308,0.296,0.2839,0.2714,0.2675,0.261,0.2477,0.2121,0.1876,0.1827,0.1498,0.1231,0.1054,0.0846,0.0698,0.0615,0.034,0.0063,-0.0205,-0.0436,-0.083,-0.1411,-0.1387,-0.1811,-0.2546,-0.2833,-0.3056,-0.3222,-0.3984,-0.4612,-0.5127,-0.5681,-0.6259,-0.6745,-0.6236,-0.645,-0.7074,-0.7074,-0.7265,-0.7589,-0.7984,-0.8143,-0.8229,-0.8669,-0.8808,-0.8808,-0.8808,-0.8906,-0.9035,-0.9035,-0.9159,-0.9361,-0.974,-0.9972,-1.0277,-1.0944,-1.1074,-1.1078,-1.1291,-1.1497,-1.1789,-1.2272,-1.2589,-1.2938,-1.3391,-1.3544,-1.3592,-1.3592,-1.3739,-1.3871,-1.3959,-1.41,-1.4235,-1.4351,-1.438,-1.438,-1.438,-1.438,-1.4403,-1.4507,-1.4536,-1.5028,-1.6107,-1.6148,-1.6213,-1.6343,-1.6256,-1.6256,-1.6343,-1.6395,-1.6411,-1.6411,-1.6411,-1.6117,0.8486,0.954,1.0551,1.479,1.5753,1.464,1.0735,0.7343,0.4972,0.4849,0.4876,0.4873,0.4822,0.4632,0.4432,0.4273,0.4142,0.3912,0.3472,0.3503,0.3434,0.3064,0.3012,0.2946,0.2768,0.2397,0.209,0.1902,0.1538,0.1254,0.1063,0.0915,0.0824,0.0863,0.0619,0.0374,0.0121,0.0022,-0.0404,-0.1119,-0.1007,-0.1253,-0.1834,-0.2388,-0.2835,-0.3197,-0.3687,-0.4258,-0.4849,-0.505,-0.5579,-0.6211,-0.5778,-0.6021,-0.6613,-0.6613,-0.6834,-0.7136,-0.7479,-0.7584,-0.7664,-0.8259,-0.8474,-0.8527,-0.8613,-0.8583,-0.8501,-0.8321,-0.8215,-0.8209,-0.8511,-0.8613,-0.8922,-1.0108,-1.0389,-1.0389,-1.0389,-1.0609,-1.0918,-1.1291,-1.1562,-1.1918,-1.2589,-1.2691,-1.2764,-1.2963,-1.3151,-1.3367,-1.3563,-1.3592,-1.3592,-1.3592,-1.3592,-1.3592,-1.3592,-1.3644,-1.3716,-1.3792,-1.391,-1.4398,-1.5421,-1.5545,-1.5589,-1.564,-1.564,-1.564,-1.564,-1.5754,-1.5814,-1.5814,-1.5814,-1.5549,0.6383,0.9725,1.2662,1.3912,1.6729,1.785,1.2725,0.8191,0.4911,0.4358,0.4432,0.4494,0.4246,0.4253,0.4312,0.4362,0.4679,0.4774,0.4363,0.4467,0.4288,0.3434,0.3281,0.3103,0.2661,0.2472,0.2216,0.1835,0.1591,0.1333,0.1045,0.1022,0.1039,0.1092,0.092,0.0755,0.0611,0.0374,-0.0022,-0.0582,-0.0693,-0.0962,-0.1389,-0.19,-0.2591,-0.3396,-0.3502,-0.382,-0.4239,-0.4304,-0.4676,-0.5222,-0.5319,-0.5647,-0.6073,-0.6073,-0.6401,-0.6893,-0.6945,-0.7001,-0.7136,-0.7688,-0.7975,-0.8104,-0.8309,-0.8223,-0.8001,-0.7646,-0.7354,-0.7163,-0.7163,-0.7163,-0.7685,-0.9688,-1.0181,-1.0185,-1.0265,-1.0291,-1.0338,-1.0338,-1.0389,-1.058,-1.1141,-1.1247,-1.1427,-1.1927,-1.2344,-1.2793,-1.3295,-1.3348,-1.3348,-1.3348,-1.3348,-1.3372,-1.342,-1.3496,-1.3573,-1.3621,-1.3823,-1.3931,-1.3931,-1.41,-1.424,-1.4299,-1.4299,-1.4299,-1.4299,-1.4299,-1.4299,-1.4299,-1.4299,-1.4281,1.0269,1.2219,1.4326,2.0456,2.0933,1.9551,1.8287,1.3128,0.7991,0.5797,0.486,0.454,0.4892,0.465,0.4528,0.4948,0.4988,0.4988,0.5052,0.4795,0.453,0.4331,0.3965,0.3704,0.3614,0.3154,0.28,0.266,0.2161,0.1688,0.1257,0.1242,0.1177,0.1018,0.1032,0.0894,0.061,0.0592,0.0538,0.0,-0.056,-0.1074,-0.1187,-0.1922,-0.2613,-0.3238,-0.3281,-0.3423,-0.3711,-0.4355,-0.463,-0.4727,-0.5435,-0.5405,-0.5014,-0.5014,-0.5099,-0.5287,-0.5712,-0.6229,-0.6804,-0.7405,-0.7747,-0.7951,-0.7981,-0.7981,-0.7925,-0.7848,-0.7768,-0.7741,-0.7741,-0.7741,-0.7848,-0.8316,-0.8442,-0.8606,-0.9175,-0.954,-0.9814,-0.9917,-1.0281,-1.06,-1.0727,-1.0888,-1.1023,-1.115,-1.1242,-1.136,-1.146,-1.1485,-1.1485,-1.1485,-1.1485,-1.166,-1.2062,-1.176,-1.176,-1.2289,-1.1983,-1.1796,-1.1837,-1.3408,-1.4299,-1.4299,-1.4299,-1.4299,-1.4299,-1.4299,-1.4299,-1.4299,-1.4299,-1.4095,0.9082,1.1772,1.5184,2.3059,2.3837,2.2166,2.0216,1.5914,1.1735,0.9594,0.6609,0.4437,0.4558,0.4408,0.434,0.4632,0.4944,0.5113,0.4983,0.507,0.5048,0.4811,0.4574,0.4338,0.4122,0.3659,0.3203,0.2796,0.2321,0.1869,0.1463,0.1478,0.1364,0.1105,0.12,0.1067,0.0693,0.0766,0.0615,0.0269,-0.0358,-0.0783,-0.103,-0.2034,-0.2437,-0.2368,-0.2839,-0.3157,-0.3353,-0.3827,-0.4145,-0.4348,-0.4798,-0.4801,-0.4518,-0.4518,-0.4538,-0.4631,-0.4923,-0.5441,-0.607,-0.6672,-0.7015,-0.7197,-0.7254,-0.7036,-0.6706,-0.6519,-0.6359,-0.6276,-0.6276,-0.6276,-0.6414,-0.6958,-0.7498,-0.8007,-0.8388,-0.8643,-0.8876,-0.9168,-0.9454,-0.9792,-1.0233,-1.0629,-1.0896,-1.0896,-1.0896,-1.0896,-1.0896,-1.0896,-1.0896,-1.0896,-1.0896,-1.1019,-1.1297,-1.1124,-1.115,-1.1498,-1.1288,-1.1162,-1.1204,-1.2247,-1.2827,-1.2827,-1.2982,-1.3064,-1.3064,-1.3184,-1.3261,-1.3237,-1.3112,-1.2924,0.744,1.1911,1.7107,2.397,2.5488,2.4422,2.1065,1.7885,1.5272,1.4015,0.9116,0.515,0.5363,0.544,0.5511,0.5609,0.6185,0.6347,0.5546,0.5903,0.5923,0.5098,0.492,0.4727,0.434,0.3951,0.3432,0.2775,0.2372,0.2013,0.1676,0.171,0.1601,0.1296,0.1404,0.1267,0.0883,0.0919,0.0593,-0.0088,-0.0199,-0.0444,-0.085,-0.1923,-0.2014,-0.1366,-0.2193,-0.2622,-0.2773,-0.3123,-0.3482,-0.386,-0.4085,-0.4109,-0.4048,-0.4154,-0.4195,-0.4239,-0.4351,-0.4761,-0.5306,-0.5825,-0.6095,-0.6224,-0.634,-0.5957,-0.5408,-0.506,-0.4816,-0.4627,-0.4627,-0.4627,-0.4871,-0.5825,-0.6767,-0.7548,-0.7877,-0.7928,-0.8034,-0.8444,-0.8521,-0.8807,-0.9684,-1.0186,-1.048,-1.0561,-1.0506,-1.048,-1.048,-1.048,-1.048,-1.048,-1.048,-1.0502,-1.0604,-1.0629,-1.068,-1.0778,-1.0744,-1.0715,-1.0715,-1.074,-1.074,-1.074,-1.1385,-1.1723,-1.1778,-1.1997,-1.2101,-1.2101,-1.1769,-1.1615,1.1335,1.7885,2.3388,2.517,2.5029,2.4301,2.3709,2.0354,1.7317,1.7176,1.2143,0.8537,1.0994,1.1217,1.1183,1.1651,1.1823,1.1177,0.9127,0.8588,0.7553,0.5264,0.4639,0.436,0.4296,0.373,0.3318,0.3222,0.2685,0.221,0.1878,0.1929,0.1853,0.1636,0.1702,0.1545,0.1154,0.1162,0.0873,0.032,-0.0146,-0.0411,-0.0492,-0.1051,-0.1186,-0.0985,-0.1119,-0.1234,-0.1447,-0.2588,-0.2941,-0.2921,-0.401,-0.3823,-0.2968,-0.3496,-0.3442,-0.3182,-0.3713,-0.4348,-0.4979,-0.5036,-0.5252,-0.5441,-0.5471,-0.5414,-0.5304,-0.5252,-0.5224,-0.5199,-0.5199,-0.5199,-0.5224,-0.5389,-0.5523,-0.612,-0.7809,-0.8017,-0.7981,-0.8215,-0.8245,-0.8427,-0.9031,-0.8923,-0.8844,-0.9188,-0.8949,-0.8738,-0.8738,-0.8738,-0.8738,-0.8738,-0.8738,-0.8912,-0.9392,-0.9011,-0.8961,-0.9414,-0.904,-0.8784,-0.8784,-0.8883,-0.8935,-0.8935,-1.0766,-1.1798,-1.2051,-1.2076,-1.2101,-1.2101,-1.1538,-1.1275,1.2177,1.6375,1.9846,2.4454,2.5308,2.4882,2.4332,2.1208,1.8712,1.9722,1.6186,1.2831,1.2636,1.2486,1.2457,1.2686,1.2831,1.2551,1.1553,1.1321,1.0863,0.9786,0.8215,0.7108,0.6844,0.5157,0.3867,0.3345,0.312,0.2831,0.2433,0.243,0.2322,0.2045,0.1911,0.1676,0.1313,0.1313,0.1181,0.0901,0.0371,0.0149,0.0195,-0.02,-0.0471,-0.0649,-0.0985,-0.1164,-0.1255,-0.1867,-0.2041,-0.1978,-0.255,-0.2487,-0.2105,-0.2375,-0.2395,-0.2369,-0.2968,-0.3622,-0.4228,-0.4568,-0.4763,-0.4844,-0.4844,-0.4369,-0.3869,-0.3926,-0.3953,-0.3953,-0.3953,-0.4205,-0.4539,-0.4789,-0.4844,-0.5169,-0.634,-0.6497,-0.6632,-0.7286,-0.7913,-0.8374,-0.8613,-0.853,-0.8451,-0.8636,-0.8504,-0.8398,-0.8398,-0.8398,-0.8398,-0.8398,-0.8398,-0.8497,-0.8725,-0.855,-0.8497,-0.8725,-0.8521,-0.8421,-0.8501,-0.8577,-0.8705,-0.8919,-0.9821,-1.0366,-1.049,-1.0639,-1.069,-1.069,-1.0269,-0.9898,1.242,1.4798,1.7014,2.3642,2.5285,2.5089,2.439,2.2033,2.0302,2.14,1.9566,1.7106,1.4936,1.4515,1.4489,1.4456,1.4576,1.4443,1.3819,1.3866,1.3752,1.3194,1.1444,1.0143,0.9796,0.7799,0.6143,0.5219,0.5144,0.4668,0.3626,0.3514,0.3156,0.2421,0.216,0.1846,0.1476,0.1318,0.1189,0.1096,0.0699,0.0553,0.0643,0.0412,0.0132,-0.0176,-0.0736,-0.0986,-0.1031,-0.121,-0.1276,-0.1276,-0.1366,-0.1401,-0.1433,-0.1546,-0.161,-0.1707,-0.2269,-0.2767,-0.3229,-0.368,-0.3821,-0.3821,-0.385,-0.3238,-0.2542,-0.2684,-0.2711,-0.2711,-0.2711,-0.3045,-0.349,-0.3823,-0.3907,-0.4153,-0.4976,-0.5142,-0.5328,-0.5914,-0.6695,-0.7261,-0.7309,-0.735,-0.7436,-0.7593,-0.7658,-0.7696,-0.7747,-0.7747,-0.7747,-0.7747,-0.7747,-0.772,-0.7696,-0.7694,-0.7667,-0.7608,-0.7667,-0.772,-0.7821,-0.7901,-0.8143,-0.8593,-0.8484,-0.8725,-0.9312,-0.9514,-0.9588,-0.9584,-0.9122,-0.8692,1.2898,1.615,1.9442,2.3456,2.4407,2.4348,2.4309,2.3466,2.2513,2.183,2.1451,2.0953,1.9977,1.9747,1.9671,1.9545,1.9482,1.8637,1.6347,1.6041,1.5195,1.2908,1.2521,1.2424,1.2397,1.1874,1.1165,1.0295,0.9819,0.842,0.5785,0.5464,0.4539,0.2732,0.2475,0.2145,0.1683,0.1113,0.0729,0.0549,0.0514,0.0509,0.0513,0.0559,0.0571,0.0529,0.011,-0.0135,-0.0292,-0.0739,-0.0917,-0.0962,-0.1276,-0.1217,-0.1,-0.1432,-0.1403,-0.1198,-0.1677,-0.1878,-0.1901,-0.1929,-0.1929,-0.1957,-0.2097,-0.2098,-0.207,-0.2211,-0.2238,-0.2238,-0.2238,-0.2267,-0.2295,-0.2323,-0.2322,-0.2766,-0.4395,-0.4727,-0.4584,-0.4045,-0.4013,-0.4118,-0.4378,-0.4534,-0.4792,-0.5377,-0.5624,-0.5782,-0.5909,-0.5934,-0.5934,-0.5934,-0.5934,-0.5884,-0.5755,-0.5757,-0.567,-0.5471,-0.5641,-0.5757,-0.5755,-0.6,-0.6404,-0.7015,-0.6583,-0.7406,-0.9588,-0.9588,-0.9588,-0.9588,-0.8603,-0.8128,1.043,1.2205,1.4422,1.9838,2.1501,2.2229,2.3859,2.3983,2.3487,2.2635,2.1951,2.1212,2.025,2.0088,2.0074,1.9978,1.9942,1.9626,1.8756,1.86,1.8303,1.7568,1.5999,1.499,1.5029,1.341,1.2091,1.1481,1.0918,1.0043,0.8759,0.8086,0.689,0.5008,0.4419,0.3324,0.1657,0.2915,0.2768,0.1225,0.2516,0.2346,0.0883,0.0651,0.0544,0.0525,0.0338,0.0307,0.0337,-0.0045,-0.0067,0.009,-0.0247,-0.0294,-0.0253,-0.0662,-0.0753,-0.0726,-0.1179,-0.1342,-0.1415,-0.1806,-0.1931,-0.1958,-0.2099,-0.1848,-0.1513,-0.1398,-0.1593,-0.1734,-0.1454,-0.1874,-0.2353,-0.2239,-0.2211,-0.2293,-0.265,-0.323,-0.3616,-0.3391,-0.3663,-0.396,-0.4066,-0.41,-0.4213,-0.4426,-0.4517,-0.4579,-0.463,-0.499,-0.5212,-0.5212,-0.5578,-0.5775,-0.5721,-0.5723,-0.5696,-0.5637,-0.5693,-0.578,-0.5866,-0.5946,-0.6134,-0.645,-0.6376,-0.6885,-0.7981,-0.7685,-0.7551,-0.7551,-0.7257,-0.6958,0.8896,0.9853,1.1177,1.6497,1.8847,2.0415,2.2568,2.3654,2.4046,2.3462,2.2564,2.1613,2.0647,2.0251,2.004,1.9953,1.9926,1.9955,1.9993,1.9938,1.997,2.0145,1.8629,1.7577,1.7606,1.6122,1.489,1.4259,1.362,0.0,1.1465,1.0503,0.9057,0.7068,0.5769,0.4714,0.389,0.4629,0.4589,0.3786,0.4331,0.3786,0.2274,0.2021,0.1919,0.1972,0.2609,0.2019,0.0594,0.0379,0.0426,0.0606,0.0427,0.0337,0.027,0.0046,-0.0071,-0.0144,-0.0384,-0.0474,-0.0535,-0.0913,-0.0133,0.0662,-0.0794,-0.0027,0.1075,-0.0137,-0.0699,-0.0867,-0.0531,-0.0979,-0.1483,-0.1371,-0.1428,-0.1456,-0.1175,-0.1899,-0.2537,-0.2343,-0.2617,-0.2862,-0.2807,-0.2947,-0.3113,-0.3195,-0.3363,-0.3504,-0.3555,-0.3915,-0.4165,-0.4165,-0.4527,-0.4752,-0.4699,-0.4699,-0.467,-0.4586,-0.4642,-0.4728,-0.4813,-0.4866,-0.5083,-0.5464,-0.5359,-0.5603,-0.6199,-0.6374,-0.646,-0.646,-0.6431,-0.6048,0.0,0.0,0.0,1.3721,1.6566,1.8934,2.0377,2.2443,2.4067,2.4151,2.338,2.2446,2.1602,2.0704,2.0024,1.9885,1.982,1.9856,1.9982,1.9938,1.995,2.0079,2.0098,2.0074,2.0009,2.0117,1.9816,1.8907,1.8147,1.6563,1.3862,1.2572,1.0922,0.876,0.6428,0.6235,0.8372,0.6132,0.6047,0.8076,0.5868,0.4768,0.4704,0.4769,0.4833,0.5004,0.6964,0.5083,0.0623,0.061,0.0579,0.0537,0.0651,0.0693,0.0666,0.078,0.0754,0.0687,0.1005,0.1044,0.1006,0.1174,0.3797,0.6141,0.223,0.3598,0.5661,0.1707,0.0502,0.042,0.0557,0.0474,0.0447,0.0691,0.036,0.0,0.0,-0.0721,-0.125,-0.0784,-0.0701,-0.0645,-0.0449,-0.0897,-0.1346,-0.1538,-0.2071,-0.2491,-0.2625,-0.2652,-0.2681,-0.2681,-0.2681,-0.2655,-0.252,-0.2493,-0.2437,-0.2239,-0.2409,-0.2521,-0.2521,-0.2655,-0.3124,-0.3979,-0.3404,-0.3541,-0.4388,-0.5814,-0.6507,-0.6505,-0.6134,-0.5483,0.6456,0.0,0.0,0.0,0.0,0.0,1.7789,1.9638,2.1034,2.2876,2.3002,2.2701,2.2463,2.2163,2.1746,2.113,2.0384,1.9889,1.992,1.9905,1.9928,2.0026,2.0036,2.0041,2.0069,2.0108,2.0044,0.0,1.9036,1.7978,1.6638,1.3784,1.1749,1.0804,0.8827,0.7905,0.8184,0.9208,0.9171,0.8118,0.916,0.8771,0.7132,0.7152,0.7175,0.7223,0.7828,0.7307,0.5907,0.4066,0.246,0.1141,0.0918,0.2243,0.4233,0.3969,0.3866,0.4263,0.7332,0.6877,0.5395,0.8288,0.995,1.0591,0.9324,0.7738,0.6201,0.5404,0.2873,0.1057,0.3924,0.2554,0.1821,0.7506,0.6634,0.4493,0.4493,0.4306,0.3137,-0.0191,-0.0841,-0.0813,-0.0785,-0.0897,-0.1038,-0.1093,-0.1233,-0.1345,-0.14,-0.179,-0.2041,-0.2041,-0.243,-0.2682,-0.2655,-0.2655,-0.2711,-0.2852,-0.2909,-0.305,-0.3276,-0.333,-0.3467,-0.3719,-0.3631,-0.3712,-0.3956,-0.437,-0.4563,-0.4563,-0.4568,-0.4436,0.5673,0.5757,0.6164,0.79,0.0,0.0,1.5518,1.7605,1.9387,2.2343,2.2872,2.2804,2.2806,2.2766,2.2594,2.2116,2.1488,2.0806,2.0088,1.9957,1.9962,2.0,2.0004,1.9999,2.0019,2.004,2.0055,2.0074,1.9368,1.8428,1.7257,1.4855,1.3378,1.3114,1.1092,1.0345,1.1012,1.1409,1.1417,1.1066,1.1432,1.0895,0.9602,0.9578,0.9571,0.9658,1.0679,1.0578,0.9619,0.8495,0.6756,0.4836,0.5006,0.6219,0.7842,0.7611,0.7524,0.7913,1.0705,1.0454,0.9319,1.199,1.3981,1.4998,1.3246,1.2281,1.1475,1.013,0.7883,0.6389,0.8713,0.7589,0.7025,1.1605,1.0797,0.9009,0.9009,0.8881,0.6959,0.0822,-0.0364,-0.0364,-0.0364,-0.0364,-0.0364,-0.0364,-0.0364,-0.0364,-0.0364,-0.0672,-0.0895,-0.0895,-0.1202,-0.0731,0.0952,-0.0722,-0.0367,0.3142,0.1499,0.1199,0.3005,0.3083,0.3016,0.2905,0.0881,-0.1213,-0.3354,-0.3716,-0.3881,-0.3881,-0.3801,-0.3745,0.5672,0.5711,0.5681,0.6413,0.7577,0.0,1.3255,1.5763,1.8289,2.1719,2.2564,2.2732,2.2915,2.2876,2.281,2.2809,2.2759,2.2182,2.0614,2.033,2.0294,2.0288,2.0205,2.0119,2.0064,2.0015,1.9976,1.9928,1.9351,1.8314,1.6721,1.5807,1.5292,1.5203,1.3173,1.3047,1.5088,1.3036,1.3075,1.5171,1.3027,1.2026,1.209,1.2026,1.2034,1.2202,1.4292,1.4049,1.2253,1.321,1.2026,0.9686,1.0557,1.1112,1.1419,1.142,1.1415,1.1611,1.292,1.3143,1.3062,1.4369,1.7167,1.938,1.5903,1.6968,1.8548,1.4662,1.354,1.3614,1.4036,1.3839,1.3731,1.4596,1.4148,1.3526,1.3526,1.3254,1.0784,0.3311,0.1785,0.1706,0.1706,0.1705,0.1559,0.1109,0.1058,0.0902,0.0447,0.0799,0.1061,0.1059,0.147,0.3174,0.676,0.3174,0.4074,1.1864,0.8378,0.7915,1.2123,1.2292,1.2183,1.1946,0.7278,0.2618,-0.1903,-0.3212,-0.3571,-0.3047,-0.2697,-0.2268,0.5137,0.5685,0.6147,0.5937,0.6511,0.0,0.9799,1.2381,1.5195,1.8204,2.0473,2.2333,2.3683,2.3354,2.2881,2.2876,2.2869,2.2705,2.2262,2.2129,2.2088,2.2095,2.1472,2.1041,2.103,2.0398,2.0017,2.0059,1.9398,1.8548,1.7525,1.6641,1.5868,1.5217,1.47,1.4678,1.5184,1.4729,1.4731,1.5189,1.4721,1.45,1.4525,1.45,1.4495,1.4535,1.4999,1.4949,1.4652,1.6179,1.3956,0.9686,1.0557,1.2448,1.4677,1.4677,1.4677,1.5262,1.9324,1.9041,1.7544,2.1597,2.3373,2.377,2.3011,2.1043,1.8281,1.4447,1.3467,1.4294,1.7443,1.593,1.516,2.1426,2.046,1.8113,1.8113,1.8047,1.6613,1.1926,1.0418,0.9891,0.9891,0.9895,0.8813,0.5636,0.5142,0.3999,0.0796,0.3219,0.5208,0.5165,0.8088,1.0347,1.1094,1.0348,1.0473,1.198,1.1208,1.0993,1.165,1.1616,1.1596,1.1603,0.6925,0.4018,0.3011,-0.1015,-0.0997,0.2758,0.2784,0.4855,0.5351,0.568,0.5974,0.6472,0.6403,0.0,0.0,1.0688,1.2161,1.5022,1.7503,1.943,2.0335,2.1139,2.1804,2.2226,2.261,2.2844,2.2798,2.2708,2.2645,2.2594,2.2209,2.1954,2.1954,2.1548,2.1138,2.0781,1.9628,1.877,1.8365,1.7105,1.6215,1.5806,1.5335,1.5123,1.5152,1.5156,1.5149,1.5155,1.5177,1.5181,1.5146,1.5184,1.5181,1.5146,1.5187,1.5202,1.5298,1.658,1.571,1.3716,1.5062,1.6551,1.7939,1.7939,1.7939,1.8348,2.1169,2.1342,2.076,2.3583,2.4706,2.4955,2.4955,2.354,2.1542,1.9619,1.9155,1.9677,2.1641,2.072,2.0281,2.4218,2.3712,2.2343,2.2343,2.2336,2.1767,1.9805,1.9062,1.7494,1.3574,1.2901,1.2233,1.0236,0.9936,0.923,0.7246,0.8748,0.9971,0.9944,1.1788,1.3782,1.5732,1.3754,1.4206,1.8458,1.65,1.6181,1.839,1.8445,1.7327,1.4994,1.2637,1.0265,0.7889,0.5523,0.4382,0.4459,0.6795,0.9167,0.5542,0.5596,0.5671,0.6859,0.651,0.657,0.0,0.0,0.0,1.207,1.4319,1.613,1.6793,1.7936,1.9421,2.1376,2.1572,2.1808,2.2772,2.2804,2.2776,2.2858,2.2867,2.2848,2.2848,2.27,2.2332,2.1679,2.023,1.9334,1.9223,1.7725,1.6726,1.6407,1.5697,1.5257,1.5099,1.5108,1.5108,1.5095,1.5168,1.5156,1.5096,1.5162,1.5143,1.5076,1.5146,1.5183,1.5251,1.6112,1.6824,1.7536,1.9319,2.0112,2.0265,2.026,2.0277,2.0414,2.1205,2.1967,2.2727,2.3523,2.4271,2.4854,2.4825,2.484,2.4863,2.4854,2.4877,2.4905,2.4905,2.4941,2.4987,2.5051,2.5141,2.5224,2.5224,2.5221,2.5218,2.5218,2.5218,2.323,1.6941,1.5851,1.5593,1.4836,1.4713,1.4435,1.3645,1.4237,1.4721,1.4678,1.5412,1.7182,2.0369,1.7122,1.7951,2.5046,2.1895,2.1489,2.5341,2.5501,2.3686,1.9817,1.8929,1.6609,1.2772,1.2828,1.0874,0.7236,1.1085,1.3343,0.4964,0.5375,0.5688,0.5856,0.6251,0.6522,0.6322,0.0,1.0001,0.9361,0.0,1.4283,1.6862,0.0,0.0,2.0748,1.8877,1.8144,2.2307,2.2889,2.312,2.3764,2.3795,2.3753,2.3753,2.3044,2.2557,2.2473,2.1631,2.0781,2.0021,1.9113,1.7944,1.6455,1.6254,1.5823,1.5113,1.5162,1.5156,1.5095,1.5168,1.5159,1.5106,1.5112,1.5072,1.5019,1.5075,1.5111,1.5175,1.5988,1.6406,1.6694,1.8327,1.9442,2.0125,2.0121,2.0198,2.0408,2.1153,2.1927,2.2721,2.3473,2.4171,2.4698,2.4573,2.463,2.4721,2.4713,2.4808,2.4895,2.4895,2.4908,2.4906,2.4922,2.4935,2.4948,2.4948,2.4948,2.4948,2.4948,2.4948,2.4738,2.4079,2.3967,2.278,1.9269,1.8741,1.7435,1.3808,1.6547,1.8764,1.8581,2.1907,2.4311,2.4702,2.429,2.4438,2.5439,2.4988,2.4944,2.5485,2.5501,2.5216,2.4622,2.0593,1.8227,1.7691,1.7704,1.7455,1.7003,1.7542,2.0019,0.5212,0.5431,0.5612,0.6187,0.6221,0.6162,0.6307,0.6998,0.7578,0.7346,0.0,0.0,0.0,0.0,0.0,0.0,1.7163,1.8417,1.8178,2.0848,2.3325,2.4601,0.0,0.0,2.3902,2.357,2.3345,2.3345,2.2607,2.1771,2.09,2.005,1.9037,1.7829,1.678,1.6075,1.5742,1.5304,1.507,1.5044,1.507,1.5071,1.504,1.504,1.5025,1.5003,1.5066,1.5101,1.5129,1.5457,1.5867,1.6403,1.7537,1.8568,1.9463,1.9883,2.0079,2.0164,2.0435,2.103,2.1859,2.3025,2.3938,2.4574,2.4525,2.4541,2.4573,2.4573,2.4621,2.4667,2.4667,2.4736,2.4777,2.4777,2.484,2.4902,2.4902,2.4902,2.4902,2.4902,2.4902,2.4942,2.505,2.5071,2.4501,2.2838,2.259,2.1973,2.0253,2.1553,2.2598,2.2524,2.4159,2.526,2.5235,2.532,2.5381,2.5381,2.5381,2.5381,2.5381,2.5416,2.5427,2.54,2.3488,2.2518,2.2558,2.2598,2.2648,2.2725,2.2721,2.3776,0.528,0.5304,0.5295,0.6113,0.5991,0.5807,0.6208,0.5982,0.5739,0.5856,0.6249,0.0,0.0,0.0,1.0771,1.1069,0.0,1.6164,1.5485,1.8593,2.1678,2.3695,0.0,0.0,0.0,2.3902,2.4003,2.4243,2.3487,2.2751,2.2124,2.1029,2.0041,1.9178,1.7699,1.6685,1.623,1.5646,1.5244,1.4998,1.5015,1.5019,1.4998,1.5003,1.4995,1.4982,1.5045,1.5065,1.5065,1.5068,1.5392,1.5971,1.6999,1.7857,1.8635,1.9616,2.0001,2.0026,1.993,2.0517,2.1506,2.2788,2.3795,2.45,2.45,2.45,2.4508,2.4516,2.4507,2.4499,2.4516,2.459,2.4646,2.4646,2.4719,2.4792,2.4792,2.4797,2.4821,2.4821,2.4821,2.4821,2.4821,2.4861,2.4902,2.4902,2.4902,2.4888,2.4847,2.4881,2.4888,2.4847,2.4974,2.5046,2.5046,2.5132,2.5212,2.5243,2.5303,2.5332,2.5332,2.537,2.5398,2.5398,2.5404,2.5428,2.5502,2.5574,2.5628,2.5672,2.5692,2.5702,0.0,0.0,0.0,0.4995,0.0,0.0,0.0,0.5399,0.5545,0.4961,0.4659,0.5245,0.7743,0.5634,0.5321,1.0783,0.863,0.0,0.0,1.6603,1.727,2.0115,2.1812,2.3051,0.0,2.3902,2.4253,0.0,2.4354,2.385,2.3822,2.2191,2.0894,2.0078,1.9192,1.7938,1.6304,1.6274,1.5834,1.4998,1.5066,1.5061,1.4998,1.5002,1.4964,1.4908,1.4967,1.4998,1.4998,1.4995,1.5018,1.5196,1.6777,1.7463,1.7743,1.9315,1.999,2.0074,1.995,2.0854,2.2195,2.2949,2.3795,2.45,2.45,2.45,2.4507,2.4582,2.455,2.4507,2.4582,2.4549,2.4508,2.4508,2.4517,2.4507,2.4507,2.4557,2.4606,2.4606,2.4606,2.4606,2.4606,2.477,2.4902,2.4902,2.4902,2.4854,2.4721,2.4821,2.4847,2.4721,2.4828,2.4908,2.4908,2.4906,2.4965,2.5099,2.5288,2.5394,2.5394,2.5397,2.5401,2.5401,2.5399,2.5431,2.5499,2.5574,2.56,2.5603,2.5673,2.5702,0.0,0.0,0.4615,0.4703,0.0,0.0,0.0,0.0,0.0,0.0,0.4829,0.4867,0.5492,0.6099,0.6442,0.6248,0.8137,1.0147,0.0,1.4468,1.6944,1.8413,2.102,2.2791,2.3025,0.0,2.4826,2.5176,2.4929,0.0,2.3931,2.2787,2.1765,2.092,1.9534,1.8251,1.7111,1.6568,1.5865,1.4995,1.4974,1.4979,1.4998,1.4956,1.4948,1.4964,1.4993,1.4995,1.4995,1.5002,1.4997,1.5162,1.6815,1.7482,1.7686,1.9316,1.9932,1.9945,1.986,2.0508,2.1501,2.2284,2.3069,2.3796,2.4232,2.4427,2.4482,2.4375,2.4411,2.4508,2.4524,2.455,2.4575,2.4575,2.4607,2.463,2.463,2.4645,2.467,2.467,2.463,2.4614,2.4662,2.4692,2.469,2.4635,2.4675,2.4692,2.4646,2.4667,2.4682,2.4638,2.4713,2.4794,2.4832,2.5044,2.5177,2.5231,2.5297,2.5332,2.5332,2.5379,2.5418,2.5468,2.5507,2.5544,2.5573,2.5593,2.5603,2.5595,2.5673,2.5703,0.4621,0.4485,0.0,0.423,0.429,0.0,0.452,0.0,0.4643,0.0,0.0,0.0,0.6708,0.0,0.5735,0.4856,0.6847,0.8745,0.0,1.2953,1.6023,1.7517,1.9855,2.1445,2.1684,2.3228,2.436,2.4713,2.5019,2.495,0.0,2.3541,2.2665,2.1825,2.0435,1.913,1.797,1.7143,1.6298,1.5463,1.5104,1.4958,1.4997,1.496,1.496,1.4998,1.4998,1.4998,1.4998,1.4998,1.4998,1.5141,1.6497,1.7046,1.7269,1.9221,1.9938,1.9932,1.9853,2.0358,2.1116,2.1612,2.2498,2.3448,2.388,2.428,2.4548,2.4443,2.4487,2.4574,2.4597,2.4622,2.4638,2.4638,2.4668,2.47,2.47,2.4723,2.4746,2.4746,2.4707,2.4675,2.4738,2.4676,2.4622,2.4574,2.4615,2.4638,2.4638,2.4614,2.4606,2.4638,2.4645,2.469,2.4755,2.5013,2.5176,2.5228,2.5251,2.5297,2.537,2.5391,2.5445,2.5527,2.5583,2.5597,2.5599,2.5605,2.5613,2.5645,2.5682,2.5699]}]]